[[{"header":{"parameterUnit":"m.s-1","parameterCategory":1,"la1":30.6,"la2":29.2853,"lo1":-89.7004,"lo2":-87.6739,"dy":0.0162,"dx":0.0183,"nx":112,"ny":82,"refTime":"2024-04-16T06:00:00:Z","depth":0,"parameterNumber":2,"parameterNumberName":"U-component_of_WINDS"},"data":[0.0,0.0,0.0,0.0,0.0,0.0,0.0,0.0,0.0,0.0,0.0,0.0,0.0,0.0,0.0,0.0,0.0,0.0,0.0,0.0,0.0,0.0,0.0,0.0,0.0,0.0,0.0,0.0,0.0,0.0,0.0,0.0,0.0,0.0,0.0,0.0,0.0,0.0,0.0,0.0,0.0,0.0,0.0,0.0,0.0,0.0,0.0,0.0,0.0,0.0,0.0,0.0,0.0,0.0,0.0,0.0,0.0,0.0,0.0,0.0,0.0,0.0,0.0,0.0,0.0,0.0,0.0,0.0,0.0,0.0,0.0,0.0,0.0,0.0,0.0,0.0,0.0,0.0,0.0,0.0,0.0,0.0,0.0,0.0,0.0,0.0,0.0,0.0,0.0,0.0,-3.0621,-3.0684,-3.0707,-3.0641,-3.0522,-3.0177,-2.9677,-2.903,0.0,0.0,0.0,0.0,0.0,0.0,0.0,0.0,0.0,0.0,0.0,0.0,0.0,0.0,0.0,0.0,0.0,0.0,0.0,0.0,0.0,0.0,0.0,0.0,0.0,0.0,0.0,0.0,0.0,0.0,0.0,0.0,0.0,0.0,0.0,0.0,0.0,0.0,0.0,0.0,0.0,0.0,0.0,0.0,0.0,0.0,0.0,0.0,0.0,0.0,0.0,0.0,0.0,0.0,0.0,0.0,0.0,0.0,0.0,0.0,0.0,0.0,0.0,0.0,0.0,0.0,0.0,0.0,0.0,0.0,0.0,0.0,0.0,0.0,0.0,0.0,0.0,0.0,0.0,0.0,0.0,0.0,0.0,0.0,0.0,0.0,0.0,0.0,0.0,0.0,0.0,0.0,0.0,0.0,0.0,0.0,0.0,0.0,0.0,0.0,0.0,0.0,0.0,0.0,-3.0637,-3.0694,-3.0699,-3.0664,-3.0584,-3.0314,-2.9806,-2.8975,0.0,0.0,0.0,0.0,0.0,0.0,0.0,0.0,0.0,0.0,0.0,0.0,0.0,0.0,0.0,0.0,0.0,0.0,0.0,0.0,0.0,0.0,0.0,0.0,0.0,0.0,0.0,0.0,0.0,0.0,0.0,0.0,0.0,0.0,0.0,0.0,0.0,0.0,0.0,0.0,0.0,0.0,0.0,0.0,0.0,0.0,0.0,0.0,0.0,0.0,0.0,0.0,0.0,0.0,0.0,0.0,0.0,0.0,0.0,0.0,0.0,0.0,0.0,0.0,0.0,0.0,0.0,0.0,0.0,0.0,0.0,0.0,0.0,0.0,0.0,0.0,0.0,0.0,0.0,0.0,0.0,0.0,0.0,0.0,0.0,0.0,0.0,0.0,0.0,0.0,0.0,0.0,0.0,0.0,0.0,0.0,0.0,0.0,0.0,0.0,0.0,0.0,0.0,-3.0885,-3.0658,-3.0496,-3.0574,-3.0607,-3.0509,-3.0203,-2.9712,-2.8944,-2.7853,0.0,0.0,0.0,0.0,0.0,0.0,0.0,0.0,0.0,0.0,0.0,0.0,0.0,0.0,0.0,0.0,0.0,0.0,0.0,0.0,0.0,0.0,0.0,0.0,0.0,0.0,0.0,0.0,0.0,0.0,0.0,0.0,0.0,0.0,0.0,0.0,0.0,0.0,0.0,0.0,0.0,0.0,0.0,0.0,0.0,0.0,0.0,0.0,0.0,0.0,0.0,0.0,0.0,0.0,0.0,0.0,0.0,0.0,0.0,0.0,0.0,0.0,0.0,0.0,0.0,0.0,0.0,0.0,0.0,0.0,0.0,0.0,0.0,0.0,0.0,0.0,0.0,0.0,0.0,0.0,0.0,0.0,0.0,0.0,0.0,0.0,0.0,0.0,0.0,0.0,0.0,0.0,0.0,0.0,0.0,0.0,0.0,0.0,0.0,0.0,0.0,0.0,-3.0672,-3.0672,-3.0407,-3.0507,-3.0556,-3.0428,-3.0099,-2.9631,-2.9002,-2.8222,0.0,0.0,0.0,0.0,0.0,0.0,0.0,0.0,0.0,0.0,0.0,0.0,0.0,0.0,0.0,0.0,0.0,0.0,0.0,0.0,0.0,0.0,0.0,0.0,0.0,0.0,0.0,0.0,0.0,0.0,0.0,0.0,0.0,0.0,0.0,0.0,0.0,0.0,0.0,0.0,0.0,0.0,0.0,0.0,0.0,0.0,0.0,0.0,0.0,0.0,0.0,0.0,0.0,0.0,0.0,0.0,0.0,0.0,0.0,0.0,0.0,0.0,0.0,0.0,0.0,0.0,0.0,0.0,0.0,0.0,0.0,0.0,0.0,0.0,0.0,0.0,0.0,0.0,0.0,0.0,0.0,0.0,0.0,0.0,0.0,0.0,0.0,0.0,0.0,0.0,0.0,0.0,0.0,0.0,0.0,0.0,0.0,0.0,0.0,0.0,0.0,0.0,-3.0698,-3.0673,-3.0586,-3.0586,-3.0579,-3.0496,-3.0124,-2.9667,-2.913,-2.8278,0.0,0.0,0.0,0.0,0.0,0.0,0.0,0.0,0.0,0.0,0.0,0.0,0.0,0.0,0.0,0.0,0.0,0.0,0.0,0.0,0.0,0.0,0.0,0.0,0.0,0.0,0.0,0.0,0.0,0.0,0.0,0.0,0.0,0.0,0.0,0.0,0.0,0.0,0.0,0.0,0.0,0.0,0.0,0.0,0.0,0.0,0.0,0.0,0.0,0.0,0.0,0.0,0.0,0.0,0.0,0.0,0.0,0.0,0.0,0.0,0.0,0.0,0.0,0.0,0.0,0.0,0.0,0.0,0.0,0.0,0.0,0.0,0.0,0.0,0.0,0.0,0.0,0.0,0.0,0.0,0.0,0.0,0.0,0.0,0.0,0.0,0.0,0.0,0.0,0.0,0.0,0.0,0.0,0.0,0.0,0.0,0.0,0.0,0.0,0.0,0.0,0.0,-3.0691,-3.0667,0.0,-3.0583,-3.056,-3.0449,-3.0114,-2.9667,-2.913,0.0,0.0,0.0,0.0,0.0,0.0,0.0,0.0,0.0,0.0,0.0,0.0,0.0,0.0,0.0,0.0,0.0,0.0,0.0,0.0,0.0,0.0,0.0,0.0,0.0,0.0,0.0,0.0,0.0,0.0,0.0,0.0,0.0,0.0,0.0,0.0,0.0,0.0,0.0,0.0,0.0,0.0,0.0,0.0,0.0,0.0,0.0,0.0,0.0,0.0,0.0,0.0,0.0,0.0,0.0,0.0,0.0,0.0,0.0,0.0,0.0,0.0,0.0,0.0,0.0,0.0,0.0,0.0,0.0,0.0,0.0,0.0,0.0,0.0,0.0,0.0,0.0,0.0,0.0,0.0,0.0,0.0,0.0,0.0,0.0,0.0,0.0,0.0,0.0,0.0,0.0,0.0,0.0,0.0,0.0,0.0,0.0,0.0,0.0,0.0,0.0,0.0,-3.0687,-3.0728,-3.0684,0.0,-3.0598,-3.0595,-3.0465,-3.0142,-2.9719,-2.92,0.0,0.0,0.0,0.0,0.0,0.0,0.0,0.0,0.0,0.0,0.0,0.0,0.0,0.0,0.0,0.0,0.0,0.0,0.0,0.0,0.0,0.0,0.0,0.0,0.0,0.0,0.0,0.0,0.0,0.0,0.0,0.0,0.0,0.0,0.0,0.0,0.0,0.0,0.0,0.0,0.0,0.0,0.0,0.0,0.0,0.0,0.0,0.0,0.0,0.0,0.0,0.0,0.0,0.0,0.0,0.0,0.0,0.0,0.0,0.0,0.0,0.0,0.0,0.0,0.0,0.0,0.0,0.0,0.0,0.0,0.0,0.0,0.0,0.0,0.0,0.0,0.0,0.0,0.0,0.0,0.0,0.0,0.0,0.0,0.0,0.0,0.0,0.0,0.0,0.0,0.0,0.0,0.0,0.0,0.0,0.0,0.0,0.0,0.0,0.0,0.0,0.0,-3.0706,-3.0767,-3.0759,-3.0613,-3.0655,-3.0672,-3.0591,-3.0228,-2.9799,0.0,0.0,0.0,0.0,0.0,0.0,0.0,0.0,0.0,0.0,0.0,0.0,0.0,0.0,0.0,0.0,0.0,0.0,0.0,0.0,0.0,0.0,0.0,0.0,0.0,0.0,0.0,0.0,0.0,0.0,0.0,0.0,0.0,0.0,0.0,0.0,0.0,0.0,0.0,0.0,0.0,0.0,0.0,0.0,0.0,0.0,0.0,0.0,0.0,0.0,0.0,0.0,0.0,0.0,0.0,0.0,0.0,0.0,0.0,0.0,0.0,0.0,0.0,0.0,0.0,0.0,0.0,0.0,0.0,0.0,0.0,0.0,0.0,0.0,0.0,0.0,0.0,0.0,0.0,0.0,0.0,0.0,0.0,0.0,0.0,0.0,0.0,0.0,0.0,0.0,0.0,0.0,0.0,0.0,0.0,0.0,0.0,0.0,0.0,0.0,0.0,0.0,0.0,-3.0763,-3.0712,-3.0648,-3.0599,-3.0622,-3.0591,-3.0535,-3.0297,-2.9953,-2.9547,0.0,0.0,0.0,0.0,0.0,0.0,0.0,0.0,0.0,0.0,0.0,0.0,0.0,0.0,0.0,0.0,0.0,0.0,0.0,0.0,0.0,0.0,0.0,0.0,0.0,0.0,0.0,0.0,0.0,0.0,0.0,0.0,0.0,0.0,0.0,0.0,0.0,0.0,0.0,0.0,0.0,0.0,0.0,0.0,0.0,0.0,0.0,0.0,0.0,0.0,0.0,0.0,0.0,0.0,0.0,0.0,0.0,0.0,0.0,0.0,0.0,0.0,0.0,0.0,0.0,0.0,0.0,0.0,0.0,0.0,0.0,0.0,0.0,0.0,0.0,0.0,0.0,0.0,0.0,0.0,0.0,0.0,0.0,0.0,0.0,0.0,0.0,0.0,0.0,0.0,0.0,0.0,0.0,0.0,0.0,0.0,0.0,0.0,0.0,0.0,0.0,0.0,-3.0747,-3.0685,-3.0638,-3.0603,-3.0607,-3.0575,-3.0543,-3.0359,-3.0086,-2.9739,0.0,0.0,0.0,0.0,0.0,0.0,0.0,0.0,0.0,0.0,0.0,0.0,0.0,0.0,0.0,0.0,0.0,0.0,0.0,0.0,0.0,0.0,0.0,0.0,0.0,0.0,0.0,0.0,0.0,0.0,0.0,0.0,0.0,0.0,0.0,0.0,0.0,0.0,0.0,0.0,0.0,0.0,0.0,0.0,0.0,0.0,0.0,0.0,0.0,0.0,0.0,0.0,0.0,0.0,0.0,0.0,0.0,0.0,0.0,0.0,0.0,0.0,0.0,0.0,0.0,0.0,0.0,0.0,0.0,0.0,0.0,0.0,0.0,0.0,0.0,0.0,0.0,0.0,0.0,0.0,0.0,0.0,0.0,0.0,0.0,0.0,0.0,0.0,0.0,0.0,0.0,0.0,0.0,0.0,0.0,0.0,0.0,0.0,0.0,0.0,0.0,0.0,-3.0706,-3.0682,-3.0674,-3.0618,-3.0595,-3.0609,-3.0605,-3.0438,-3.0228,-2.9939,0.0,0.0,0.0,0.0,0.0,0.0,0.0,0.0,0.0,0.0,0.0,0.0,0.0,0.0,0.0,0.0,0.0,0.0,0.0,0.0,0.0,0.0,0.0,0.0,0.0,0.0,0.0,0.0,0.0,0.0,0.0,0.0,0.0,0.0,0.0,0.0,0.0,0.0,0.0,0.0,0.0,0.0,0.0,0.0,0.0,0.0,0.0,0.0,0.0,0.0,0.0,0.0,0.0,0.0,0.0,0.0,0.0,0.0,0.0,0.0,-3.1579,0.0,0.0,0.0,0.0,0.0,0.0,0.0,0.0,0.0,0.0,0.0,0.0,0.0,0.0,0.0,0.0,0.0,0.0,0.0,0.0,0.0,0.0,0.0,0.0,0.0,0.0,0.0,0.0,0.0,0.0,0.0,0.0,0.0,0.0,0.0,0.0,0.0,0.0,0.0,0.0,0.0,-3.0703,-3.0648,-3.0618,-3.0597,-3.061,-3.0595,-3.0602,-3.0567,-3.0432,-3.0235,-2.992,0.0,0.0,0.0,0.0,0.0,0.0,0.0,0.0,0.0,0.0,0.0,0.0,0.0,0.0,0.0,0.0,0.0,0.0,0.0,0.0,0.0,0.0,0.0,0.0,0.0,0.0,0.0,0.0,0.0,0.0,0.0,0.0,0.0,0.0,0.0,0.0,0.0,0.0,0.0,0.0,0.0,0.0,0.0,0.0,0.0,0.0,0.0,0.0,0.0,0.0,0.0,0.0,0.0,0.0,0.0,0.0,0.0,0.0,0.0,0.0,-3.2213,0.0,0.0,0.0,0.0,0.0,0.0,0.0,0.0,0.0,0.0,0.0,0.0,0.0,0.0,0.0,0.0,0.0,0.0,0.0,0.0,0.0,0.0,0.0,0.0,0.0,0.0,0.0,0.0,0.0,0.0,0.0,0.0,0.0,0.0,0.0,0.0,0.0,0.0,0.0,0.0,-3.0703,-3.0667,-3.0633,-3.0593,-3.0597,-3.0602,-3.0593,-3.0593,-3.052,-3.0367,-3.0126,0.0,0.0,0.0,0.0,0.0,0.0,0.0,0.0,0.0,0.0,0.0,0.0,0.0,0.0,0.0,0.0,0.0,0.0,0.0,0.0,0.0,0.0,0.0,0.0,0.0,0.0,0.0,0.0,0.0,0.0,0.0,0.0,0.0,0.0,0.0,0.0,0.0,0.0,0.0,0.0,0.0,0.0,0.0,0.0,0.0,0.0,0.0,0.0,0.0,0.0,0.0,0.0,0.0,-3.2292,-3.2686,-3.3563,-3.3542,-3.3883,-3.4386,-3.3108,-3.2588,-3.2647,-3.2732,0.0,0.0,0.0,0.0,0.0,0.0,0.0,0.0,0.0,0.0,0.0,0.0,0.0,0.0,0.0,0.0,0.0,0.0,0.0,0.0,0.0,0.0,0.0,0.0,-3.2104,-3.2239,-3.275,0.0,0.0,0.0,0.0,0.0,0.0,0.0,0.0,0.0,0.0,0.0,-3.0697,-3.0697,-3.0677,-3.0614,-3.0614,-3.0614,-3.061,-3.061,-3.0576,-3.0433,-3.022,-3.0006,0.0,0.0,0.0,0.0,0.0,0.0,0.0,0.0,0.0,0.0,0.0,0.0,0.0,0.0,0.0,0.0,0.0,0.0,0.0,0.0,0.0,0.0,0.0,0.0,0.0,0.0,0.0,0.0,0.0,0.0,0.0,0.0,-2.2372,-2.3688,0.0,0.0,0.0,0.0,0.0,0.0,0.0,0.0,0.0,0.0,0.0,0.0,0.0,-3.229,-3.2655,-3.3277,-3.3821,-3.4242,-3.3999,-3.402,-3.4252,-3.4149,-3.4164,-3.4227,-3.4015,0.0,-3.4373,-3.451,0.0,0.0,0.0,0.0,0.0,0.0,0.0,0.0,0.0,0.0,0.0,0.0,0.0,0.0,0.0,0.0,0.0,0.0,0.0,0.0,0.0,0.0,-3.3983,-3.2457,-3.2103,-3.1922,0.0,-3.1122,-3.1084,-3.0964,-3.0942,0.0,0.0,0.0,0.0,0.0,0.0,0.0,-3.0701,-3.0694,-3.0699,-3.0696,-3.0692,-3.0695,-3.0696,-3.0696,-3.0657,-3.0586,-3.0487,-3.0262,-2.9897,-2.9844,0.0,0.0,0.0,0.0,0.0,0.0,0.0,0.0,0.0,0.0,0.0,0.0,0.0,0.0,0.0,0.0,0.0,0.0,0.0,0.0,0.0,0.0,0.0,0.0,0.0,0.0,0.0,0.0,0.0,-2.2578,-2.3948,-2.5503,-2.5,-2.5054,0.0,0.0,0.0,0.0,0.0,0.0,0.0,0.0,0.0,-3.2288,-3.2876,-3.3322,-3.3634,-3.3914,-3.4173,-3.4363,-3.4257,-3.4233,-3.4281,-3.4221,-3.4197,-3.4209,-3.4351,-3.4498,-3.4649,-3.471,-3.4841,-3.4997,0.0,0.0,0.0,0.0,-3.5361,-3.5333,-3.5091,-3.503,-3.4943,-3.415,0.0,0.0,0.0,0.0,0.0,0.0,0.0,-3.3483,0.0,0.0,-3.4511,-3.3747,-3.3197,-3.2587,-3.172,-3.1141,-3.0792,0.0,-3.0808,-3.0781,-3.0754,0.0,0.0,0.0,0.0,-3.074,-3.0703,-3.07,-3.0691,-3.0703,-3.0706,-3.071,-3.0699,-3.0699,-3.0692,-3.0657,-3.0589,-3.0472,-3.0292,-3.0183,-3.0004,0.0,0.0,0.0,0.0,0.0,0.0,0.0,0.0,0.0,0.0,0.0,0.0,0.0,0.0,0.0,0.0,0.0,0.0,0.0,0.0,0.0,0.0,0.0,0.0,0.0,0.0,0.0,0.0,-2.4097,-2.5571,-2.7009,-2.6872,-2.7078,0.0,0.0,0.0,0.0,0.0,0.0,-3.1678,-3.1793,-3.2459,-3.3915,-3.3895,-3.3972,-3.4173,-3.4161,-3.4148,-3.4148,-3.4173,-3.4173,-3.4173,-3.4197,-3.4197,-3.4209,-3.4416,-3.4528,-3.4612,-3.471,-3.4841,-3.499,-3.5141,-3.5198,-3.5231,-3.5369,-3.5424,-3.5446,-3.5534,-3.5593,-3.5534,-3.4994,-3.4863,-3.4761,-3.3843,0.0,0.0,0.0,0.0,-3.3902,-3.4804,-3.5039,-3.498,-3.4744,-3.4194,-3.343,-3.2334,-3.1592,-3.1078,0.0,-3.0799,-3.0791,-3.0799,0.0,0.0,0.0,0.0,-3.0756,-3.0735,-3.073,-3.0739,-3.0724,-3.0737,-3.0737,-3.0737,-3.0711,-3.0707,-3.0707,-3.0657,-3.0617,-3.06,-3.0452,-3.0306,-3.0152,0.0,0.0,0.0,0.0,0.0,0.0,0.0,0.0,0.0,0.0,0.0,0.0,0.0,0.0,0.0,0.0,0.0,0.0,0.0,0.0,0.0,0.0,0.0,0.0,0.0,0.0,0.0,0.0,0.0,-2.8725,-2.8387,0.0,0.0,0.0,0.0,-3.062,-3.135,-3.2039,-3.2692,-3.3021,-3.3463,-3.4074,-3.4086,-3.4086,-3.4099,-3.4049,-3.4011,-3.4011,-3.4074,-3.4111,-3.4111,-3.4173,-3.4197,-3.4197,-3.4209,-3.4351,-3.4626,-3.5019,-3.5072,-3.4917,-3.5124,-3.5089,-3.4936,-3.5141,-3.5218,-3.5242,-3.5439,-3.5579,-3.5693,-3.5659,-3.5735,-3.5677,-3.4789,-3.4486,0.0,0.0,-3.4595,-3.4765,-3.5681,-3.5937,-3.5723,-3.4901,-3.4667,-3.4179,-3.2473,-3.2067,-3.1796,0.0,-3.0798,-3.08,-3.0801,0.0,-3.0761,-3.0719,-3.0718,-3.0733,-3.0794,-3.0791,-3.0799,-3.0782,-3.0796,-3.0796,-3.0796,-3.0734,-3.07,-3.07,-3.0707,-3.0665,-3.06,-3.0595,-3.0496,-3.0294,-3.0006,0.0,0.0,0.0,0.0,0.0,0.0,0.0,0.0,0.0,0.0,0.0,0.0,0.0,0.0,0.0,0.0,0.0,0.0,0.0,0.0,0.0,0.0,0.0,0.0,0.0,0.0,0.0,0.0,-2.9222,-2.9562,0.0,-3.0645,-3.0613,-3.0938,-3.1827,-3.2092,-3.2583,-3.339,-3.3154,-3.3284,-3.3947,-3.3752,-3.3671,-3.3707,-3.3698,-3.363,-3.355,-3.3616,-3.3743,-3.3908,-3.3972,-3.4036,-3.4074,-3.4074,-3.4124,-3.4245,-3.4508,-3.4734,-3.4927,-3.5115,-3.5168,-3.5115,-3.5324,-3.5383,-3.5405,-3.5515,-3.5596,-3.5641,-3.5682,-3.5795,-3.5846,-3.5526,-3.5444,-3.548,-3.5522,-3.5523,-3.558,-3.5917,-3.5996,-3.5918,-3.5605,-3.5117,-3.4374,-3.3181,-3.25,-3.1835,-3.0976,-3.0798,-3.0794,-3.0793,-3.08,-3.0791,-3.0762,-3.075,-3.0777,-3.0801,-3.0796,-3.0784,-3.0742,-3.0771,-3.0791,-3.0796,-3.0789,-3.0742,-3.0703,-3.0748,-3.073,-3.0665,-3.0664,-3.063,-3.057,-3.0428,-3.0288,0.0,0.0,0.0,0.0,0.0,0.0,0.0,0.0,0.0,0.0,0.0,0.0,0.0,0.0,0.0,0.0,0.0,0.0,0.0,0.0,0.0,0.0,0.0,0.0,0.0,0.0,-2.9444,-2.9696,-3.0335,-3.0801,-3.0978,-3.1103,-3.1493,-3.2265,-3.2282,-3.2648,-3.3526,-3.3154,-3.3214,-3.3802,-3.3606,-3.3518,-3.356,-3.355,-3.3508,-3.3455,-3.3508,-3.3634,-3.3847,-3.3895,-3.3959,-3.3998,-3.3998,-3.3998,-3.4011,-3.4129,-3.4353,-3.4641,-3.4981,-3.5122,-3.5166,-3.5369,-3.5453,-3.5488,-3.5562,-3.5607,-3.5609,-3.567,-3.5758,-3.5836,-3.5825,-3.5853,-3.59,-3.5905,-3.591,-3.5895,-3.5921,-3.5948,-3.5973,-3.5973,-3.5547,-3.4902,-3.4022,-3.3144,-3.2284,-3.1401,-3.0976,-3.0765,-3.0792,-3.0782,-3.0774,-3.0791,-3.0808,-3.0806,-3.0804,-3.0799,-3.0781,-3.0742,-3.077,-3.0796,-3.0805,-3.0791,-3.0784,-3.0739,-3.0782,-3.0769,-3.0697,-3.0704,-3.0707,-3.0694,-3.0593,-3.0427,-3.0222,0.0,0.0,0.0,0.0,0.0,0.0,0.0,0.0,0.0,0.0,0.0,0.0,0.0,0.0,0.0,0.0,0.0,0.0,0.0,0.0,0.0,0.0,0.0,-2.7942,-2.9178,-3.021,-3.021,-3.0692,-3.0898,-3.0645,-3.1024,-3.1488,-3.1967,-3.1985,-3.23,-3.3039,-3.3129,-3.3324,-3.3671,-3.3684,-3.3684,-3.3684,-3.3633,-3.3633,-3.3684,-3.3753,-3.3802,-3.3881,-3.3959,-3.3985,-3.3985,-3.3985,-3.3998,-3.3998,-3.3998,-3.3998,-3.4055,-3.4725,-3.498,-3.4997,-3.5219,-3.533,-3.5415,-3.555,-3.5602,-3.5599,-3.5678,-3.5689,-3.5693,-3.5693,-3.5693,-3.5698,-3.5698,-3.5698,-3.5721,-3.5781,-3.586,-3.5903,-3.5892,-3.595,-3.5742,-3.4882,-3.4003,-3.3144,-3.2265,-3.1345,-3.0716,-3.0792,-3.074,-3.0712,-3.0796,-3.0801,0.0,-3.0807,-3.0792,-3.08,-3.0795,-3.0796,-3.0799,-3.08,-3.08,-3.0809,-3.0808,-3.0806,-3.0769,-3.0701,-3.0704,-3.0707,-3.069,-3.0501,-3.0309,-3.011,0.0,0.0,0.0,0.0,0.0,0.0,0.0,0.0,0.0,0.0,0.0,0.0,0.0,0.0,0.0,0.0,0.0,0.0,0.0,0.0,0.0,-2.8756,-2.922,-2.8968,-2.9966,-3.0729,-3.0773,-3.1012,-3.1131,-3.1055,-3.1215,-3.1432,-3.175,-3.1562,-3.1749,-3.2536,-3.2386,-3.2569,-3.3247,-3.3265,-3.3268,-3.3268,-3.3253,-3.3223,-3.319,-3.325,-3.3309,-3.3335,-3.3638,-3.368,-3.3508,-3.3748,-3.3842,-3.3842,-3.3842,-3.3842,-3.3908,-3.4323,-3.4551,-3.4672,-3.5025,-3.5297,-3.5474,-3.5502,-3.5522,-3.5528,-3.5547,-3.5579,-3.5635,-3.5635,-3.5664,-3.5702,-3.5702,-3.5741,-3.5781,-3.5798,-3.5805,-3.5829,-3.5831,-3.5843,-3.5619,-3.4741,-3.3862,-3.3005,-3.2199,-3.1265,-3.0642,-3.0714,-3.0714,-3.0712,-3.0796,-3.0801,0.0,-3.0795,-3.0799,-3.0807,-3.0792,-3.0804,-3.0795,-3.0809,-3.08,-3.0796,-3.0799,-3.0806,-3.0776,-3.0694,-3.0697,-3.0688,-3.0629,-3.0441,-3.0291,0.0,0.0,0.0,0.0,0.0,0.0,0.0,0.0,0.0,0.0,0.0,0.0,0.0,0.0,0.0,0.0,0.0,0.0,0.0,0.0,0.0,0.0,-2.921,-2.9645,-2.9728,-3.0305,-3.0794,-3.0935,-3.1032,-3.1092,-3.1112,-3.1154,-3.1295,-3.1565,-3.1449,-3.1638,-3.2248,-3.2144,-3.2283,-3.2749,-3.291,-3.2972,-3.2972,-3.3178,-3.3238,-3.3208,-3.3313,-3.3353,-3.3368,-3.3583,-3.3625,-3.3508,-3.368,-3.378,-3.3807,-3.3807,-3.3807,0.0,0.0,0.0,0.0,0.0,-3.5111,-3.5262,-3.5391,-3.5427,-3.546,-3.546,-3.5509,-3.5565,-3.5565,-3.5599,-3.5614,-3.5616,-3.5631,-3.567,-3.5706,-3.5714,-3.5712,-3.5746,-3.5771,-3.5655,-3.5146,-3.436,-3.3502,-3.2655,-3.1774,0.0,-3.0706,-3.0658,-3.0672,-3.0742,-3.0759,-3.0764,-3.0764,-3.0776,-3.0806,-3.0804,-3.0798,-3.0795,-3.0792,-3.0808,0.0,0.0,0.0,-3.0785,-3.073,-3.0709,0.0,0.0,0.0,-3.0309,-3.026,-3.0219,0.0,0.0,-2.9787,-2.9725,0.0,0.0,0.0,0.0,0.0,0.0,0.0,0.0,0.0,0.0,0.0,0.0,0.0,0.0,0.0,0.0,-2.9429,-3.0124,-3.0189,-3.038,-3.0589,-3.0851,-3.0892,-3.0912,-3.0975,-3.0995,-3.1098,-3.1338,-3.147,-3.1677,-3.1986,0.0,0.0,0.0,0.0,-3.2747,-3.2747,-3.316,-3.3357,-3.339,-3.3545,-3.3615,-3.3587,-3.3657,-3.3698,-3.3707,-3.3698,-3.3726,-3.378,-3.378,-3.3793,-3.3802,-3.4074,-3.4185,-3.425,-3.4685,-3.486,-3.4916,-3.5176,0.0,0.0,-3.5405,-3.5453,-3.55,-3.55,-3.55,-3.55,-3.55,-3.5507,-3.5508,-3.5573,-3.5596,-3.5602,-3.5663,-3.5737,-3.5788,-3.5788,-3.5103,-3.4231,-3.3359,-3.2485,-3.1612,-3.0741,-3.0602,-3.0622,-3.0687,-3.0698,-3.0697,-3.0697,-3.0742,-3.0796,-3.0796,0.0,0.0,-3.0806,-3.0794,-3.0791,-3.08,-3.0795,-3.08,-3.0795,-3.0734,-3.0599,-3.0428,-3.0413,-3.0344,-3.0226,-3.0213,-3.0213,-3.0226,-3.0154,-3.014,0.0,0.0,0.0,0.0,0.0,0.0,0.0,0.0,0.0,0.0,0.0,0.0,0.0,0.0,0.0,-2.9104,-2.9445,-2.9705,-3.0146,-3.038,-3.0568,-3.0712,-3.0733,-3.079,-3.0912,-3.0932,-3.0955,-3.1078,-3.1098,-3.1196,-3.1351,-3.1657,-3.1823,-3.1823,-3.2179,-3.2402,-3.2402,-3.2486,-3.2569,-3.2619,0.0,0.0,-3.2832,-3.3368,-3.3473,-3.3253,-3.3502,-3.3633,-3.3629,-3.3629,-3.3671,-3.3739,-3.3895,-3.4049,-3.4218,-3.4349,-3.4553,-3.4774,-3.5043,-3.5147,-3.5179,-3.5405,-3.5493,-3.55,-3.55,-3.55,0.0,-3.55,-3.5508,-3.5502,-3.5515,-3.5559,-3.5595,-3.5626,-3.5626,-3.5639,-3.5639,-3.5001,-3.4153,-3.3301,-3.2421,-3.1569,-3.0747,-3.06,-3.0622,-3.0687,-3.0697,-3.0704,-3.0704,-3.071,-3.0731,-3.0731,-3.0769,-3.0804,-3.0791,-3.0796,-3.0792,-3.0801,-3.0801,-3.0793,-3.0794,-3.0684,-3.0595,-3.0552,-3.0458,-3.0386,-3.0353,-3.0316,-3.0322,-3.0348,-3.0241,-3.0161,0.0,0.0,0.0,0.0,0.0,0.0,0.0,0.0,0.0,0.0,0.0,-2.7505,-2.8401,0.0,-2.8497,-2.9566,-2.9782,-2.9897,-3.0167,-3.038,-3.0547,-3.0692,-3.0692,-3.0733,-3.0794,-3.0871,-3.0892,-3.0855,-3.1137,-3.1315,-3.1408,-3.1749,-3.1859,-3.1657,-3.1985,-3.2039,-3.186,-3.2127,-3.2248,-3.2248,-3.2584,-3.2766,-3.28,-3.3144,-3.3327,-3.3357,-3.3491,-3.3577,-3.3605,-3.3647,-3.3671,-3.3712,-3.382,-3.3915,-3.4006,-3.4196,-3.4337,-3.4483,-3.4764,-3.4851,-3.4879,-3.5079,-3.5215,-3.5304,-3.5339,-3.5424,-3.55,-3.55,-3.5494,-3.5502,-3.5502,-3.5522,-3.556,-3.5591,-3.561,-3.5602,-3.5601,-3.5289,-3.474,-3.39,-3.3049,-3.2179,-3.1347,-3.0868,-3.06,-3.0645,-3.0649,-3.0642,-3.0642,-3.061,-3.0628,-3.0695,-3.0704,-3.0716,-3.0739,-3.0774,-3.081,-3.081,-3.0794,-3.08,-3.0794,-3.0749,-3.0667,-3.0597,-3.0529,-3.047,-3.0443,-3.0422,-3.0411,-3.0402,-3.0333,-3.0273,0.0,0.0,0.0,0.0,0.0,0.0,0.0,0.0,-2.7784,-2.748,-2.7834,-2.8439,-2.9129,-2.8912,-2.8919,-2.9842,-2.9995,-3.006,-3.0146,-3.0338,-3.0526,-3.063,-3.0651,-3.0671,-3.0692,-3.0773,-3.081,-3.0733,-3.1159,-3.1432,-3.147,-3.1768,-3.1786,-3.147,-3.175,-3.1769,-3.1435,-3.1969,-3.2196,-3.2144,-3.235,-3.2601,-3.2846,-3.2846,-3.3083,-3.3459,-3.3462,-3.3506,-3.3563,-3.3629,-3.3657,-3.3657,-3.3739,-3.3766,-3.3793,-3.4036,-3.4124,-3.4154,-3.442,-3.4529,-3.4551,-3.4714,-3.4898,-3.5053,-3.5115,-3.5266,-3.5439,-3.5439,-3.5479,-3.5507,-3.5509,-3.5496,-3.5502,-3.5566,-3.5579,-3.5578,-3.5608,-3.5601,-3.5361,-3.4563,-3.3682,-3.2801,-3.1947,-3.1105,-3.0559,-3.0598,-3.061,-3.0593,-3.0593,-3.055,-3.0571,-3.0687,-3.0644,-3.0658,-3.0706,-3.0769,-3.0801,-3.0801,-3.0809,-3.0793,-3.08,-3.0793,-3.0758,-3.0642,-3.0645,-3.06,-3.0554,-3.0533,-3.051,-3.0467,-3.0443,-3.0418,-2.5119,-2.537,-2.5495,-2.6203,-2.6095,-2.6108,0.0,0.0,-2.7809,-2.8103,-2.8408,-2.8732,-2.9051,-2.8685,-2.8685,-2.9732,-2.9621,-2.9554,-2.9951,-3.0248,-3.0417,-3.0438,-3.0485,-3.0568,-3.0692,-3.0609,-3.0651,-3.0871,-3.0834,-3.0855,-3.0975,-3.1015,-3.1015,-3.0975,-3.1393,-3.1621,-3.1565,-3.2039,-3.23,-3.2283,-3.2317,-3.2351,-3.2385,-3.2385,-3.2569,-3.2923,-3.3253,-3.3408,-3.3422,-3.3477,-3.352,-3.352,-3.3605,-3.3615,-3.3629,-3.3793,-3.3842,-3.3881,-3.4147,-3.4235,-3.43,-3.4622,-3.4773,-3.4832,-3.4832,-3.5027,-3.5234,-3.5234,-3.5361,-3.55,-3.5507,-3.5507,-3.5507,-3.5514,-3.5509,-3.5522,-3.5598,-3.5602,-3.5361,-3.4563,-3.3644,-3.2742,-3.1937,-3.1041,-3.0455,-3.0588,-3.0602,-3.0607,-3.0607,-3.06,-3.0622,-3.0687,-3.0698,-3.0725,-3.0774,-3.0799,-3.0801,-3.0801,-3.0798,-3.0796,-3.0799,-3.08,-3.0787,-3.0783,-3.0784,-3.0772,-3.0764,-3.0651,-3.0618,-3.0678,-3.0614,-3.0511,-2.5147,-2.5356,-2.5495,0.0,-2.659,-2.6788,-2.7321,-2.7695,-2.7947,-2.8061,-2.8021,-2.8216,-2.8958,-2.8662,-2.8662,0.0,-2.982,-2.9776,-2.9973,-3.0231,-3.0359,-3.0274,-3.0422,-3.0526,-3.0589,-3.0609,-3.0651,-3.079,-3.0982,-3.1142,-3.1181,-3.1338,-3.1338,-3.1201,-3.1336,-3.1353,-3.1179,-3.143,-3.1545,-3.1545,-3.1823,-3.195,-3.1967,-3.2179,-3.2468,-3.2811,-3.3241,-3.3393,-3.3411,-3.3481,-3.3509,-3.3509,-3.3577,-3.3605,-3.3619,-3.3712,-3.3739,-3.378,-3.3967,-3.3999,-3.4012,-3.4267,-3.4409,-3.4529,-3.4649,-3.4841,-3.5028,-3.5028,-3.5089,-3.5185,-3.5308,-3.5331,-3.5354,-3.546,-3.5494,-3.5528,-3.5585,-3.561,-3.55,-3.5108,-3.3946,-3.2875,-3.2454,-3.1244,-3.0365,-3.0474,-3.055,-3.0598,-3.0598,-3.0535,-3.0516,-3.0575,-3.0648,-3.0733,-3.0796,-3.0734,-3.0728,-3.0799,-3.0733,-3.0711,-3.0791,-3.0792,-3.08,-3.0797,-3.0807,-3.0791,-3.0804,-3.074,-3.0728,-3.0764,-3.0695,-3.0637,-2.4964,0.0,0.0,-2.6204,-2.6762,-2.7141,-2.7089,-2.7545,-2.7953,-2.7755,-2.7715,-2.7947,-2.8732,-2.8685,-2.885,-2.982,-2.9968,-2.9973,-2.9995,-3.0189,-3.0333,-3.0253,-3.0401,-3.0506,-3.0506,-3.0589,-3.0651,-3.0692,-3.0985,-3.1164,-3.1164,-3.134,-3.1378,-3.1203,-3.1298,-3.1257,-3.1078,-3.1257,-3.1372,-3.1355,-3.1695,-3.186,-3.1878,-3.2248,-3.2568,-3.2811,-3.3241,-3.3393,-3.3393,-3.3452,-3.3481,-3.3481,-3.352,-3.3534,-3.3549,-3.3633,-3.3657,-3.3712,-3.382,-3.3834,-3.3815,-3.3972,-3.4099,-3.4237,-3.4397,-3.4607,-3.4821,-3.4821,-3.487,-3.4926,-3.5081,-3.5115,-3.5149,-3.5308,-3.5388,-3.5439,-3.5469,-3.5547,-3.5591,-3.554,-3.4333,-3.3249,-3.2936,-3.1636,-3.0573,-3.0419,-3.0469,-3.0549,-3.0593,-3.052,-3.0462,-3.0518,-3.063,-3.0727,-3.0767,-3.0703,-3.0675,-3.0739,-3.0697,-3.0673,-3.0745,-3.0785,-3.0808,-3.0801,-3.08,-3.0793,-3.0806,-3.0801,-3.081,-3.0791,-3.076,-3.0733,0.0,0.0,-2.5103,-2.5467,-2.6029,-2.6563,-2.6709,-2.7225,-2.762,-2.7295,-2.778,-2.8304,-2.8328,-2.8732,-2.925,-2.9814,-2.9902,-2.9924,-2.9995,-3.0124,-3.0253,-3.0396,-3.0464,-3.0506,0.0,-3.0489,-3.0568,-3.0692,-3.0593,-3.0531,-3.0531,-3.0531,-3.0609,-3.0712,-3.1145,-3.1471,-3.1582,-3.2039,-3.2266,-3.2266,-3.2283,-3.2283,-3.23,-3.2634,-3.2795,-3.2811,-3.3241,-3.3393,-3.3393,-3.3393,-3.3393,-3.3393,-3.3411,-3.3411,-3.3408,-3.3481,-3.3591,-3.3698,-3.3698,-3.3753,-3.3807,-3.382,-3.3895,-3.4011,-3.4023,-3.4293,-3.4612,-3.4612,-3.4751,-3.4889,-3.4917,-3.4917,-3.4917,-3.4927,-3.5072,-3.5207,-3.5208,-3.5416,-3.5604,-3.5595,-3.4826,-3.3946,-3.3202,-3.2191,-3.1213,-3.0516,-3.0342,-3.0392,-3.0579,-3.0595,-3.0582,-3.0606,-3.0658,-3.07,-3.0703,-3.0764,-3.0739,-3.0603,-3.0712,-3.0737,-3.0603,-3.0739,-3.0803,-3.0797,-3.0801,-3.0795,-3.08,-3.0806,-3.0798,-3.0798,-3.0806,-3.0791,0.0,0.0,-2.5397,-2.5688,-2.6123,-2.6484,-2.6445,-2.6841,-2.7178,-2.6974,-2.7141,-2.7393,-2.7715,-2.8207,-2.8732,-2.9273,-2.971,-2.9973,-2.9995,-3.0189,-3.0354,-3.0396,-3.0464,0.0,0.0,0.0,0.0,-3.0551,-3.0526,-3.0506,-3.0506,-3.0506,-3.0568,-3.0692,-3.0841,-3.1001,-3.1137,-3.1295,-3.1372,-3.1355,-3.1638,-3.2038,-3.2487,-3.2621,-3.2685,-3.2766,-3.315,-3.3367,-3.3393,-3.3393,-3.3393,-3.3393,-3.3393,-3.3393,-3.3393,-3.3422,-3.3495,-3.3577,-3.3671,-3.3739,-3.382,-3.3842,-3.3895,-3.3985,-3.4245,-3.4305,-3.4305,-3.4528,-3.4509,-3.4487,-3.4639,-3.4699,-3.474,-3.4879,-3.4955,-3.5035,-3.5176,-3.5262,-3.5362,-3.5451,-3.4745,-3.3872,-3.3038,-3.2048,-3.1107,-3.0322,-3.0266,-3.0318,-3.0385,-3.0439,-3.0477,-3.053,-3.0634,-3.0698,-3.07,-3.0675,-3.0694,-3.0734,-3.0697,-3.0697,-3.0734,-3.0786,-3.0798,-3.0803,-3.0797,-3.0801,-3.0795,-3.0803,-3.0794,-3.0794,-3.0801,-3.0805,0.0,-2.5244,-2.5578,-2.5839,-2.6096,-2.6285,-2.6299,-2.6539,-2.6765,-2.6779,-2.6896,-2.7137,-2.769,-2.8183,-2.8638,-2.9028,-2.9432,-2.9716,-2.9782,-2.9919,-3.0151,-3.0401,-3.0485,-3.0605,0.0,0.0,0.0,-3.0506,-3.0506,-3.0506,-3.0506,-3.0506,-3.0568,-3.0692,-3.0692,-3.0834,-3.1114,-3.1114,-3.1235,-3.1506,-3.1674,-3.2056,-3.2606,-3.2621,-3.2654,-3.2703,-3.3122,-3.3322,-3.3367,-3.3396,-3.3393,-3.3393,-3.3393,-3.3393,-3.3393,-3.3393,-3.3437,-3.3524,-3.3633,-3.3712,-3.378,-3.3842,-3.3868,-3.3947,-3.4209,-3.4185,-3.4111,-3.4316,-3.4281,-3.4209,-3.4393,-3.445,-3.4476,-3.4628,-3.4722,-3.4821,-3.4963,-3.5041,-3.5125,-3.5193,-3.4851,-3.4169,-3.301,-3.1769,-3.0775,-3.0261,-3.0194,-3.0246,-3.0286,-3.0349,-3.0383,-3.0417,-3.0506,-3.0575,-3.0613,-3.0598,-3.0613,-3.0712,-3.0668,-3.0665,-3.0734,-3.0772,-3.08,-3.0792,-3.0805,-3.0796,-3.0801,-3.0796,-3.081,-3.081,-3.0797,-3.0799,-2.4793,-2.5285,-2.5578,-2.5853,-2.5893,-2.5975,-2.6233,-2.6313,-2.6394,-2.6727,-2.7034,-2.7475,0.0,0.0,-2.8904,-2.9074,-2.9159,-2.9234,-2.9406,-2.9451,-2.9711,0.0,0.0,0.0,0.0,0.0,0.0,-3.0555,0.0,-3.0506,-3.0506,-3.0506,-3.0568,-3.0692,-3.0692,-3.0918,-3.1428,-3.1466,-3.1858,-3.2589,-3.2318,-3.2352,-3.2622,-3.2669,-3.2687,-3.2655,-3.3091,-3.3277,-3.331,-3.3367,-3.3378,-3.3411,-3.3393,-3.3393,-3.3393,-3.3393,-3.3437,-3.3491,-3.3577,-3.3629,-3.3712,-3.378,-3.3847,-3.3895,-3.3908,-3.3959,-3.3998,-3.4011,-3.4061,-3.4099,-3.4099,-3.4148,-3.4197,-3.4197,-3.4386,-3.4572,-3.4602,-3.4753,-3.4888,-3.4897,-3.5081,-3.4714,-3.3067,-3.1449,-3.0343,-3.0305,-3.0199,-3.0152,-3.0273,-3.0305,-3.0305,-3.0286,-3.0297,-3.0342,-3.0485,-3.0503,-3.0532,-3.0593,-3.0668,-3.0671,-3.06,-3.0734,-3.08,-3.0791,-3.0792,-3.0803,-3.0796,-3.0801,-3.08,-3.0799,-3.08,-3.0796,-2.5159,-2.5592,-2.5825,-2.5866,-2.5893,-2.5948,-2.6111,-2.6233,-2.6353,-2.6525,-2.6642,-2.6901,0.0,0.0,0.0,-2.9152,-2.9627,0.0,-3.0,-3.0087,0.0,-3.0274,0.0,-3.0719,-3.1462,-3.1389,0.0,0.0,-3.0803,-3.0506,-3.0506,-3.0506,-3.0526,-3.0547,-3.0568,-3.063,-3.0757,-3.1061,-3.1601,-3.2369,-3.2301,-3.2472,-3.2818,-3.2834,-3.2884,-3.29,-3.3011,-3.3088,-3.3165,-3.3277,-3.3322,-3.3322,-3.3382,-3.3393,-3.3393,-3.3393,-3.3408,-3.3437,-3.3491,-3.3577,-3.3647,-3.3698,-3.3739,-3.3802,-3.4043,-3.4024,-3.3972,-3.4165,-3.4123,-3.4036,-3.4086,-3.4111,-3.4136,-3.4185,-3.4257,-3.4351,-3.455,-3.4647,-3.4713,-3.487,-3.4554,-3.3875,-3.2695,-3.1763,-3.0968,-3.0254,-3.0213,-3.0233,-3.0159,-3.024,-3.026,-3.0159,-3.0235,-3.034,-3.0492,-3.0546,-3.0595,-3.0668,-3.0737,-3.0769,-3.0742,-3.0774,-3.0806,-3.0795,-3.0803,-3.0795,-3.08,-3.0795,-3.0801,-3.08,-3.0793,-3.0808,-2.5103,-2.5578,-2.5893,-2.5893,-2.5893,-2.5948,-2.6056,-2.6165,-2.6245,-2.6365,-2.659,0.0,-2.7323,0.0,0.0,0.0,0.0,0.0,-2.9798,-2.9886,-3.0017,0.0,-3.0338,0.0,-3.1913,-3.1775,-3.1863,0.0,-3.1581,-3.0837,-3.0522,-3.0506,-3.0506,-3.0506,-3.0506,-3.0593,-3.076,-3.1338,-3.1841,-3.2301,-3.237,-3.2472,-3.2639,-3.2706,-3.2705,-3.2705,0.0,-3.3042,-3.3101,-3.3229,-3.3325,-3.3352,-3.3396,-3.3393,-3.3393,-3.3393,-3.3393,-3.3411,-3.3437,-3.3481,-3.3534,-3.3657,-3.3698,-3.3753,-3.3961,-3.3954,-3.3895,-3.4049,-3.4012,-3.3972,-3.4036,-3.4074,-3.4148,-3.4328,-3.4393,-3.4431,-3.4689,-3.4658,-3.4636,-3.4753,-3.4252,-3.3527,-3.2634,-3.1947,-3.1199,-3.0369,-3.0221,-3.0214,-3.0228,-3.0221,-3.0159,-3.0034,-3.0092,-3.019,-3.0358,-3.0428,-3.0527,-3.0642,-3.0725,-3.0769,-3.0799,-3.0801,-3.0801,-3.0801,-3.0802,-3.0794,-3.0794,-3.0799,-3.0795,-3.0801,-3.0793,-3.0791,-2.492,-2.5481,-2.5893,-2.5893,-2.5893,-2.5921,-2.6056,-2.6084,-2.6138,-2.634,0.0,-2.7071,-2.7297,-2.8143,-2.8701,-2.8432,0.0,-2.925,-2.938,-2.9418,-2.9649,-3.0274,-3.0396,-3.1,-3.2525,-3.2111,-3.2332,-3.369,-3.2531,-3.1416,-3.0688,-3.0601,-3.0613,-3.0675,-3.0675,-3.0841,-3.1181,-3.1931,-3.2301,-3.2301,-3.2455,-3.2489,-3.2386,-3.2506,-3.2489,-3.2403,-3.2802,-3.3026,-3.307,-3.3198,-3.3307,-3.3364,-3.3364,-3.3378,-3.3393,-3.3393,-3.3393,-3.3393,-3.3393,-3.3393,-3.3422,-3.3601,-3.3671,-3.3684,-3.3766,-3.3793,-3.3793,-3.3807,-3.3842,-3.3895,-3.3972,-3.4036,-3.4161,-3.4506,-3.4591,-3.4636,-3.4841,-3.4771,-3.4626,-3.4612,-3.4187,-3.3557,-3.2661,-3.2016,-3.1321,-3.0488,-3.0228,-3.0195,-3.0377,-3.0228,-3.0079,-2.9937,-2.9921,-3.0,-3.0162,-3.0253,-3.0378,-3.0564,-3.0649,-3.0712,-3.0799,-3.0801,-3.0801,-3.0801,-3.0801,-3.0801,-3.0801,-3.0794,-3.0799,-3.0795,-3.0795,-3.0795,-2.5201,-2.5633,-2.5893,-2.5893,-2.5893,-2.5921,-2.5921,-2.6029,0.0,0.0,-2.6525,-2.6683,-2.7479,-2.7947,-2.8369,-2.8818,0.0,0.0,0.0,0.0,-3.0038,0.0,0.0,0.0,0.0,0.0,0.0,0.0,-3.2994,-3.2199,-3.1449,-3.1156,-3.1162,-3.1471,-3.149,-3.1528,-3.1603,-3.2056,-3.2301,-3.2301,-3.2655,-3.282,-3.2804,-3.282,-3.282,-3.2786,-3.2884,0.0,-3.2948,-3.3028,-3.3088,-3.3165,-3.3259,-3.3352,-3.3393,-3.3393,-3.3393,-3.3393,-3.3393,-3.3393,-3.3408,-3.3509,-3.3534,-3.3549,-3.3671,-3.3712,-3.3726,-3.3793,-3.382,-3.3829,-3.3895,-3.3921,-3.4036,-3.4409,-3.4517,-3.4594,-3.4831,-3.486,-3.4801,-3.4626,-3.4549,-3.4015,-3.2376,-3.2193,-3.1746,-3.0293,-3.0228,-3.0328,-3.0324,-3.0286,-3.02,-3.0087,-3.0072,-3.0087,-3.0104,-3.0189,-3.0312,-3.0503,-3.0571,-3.0668,-3.0799,-3.0801,-3.0801,-3.0801,-3.0801,-3.0801,-3.0801,-3.0808,-3.079,-3.0798,-3.0798,-3.0807,-2.5103,-2.5453,-2.573,-2.5866,-2.5893,-2.5893,-2.5893,0.0,0.0,0.0,-2.7045,-2.7469,-2.7534,0.0,0.0,0.0,0.0,0.0,0.0,0.0,0.0,0.0,0.0,0.0,0.0,0.0,0.0,-3.3723,-3.3707,-3.3028,-3.1686,-3.1095,-3.0965,-3.1393,-3.1376,-3.149,-3.1695,-3.2091,-3.2179,-3.2003,-3.2605,-3.2786,-3.2588,-3.2802,-3.29,-3.29,-3.29,-3.2916,-3.2948,-3.2997,-3.3042,-3.3101,-3.3165,-3.3229,-3.3241,-3.3319,-3.3352,-3.3352,-3.3396,-3.3393,-3.3411,-3.3437,-3.3466,-3.352,-3.3619,-3.3661,-3.3657,-3.3726,-3.3753,-3.378,-3.3868,-3.3895,-3.3998,-3.4397,-3.468,-3.487,-3.4889,-3.4992,-3.5001,-3.4801,-3.487,-3.4385,-3.2572,-3.2405,-3.1952,-3.0297,-3.0075,-3.0147,-3.0286,-3.0305,-3.0273,-3.0219,-3.0194,-3.0192,-3.0109,-3.0254,-3.0375,-3.0438,-3.0583,-3.07,-3.0799,-3.0801,-3.0801,-3.0801,-3.0801,-3.0801,-3.0801,-3.0801,-3.0802,-3.0792,-3.0792,-3.0804,-2.4907,-2.5244,-2.5578,-2.5839,-2.5893,-2.5921,-2.6029,-2.627,0.0,0.0,-2.758,-2.8091,-2.759,0.0,0.0,0.0,0.0,0.0,0.0,0.0,0.0,0.0,0.0,0.0,0.0,0.0,0.0,-3.3723,-3.4225,-3.3806,-3.2202,-3.1479,-3.129,-3.1695,-3.1623,-3.1711,-3.1936,-3.2267,-3.2231,-3.1841,-3.2471,-3.2655,-3.2437,-3.2672,-3.2818,-3.29,-3.29,-3.2932,-3.2979,-3.2979,-3.3026,-3.307,-3.307,-3.3086,-3.3101,-3.3214,-3.3262,-3.3277,-3.3352,-3.3382,-3.3382,-3.3411,-3.3437,-3.3495,-3.3549,-3.3577,-3.3605,-3.3671,-3.3698,-3.3726,-3.386,-3.3868,-3.3985,-3.4356,-3.4793,-3.5089,-3.4992,-3.5089,-3.5149,-3.4982,-3.5096,-3.4617,-3.2792,-3.2521,-3.2016,-3.0323,-2.9977,-3.0007,-3.0286,-3.0329,-3.0349,-3.0355,-3.0336,-3.026,-3.0152,-3.034,-3.0462,-3.0409,-3.0583,-3.0728,-3.0799,-3.0801,-3.0801,-3.0801,-3.0801,-3.0801,-3.0801,-3.0801,-3.0798,-3.0804,-3.0791,-3.0801,-2.4907,-2.5244,-2.5578,-2.5839,-2.5893,-2.6002,-2.6351,0.0,0.0,-2.7524,-2.759,-2.7539,-2.7715,-2.8116,-2.8352,0.0,0.0,-2.9515,0.0,0.0,0.0,0.0,0.0,0.0,0.0,0.0,0.0,-3.3723,-3.4225,-3.4304,-3.3817,-3.3315,-3.3222,-3.3628,-3.3339,-3.303,-3.2695,-3.2789,-3.2655,-3.2249,-3.2318,-3.2539,-3.2818,-3.2505,-3.2538,-3.29,-3.29,-3.29,0.0,-3.2916,-3.2948,-3.3011,-3.3011,-3.3057,-3.3101,-3.3101,-3.3117,-3.315,-3.3259,-3.3307,-3.3307,-3.3382,-3.3393,-3.3422,-3.3495,-3.3506,-3.3534,-3.3657,-3.3698,-3.3712,-3.3793,-3.382,-3.3908,-3.4249,-3.4582,-3.4908,-3.5124,-3.5193,-3.5182,-3.5185,-3.5201,-3.4606,-3.2735,-3.2457,-3.1944,-3.0266,-3.0155,-3.0286,-3.0373,-3.0428,-3.0505,-3.0574,-3.0449,-3.0365,-3.0286,-3.0359,-3.0427,-3.0485,-3.0564,-3.0668,-3.0799,-3.0801,-3.0801,-3.0801,-3.0801,-3.0801,-3.0801,-3.0801,-3.0801,-3.0806,-3.0801,-3.0794,-2.4863,-2.5103,-2.53,-2.5784,-2.6069,-2.6297,-2.6457,0.0,-2.7382,-2.774,-2.7999,-2.8171,-2.8177,-2.8389,-2.8527,0.0,0.0,0.0,0.0,0.0,0.0,0.0,0.0,0.0,0.0,0.0,-3.2602,-3.4392,-3.4922,-3.5322,-3.5732,-3.451,-3.3831,-3.3968,-3.3833,-3.3565,-3.317,-3.3196,-3.2895,-3.2301,-3.2556,-3.2622,-3.2538,-3.2605,-3.2753,-3.29,-3.29,-3.29,0.0,-3.29,-3.2916,-3.2932,-3.2932,-3.2963,-3.2977,-3.3026,-3.3073,-3.3117,-3.3262,-3.3322,-3.3367,-3.3396,-3.3393,-3.3393,-3.3437,-3.3437,-3.3466,-3.3549,-3.3619,-3.3675,-3.3726,-3.3807,-3.3895,-3.4024,-3.4356,-3.4649,-3.4695,-3.4879,-3.5028,-3.5028,-3.5115,-3.4631,-3.2842,-3.2572,-3.205,-3.0314,-3.0128,-3.0208,-3.0279,-3.0375,-3.0471,-3.0593,-3.055,-3.0479,-3.0365,-3.0463,-3.0516,-3.0498,-3.0603,-3.0704,-3.0799,-3.0801,-3.0801,-3.0801,-3.0801,-3.0801,-3.0801,-3.0801,-3.0801,-3.0801,-3.0798,-3.0796,-2.4863,-2.5061,-2.5272,-2.5784,-2.6204,-2.6537,0.0,0.0,-2.784,-2.794,-2.8332,-2.8573,-2.8436,-2.8517,-2.8605,0.0,0.0,-2.8826,0.0,0.0,0.0,0.0,0.0,0.0,0.0,0.0,-3.2309,-3.4761,-3.5185,-3.5775,-3.6843,-3.5708,-3.4918,-3.4663,-3.4436,-3.409,-3.3574,-3.3456,-3.3037,-3.2301,-3.2589,-3.2639,-3.2471,-3.2655,-3.2804,-3.29,-3.29,-3.29,0.0,-3.29,-3.29,-3.29,-3.29,-3.29,-3.29,-3.2948,-3.3011,-3.3055,-3.3198,-3.3274,-3.3319,-3.3378,-3.3393,-3.3393,-3.3393,-3.3393,-3.3408,-3.3481,-3.3549,-3.3619,-3.3684,-3.378,-3.3842,-3.3881,-3.4124,-3.4321,-3.4357,-3.4591,-3.4792,-3.4851,-3.4782,-3.4266,-3.2856,-3.2439,-3.1831,-3.0393,-3.0195,-3.0215,-3.0279,-3.0375,-3.0465,-3.0593,-3.0598,-3.0554,-3.0479,-3.054,-3.0586,-3.0527,-3.0642,-3.0717,-3.0767,-3.0769,-3.0774,-3.0801,-3.0801,-3.0801,-3.0801,-3.0801,-3.0801,-3.0801,-3.0801,-3.0795,-2.4907,-2.5257,-2.5578,-2.5839,-2.6204,-2.6616,0.0,0.0,-2.7915,-2.8299,-2.8411,-2.8411,-2.8411,-2.8411,-2.8396,-2.8396,-2.8573,0.0,0.0,0.0,0.0,0.0,0.0,0.0,0.0,0.0,-3.2265,-3.4631,-3.4751,0.0,-3.6825,-3.7129,-3.6937,-3.6197,-3.5466,-3.4743,-3.4007,-3.359,-3.3037,-3.2301,-3.2301,-3.2505,-3.2884,-3.2506,-3.2521,-3.29,-3.29,-3.29,0.0,-3.29,-3.29,-3.29,-3.29,-3.29,-3.29,-3.29,-3.29,-3.2916,-3.3055,-3.3101,-3.315,-3.3334,-3.3393,-3.3393,-3.3393,-3.3393,-3.3408,-3.3481,-3.3549,-3.3619,-3.3684,-3.3698,-3.3739,-3.3868,-3.3895,-3.3979,-3.4242,-3.4405,-3.4553,-3.4753,-3.4169,-3.3406,-3.2726,-3.1943,-3.1178,-3.0501,-3.0389,-3.0422,-3.0499,-3.05,-3.0525,-3.0593,-3.0598,-3.0598,-3.0598,-3.06,-3.0606,-3.0606,-3.0668,-3.0707,-3.07,-3.0703,-3.0734,-3.0799,-3.0801,-3.0801,-3.0801,-3.0801,-3.0801,-3.0801,-3.0801,-3.0801,-2.5522,-2.5564,-2.5578,-2.5839,-2.6404,-2.6941,-2.7071,0.0,-2.825,-2.8372,-2.8411,-2.8411,-2.8411,-2.8411,-2.8411,-2.8411,-2.8444,0.0,0.0,0.0,0.0,0.0,0.0,0.0,0.0,0.0,-3.2294,-3.3359,-3.3917,-3.4797,-3.6092,-3.6221,-3.641,-3.6666,-3.6437,-3.5586,-3.4024,-3.4148,-3.3581,-3.2301,-3.2589,-3.2787,-3.29,-3.277,-3.277,-3.29,-3.29,-3.29,-3.29,-3.29,-3.29,-3.29,-3.29,-3.29,-3.29,-3.29,-3.2932,-3.2963,-3.3011,-3.3073,-3.3135,-3.3274,-3.3322,-3.3337,-3.3396,-3.3393,-3.3408,-3.3481,-3.3524,-3.3549,-3.3601,-3.3657,-3.3712,-3.3753,-3.3829,-3.3921,-3.4018,-3.4093,-3.4197,-3.4298,-3.3893,-3.3298,-3.2526,-3.1969,-3.1322,-3.0513,-3.0394,-3.0428,-3.0499,-3.05,-3.0525,-3.0593,-3.0598,-3.0598,-3.0598,-3.0592,-3.0595,-3.0602,-3.0618,-3.0649,-3.0707,-3.0691,-3.0706,-3.0734,-3.0772,-3.0801,-3.0801,-3.0801,-3.0801,-3.0801,-3.0801,-3.0795,0.0,-2.6084,-2.6084,-2.6312,-2.6852,0.0,0.0,0.0,-2.8411,-2.8411,-2.8411,-2.8411,-2.8411,-2.8411,-2.8411,-2.8411,-2.8411,0.0,0.0,0.0,0.0,0.0,0.0,0.0,0.0,-3.1365,-3.1975,-3.2869,-3.322,-3.3982,-3.5302,-3.5317,-3.5649,-3.6461,-3.6681,-3.5985,-3.4278,-3.4486,-3.3827,-3.2301,-3.2705,-3.29,-3.29,-3.29,-3.29,-3.29,-3.29,-3.2868,0.0,-3.2868,-3.2868,-3.2786,-3.2868,-3.29,-3.29,-3.29,-3.2932,-3.2963,-3.2979,-3.3026,-3.3088,-3.3198,-3.3262,-3.331,-3.3352,-3.3382,-3.3408,-3.3452,-3.3466,-3.3481,-3.3534,-3.3591,-3.3633,-3.3675,-3.3753,-3.3815,-3.3815,-3.3895,-3.3972,-3.4023,-3.34,-3.2768,-3.2344,-3.1607,-3.0932,-3.0469,-3.0394,-3.0422,-3.0463,-3.0476,-3.052,-3.0559,-3.0574,-3.0598,-3.0598,-3.0598,-3.0592,-3.06,-3.06,-3.0621,-3.0668,-3.0651,-3.0669,-3.0704,-3.0734,-3.0767,-3.0767,-3.0796,-3.0801,-3.0801,-3.0801,-3.0802,0.0,-2.6733,-2.6927,-2.7045,-2.7433,-2.779,-2.779,0.0,0.0,-2.8411,-2.8411,-2.8411,-2.8411,-2.8411,-2.8411,-2.8411,-2.8411,0.0,0.0,0.0,0.0,0.0,0.0,0.0,-3.1295,-3.1044,-3.1492,-3.2973,-3.2629,-3.2995,-3.4475,-3.4396,-3.4727,-3.5671,-3.6175,-3.5859,-3.467,-3.4616,-3.3808,-3.2266,-3.2672,-3.2868,-3.2868,-3.2868,-3.2868,0.0,-3.2868,-3.2753,-3.2588,-3.277,-3.2753,-3.2622,-3.282,-3.2884,-3.29,-3.29,-3.29,-3.2916,-3.2963,-3.2979,-3.2995,-3.3055,-3.3183,-3.3277,-3.3277,-3.3337,-3.3393,-3.3422,-3.3408,-3.3408,-3.3509,-3.3506,-3.3524,-3.3577,-3.3629,-3.3684,-3.3698,-3.3807,-3.3863,-3.3821,-3.2782,-3.1944,-3.2081,-3.0978,-3.0166,-3.0349,-3.0389,-3.0392,-3.0398,-3.046,-3.0491,-3.0491,-3.0559,-3.0593,-3.0593,-3.0598,-3.0598,-3.0598,-3.0598,-3.0597,-3.0597,-3.0602,-3.0626,-3.0687,-3.0701,-3.07,-3.07,-3.0767,-3.0799,-3.0799,-3.0799,-3.0804,-2.7499,0.0,-2.68,-2.6901,-2.7291,-2.7675,0.0,0.0,0.0,0.0,0.0,0.0,0.0,-2.8411,-2.8411,-2.8411,-2.8411,-2.8629,0.0,0.0,0.0,0.0,0.0,0.0,-3.1653,-3.1615,-3.1721,-3.2097,-3.2004,-3.235,-3.328,-3.3275,-3.3698,-3.469,-3.4861,-3.4697,-3.4237,-3.454,-3.3752,-3.1929,-3.2266,-3.2437,-3.2437,-3.2606,-3.2589,-3.2437,-3.2588,-3.2573,-3.2369,-3.242,-3.2505,-3.2588,-3.2655,-3.2753,-3.29,-3.29,-3.29,-3.29,-3.2916,-3.2916,-3.2932,-3.2995,-3.3088,-3.315,-3.315,-3.3274,-3.3437,-3.3661,-3.3549,-3.3452,-3.3671,-3.3619,-3.3491,-3.352,-3.3577,-3.3647,-3.3684,-3.3726,-3.3597,-3.3077,-3.2339,-3.1672,-3.1202,-3.0505,-3.0054,-3.0169,-3.0292,-3.0408,-3.0392,-3.0409,-3.0444,-3.049,-3.051,-3.0525,-3.0525,-3.0564,-3.0598,-3.0598,-3.0598,-3.0602,-3.0592,-3.0608,-3.061,-3.0622,-3.0664,-3.0704,-3.0704,-3.0716,-3.0712,-3.0712,-3.0772,-3.0796,-2.7665,-2.7473,-2.7229,-2.7382,-2.7635,-2.79,-2.7965,0.0,0.0,0.0,0.0,0.0,0.0,0.0,0.0,0.0,-2.8748,0.0,0.0,0.0,0.0,0.0,0.0,-3.1615,0.0,-3.18,-3.18,-3.18,-3.18,-3.1972,-3.2369,-3.2403,-3.2805,-3.368,-3.3715,-3.3736,-3.3813,-3.4035,-3.3439,-3.202,-3.2214,-3.2301,-3.2301,-3.2403,-3.2403,-3.2301,-3.242,-3.237,-3.2214,-3.2266,-3.2318,-3.2387,-3.2539,-3.2672,-3.277,-3.2868,-3.29,-3.29,-3.29,-3.29,-3.29,-3.2932,-3.2995,-3.3057,-3.3057,-3.315,-3.3319,-3.3506,-3.3577,-3.3619,-3.3766,-3.382,-3.3815,-3.3815,-3.3868,-3.3934,-3.3961,-3.403,-3.3858,-3.3108,-3.2491,-3.1843,-3.1101,-3.05,-3.0115,-3.0177,-3.0286,-3.0379,-3.0408,-3.0406,-3.0403,-3.0439,-3.0485,-3.05,-3.05,-3.0525,-3.0564,-3.0598,-3.0598,-3.0598,-3.0598,-3.0601,-3.0604,-3.0606,-3.063,-3.0672,-3.0694,-3.0691,-3.0707,-3.0703,-3.0745,-3.0774,-2.7575,-2.7675,-2.779,-2.793,-2.8079,-2.8162,-2.8186,0.0,0.0,0.0,0.0,0.0,0.0,0.0,0.0,0.0,0.0,0.0,0.0,0.0,0.0,0.0,0.0,0.0,-3.18,-3.18,-3.18,-3.18,-3.18,-3.18,-3.18,-3.18,-3.2093,-3.2714,-3.2731,-3.29,-3.3247,-3.3352,-3.3002,-3.2214,-3.2214,-3.2214,-3.2214,-3.2249,-3.2249,-3.2214,0.0,0.0,-3.2055,-3.2179,-3.2179,-3.2126,-3.2421,-3.2539,-3.2589,-3.277,-3.285,-3.2868,-3.29,-3.29,-3.29,-3.29,-3.2932,-3.2979,-3.2979,-3.3026,-3.3119,-3.3277,-3.3534,-3.3807,-3.3868,-3.4049,-3.4197,-3.4197,-3.4245,-3.4305,-3.4295,-3.4278,-3.4034,-3.3256,-3.2571,-3.189,-3.1118,-3.0529,-3.0188,-3.0267,-3.0292,-3.0316,-3.0379,-3.0408,-3.0406,-3.0406,-3.0458,-3.0474,-3.0474,-3.0495,-3.052,-3.0583,-3.0593,-3.0598,-3.0598,-3.0598,-3.0597,-3.0593,-3.0593,-3.0622,-3.0674,-3.0687,-3.0685,-3.07,-3.0707,-3.0731,-2.76,-2.7625,-2.765,-2.779,-2.793,-2.8054,-2.8162,0.0,0.0,0.0,0.0,0.0,0.0,0.0,0.0,0.0,0.0,0.0,0.0,0.0,0.0,0.0,0.0,-3.1671,-3.18,-3.18,-3.18,-3.18,-3.18,-3.18,-3.18,-3.18,-3.1852,-3.1972,-3.1972,-3.2009,-3.2047,-3.2687,-3.2618,-3.1874,-3.1874,-3.1874,-3.1874,-3.2055,-3.2037,-3.1893,0.0,-3.2019,-3.1855,-3.1856,-3.1965,-3.2108,-3.2161,-3.2249,-3.2369,-3.2573,-3.2655,-3.2672,-3.2852,-3.29,-3.29,-3.29,-3.29,-3.2916,-3.2916,-3.2963,-3.3057,-3.3304,-3.3534,-3.382,-3.4209,-3.4257,-3.4197,-3.4197,-3.4209,-3.4233,-3.4293,-3.3746,-3.3034,-3.232,-3.1538,-3.0743,-3.0046,-2.9945,-2.9992,-3.0111,-3.0228,-3.0316,-3.0379,-3.041,-3.039,-3.039,-3.0406,-3.0422,-3.0422,-3.0469,-3.049,-3.0514,-3.0574,-3.0598,-3.0598,-3.0598,-3.0602,-3.0607,-3.0607,-3.0613,-3.0616,-3.0614,-3.0637,-3.07,-3.0707,-3.0707,-2.7635,-2.76,-2.7625,-2.7675,-2.7984,-2.8244,-2.8128,0.0,0.0,0.0,0.0,0.0,0.0,0.0,0.0,0.0,0.0,0.0,0.0,0.0,0.0,0.0,0.0,-3.1578,-3.169,-3.169,-3.1727,-3.18,-3.18,-3.18,-3.18,-3.18,-3.18,-3.18,-3.18,-3.18,-3.18,-3.2145,-3.2145,-3.18,-3.18,-3.18,-3.18,-3.191,-3.1892,-3.1818,0.0,-3.1892,-3.18,-3.18,-3.1838,-3.1947,-3.2055,-3.2144,-3.2214,-3.2387,-3.2522,-3.2605,-3.2705,-3.2802,-3.29,-3.29,-3.29,-3.29,-3.29,-3.2916,-3.3026,-3.3404,-3.368,-3.3948,-3.4316,-3.4498,-3.4577,-3.4577,-3.4577,-3.4588,-3.467,-3.4011,-3.3202,-3.2477,-3.1654,-3.0837,-3.0046,-3.0007,-3.0082,-3.0133,-3.0202,-3.0267,-3.0336,-3.0342,-3.0367,-3.0404,-3.0396,-3.0408,-3.0408,-3.0436,-3.0449,-3.05,-3.052,-3.0564,-3.0598,-3.0598,-3.0598,-3.0598,-3.0598,-3.0608,-3.0593,-3.0606,-3.063,-3.07,-3.0665,-3.0665,-2.7795,-2.7835,-2.7944,-2.7944,0.0,-2.8277,-2.8014,0.0,0.0,0.0,0.0,0.0,0.0,0.0,0.0,0.0,0.0,0.0,0.0,-3.1252,-3.1276,-3.1295,-3.1387,-3.15,-3.1578,-3.1578,-3.1615,-3.1726,-3.1744,-3.1746,-3.1746,-3.1781,-3.18,-3.18,-3.18,-3.18,-3.18,-3.18,-3.18,-3.18,-3.18,-3.18,-3.18,-3.18,-3.18,-3.18,-3.18,-3.18,-3.18,-3.18,-3.18,-3.1818,-3.1965,-3.2055,-3.2108,-3.2214,-3.2369,-3.2521,-3.2521,-3.2655,-3.2852,-3.2898,-3.293,-3.2977,-3.3039,-3.3055,-3.3147,-3.3559,-3.385,-3.408,-3.4321,-3.4628,-3.487,-3.487,-3.4889,-3.486,-3.4727,-3.4053,-3.3235,-3.245,-3.1626,-3.0876,-3.0208,-3.015,-3.0185,-3.0194,-3.0207,-3.0215,-3.0286,-3.0292,-3.0323,-3.0373,-3.0373,-3.0379,-3.0404,-3.0408,-3.0422,-3.0476,-3.0486,-3.052,-3.0559,-3.0583,-3.0588,-3.0588,-3.0593,-3.0617,-3.062,-3.0618,-3.0645,-3.0711,-3.066,-3.0634,-2.8198,-2.8511,-2.8982,-2.8982,-2.8407,0.0,-2.7815,-2.8286,0.0,0.0,0.0,0.0,0.0,0.0,0.0,0.0,0.0,0.0,0.0,0.0,-3.1232,-3.1295,-3.1315,-3.137,-3.1481,-3.1517,-3.1517,-3.1517,-3.1578,-3.1617,-3.1617,-3.1727,-3.18,-3.18,-3.18,-3.18,-3.18,-3.18,-3.18,-3.18,-3.18,-3.18,-3.18,-3.18,-3.18,-3.18,-3.18,-3.18,-3.18,-3.18,-3.18,-3.18,-3.1818,-3.1946,-3.209,-3.2108,-3.2197,-3.2318,-3.2318,-3.2454,-3.2654,-3.2912,-3.3068,-3.322,-3.3473,-3.3563,-3.3605,-3.382,-3.3985,-3.4148,-3.434,-3.4594,-3.4809,-3.4809,-3.4859,-3.4699,-3.3951,-3.3107,-3.2291,-3.1545,-3.0679,-3.0106,-3.0095,-3.0106,-3.0123,-3.0185,-3.0194,-3.0227,-3.0286,-3.0292,-3.0311,-3.0304,-3.031,-3.0342,-3.0379,-3.0404,-3.0402,-3.0417,-3.0469,-3.0509,-3.0509,-3.0505,-3.0515,-3.0515,-3.0564,-3.063,-3.0684,-3.0623,-3.0673,-3.0795,-3.072,-3.0653,-2.8606,-2.8724,-2.8974,-2.8974,0.0,0.0,0.0,0.0,0.0,0.0,0.0,0.0,0.0,0.0,0.0,0.0,0.0,0.0,-3.1171,-3.119,-3.121,-3.1232,-3.1232,-3.1271,-3.1368,-3.1387,-3.1406,-3.1498,-3.1519,-3.1538,-3.1538,-3.1576,-3.1632,-3.1671,-3.1632,-3.167,-3.18,-3.1727,-3.1727,-3.18,-3.18,-3.18,-3.18,-3.18,-3.18,-3.18,-3.18,-3.18,-3.18,-3.18,-3.18,-3.18,-3.18,-3.1855,-3.1911,-3.1911,-3.2019,-3.2197,-3.2197,-3.2284,-3.242,-3.2538,-3.28,-3.3083,-3.3208,-3.3401,-3.3629,-3.3842,-3.3934,-3.4036,-3.4328,-3.4528,-3.4706,-3.4778,-3.4829,-3.4623,-3.3856,-3.3013,-3.216,-3.1381,-3.0579,-3.0014,-3.003,-3.0068,-3.0106,-3.0123,-3.0138,-3.0166,-3.0227,-3.0234,-3.0247,-3.0305,-3.0292,-3.031,-3.0342,-3.0373,-3.0425,-3.0472,-3.0455,-3.0463,-3.0504,-3.049,-3.05,-3.0496,-3.0572,-3.0628,-3.0709,-3.0669,-3.0715,-3.08,-3.073,-3.0699,-2.9035,-2.9028,-2.9182,0.0,0.0,0.0,0.0,0.0,0.0,0.0,0.0,0.0,0.0,0.0,0.0,0.0,0.0,-3.119,-3.119,-3.119,-3.119,-3.119,-3.119,-3.123,-3.1254,-3.1274,-3.131,-3.1402,-3.1423,-3.1443,-3.1443,-3.1479,-3.1519,-3.1559,-3.1519,-3.1574,-3.1707,-3.1596,-3.1596,-3.1707,-3.1707,-3.1744,-3.18,-3.18,-3.18,-3.18,-3.18,-3.18,-3.18,-3.18,-3.18,-3.18,-3.18,-3.18,-3.18,-3.18,-3.1892,-3.2018,-3.2018,-3.2108,-3.2249,-3.2318,-3.2669,-3.3083,-3.3172,-3.3469,-3.3793,-3.3947,-3.3998,-3.4049,-3.4281,-3.4439,-3.455,-3.4655,-3.4716,-3.4523,-3.38,-3.2958,-3.2135,-3.1355,-3.0528,-2.9964,-2.9964,-3.0022,-3.0061,-3.0064,-3.0098,-3.0128,-3.0159,-3.0173,-3.0194,-3.0266,-3.0286,-3.0311,-3.0311,-3.0343,-3.039,-3.0436,-3.043,-3.0451,-3.0535,-3.0535,-3.053,-3.0521,-3.0567,-3.0618,-3.0704,-3.0704,-3.0753,-3.083,-3.0777,-3.0741,-2.9512,-2.9489,0.0,0.0,0.0,0.0,0.0,0.0,0.0,0.0,0.0,0.0,0.0,0.0,0.0,-3.1171,-3.119,-3.119,-3.119,-3.119,-3.119,-3.119,-3.119,-3.119,-3.119,-3.119,-3.119,-3.119,-3.1254,-3.1295,-3.1295,-3.1406,-3.1498,-3.1498,-3.1498,-3.1498,-3.1498,-3.1498,-3.1498,-3.1498,-3.1498,-3.1595,-3.18,-3.18,-3.18,-3.18,-3.18,-3.18,-3.18,-3.18,-3.18,-3.18,-3.18,-3.18,-3.18,-3.18,-3.18,-3.18,-3.18,-3.1929,-3.2126,-3.2335,-3.2747,-3.3225,-3.351,-3.3831,-3.4111,-3.4185,-3.4197,-3.4197,-3.4197,-3.4293,-3.4386,-3.4386,-3.4495,-3.4408,-3.3664,-3.2873,-3.2071,-3.1338,-3.0503,-2.9897,-2.9897,-2.9956,-3.0007,-3.0007,-3.0065,-3.0095,-3.0095,-3.0106,-3.013,-3.0181,-3.0266,-3.0312,-3.0312,-3.0312,-3.0292,-3.0292,-3.0442,-3.0534,-3.0609,-3.0595,-3.06,-3.06,-3.0525,-3.058,-3.0706,-3.0708,-3.076,-3.0898,-3.0898,-3.0857,-2.9776,0.0,0.0,0.0,0.0,0.0,0.0,0.0,0.0,0.0,0.0,0.0,0.0,0.0,0.0,-3.119,-3.119,-3.119,-3.119,-3.119,-3.119,-3.119,-3.119,-3.119,-3.119,-3.119,-3.119,-3.119,-3.123,-3.1232,-3.1232,-3.1269,-3.1308,-3.1351,-3.1327,-3.1363,-3.1498,-3.1406,-3.1406,-3.1498,-3.1498,-3.1536,-3.1593,-3.1593,-3.1593,-3.1593,-3.1593,-3.1593,-3.1576,-3.1634,-3.1709,-3.18,-3.18,-3.18,-3.18,-3.18,-3.18,-3.18,-3.18,-3.1837,-3.191,-3.1948,-3.2283,-3.2699,-3.3009,-3.3368,-3.3752,-3.4043,-3.4136,-3.4136,-3.4185,-3.4233,-3.4281,-3.4393,-3.4439,-3.427,-3.3534,-3.2796,-3.2053,-3.1222,-3.0433,-2.9897,-2.9897,-2.9924,-2.9948,-2.998,-3.0022,-3.0038,-3.0095,-3.0106,-3.0109,-3.013,-3.0194,-3.0227,-3.0227,-3.0273,-3.0311,-3.0367,-3.0496,-3.0567,-3.0534,-3.0575,-3.0607,-3.06,-3.0583,-3.0587,-3.0633,-3.0672,-3.0721,-3.0761,-3.0853,-3.0896,-2.9924,0.0,0.0,0.0,0.0,0.0,0.0,0.0,0.0,0.0,0.0,0.0,0.0,0.0,0.0,-3.1112,-3.1131,-3.1151,-3.119,-3.119,-3.119,-3.119,-3.119,-3.119,-3.119,-3.119,-3.119,-3.119,-3.119,-3.119,-3.119,-3.119,-3.123,-3.1254,-3.123,-3.1249,-3.1383,-3.1291,-3.1291,-3.1383,-3.1383,-3.1383,-3.1366,-3.146,-3.1498,-3.1498,-3.1498,-3.1498,-3.1498,-3.1557,-3.1614,-3.167,-3.167,-3.167,-3.167,-3.167,-3.1707,-3.1727,-3.1727,-3.1763,-3.18,-3.18,-3.2038,-3.2402,-3.2634,-3.3057,-3.3532,-3.3792,-3.3954,-3.4074,-3.4111,-3.4136,-3.4185,-3.4293,-3.4316,-3.4221,-3.3829,-3.3173,-3.2416,-3.1591,-3.0845,-3.0236,-2.9923,-2.9872,-2.9905,-2.9956,-2.9956,-2.998,-3.0046,-3.0068,-3.0064,-3.0106,-3.0142,-3.0159,-3.0166,-3.0194,-3.0254,-3.0309,-3.0477,-3.0537,-3.0492,-3.0591,-3.0633,-3.0637,-3.0591,-3.0568,-3.0607,-3.0637,-3.0661,-3.0702,-3.0848,-3.0895,0.0,0.0,0.0,0.0,0.0,0.0,0.0,0.0,0.0,0.0,0.0,0.0,0.0,0.0,-3.0773,-3.0955,-3.0995,-3.1052,-3.1171,-3.1171,-3.119,-3.119,-3.119,-3.119,-3.119,-3.119,-3.119,-3.119,-3.119,-3.119,-3.119,-3.119,-3.119,-3.119,-3.119,-3.119,-3.119,-3.119,-3.119,-3.119,-3.119,-3.119,-3.121,-3.1402,-3.1479,-3.1479,-3.1479,-3.1479,-3.1479,-3.1479,-3.1498,-3.1498,-3.1498,-3.1498,-3.1498,-3.1498,-3.1538,-3.1579,-3.1579,-3.1671,-3.1781,-3.1781,-3.1984,-3.2266,-3.2385,-3.2858,-3.3357,-3.35,-3.3752,-3.3998,-3.3998,-3.4049,-3.4111,-3.4173,-3.4185,-3.4233,-3.4351,-3.3758,-3.3007,-3.2327,-3.1543,-3.0762,-3.0025,-2.9906,-2.9888,-2.9897,-2.9897,-2.9913,-2.9972,-3.0007,-3.003,-3.0102,-3.0102,-3.0091,-3.0109,-3.0109,-3.0135,-3.0197,-3.0375,-3.049,-3.0494,-3.062,-3.0711,-3.0708,-3.0576,-3.0556,-3.0604,-3.061,-3.0647,-3.0698,-3.0826,-3.0894,0.0,-2.988,0.0,0.0,0.0,0.0,0.0,0.0,0.0,0.0,0.0,0.0,0.0,-3.079,-3.0871,-3.0912,-3.0932,-3.0952,-3.1015,-3.1035,-3.1092,-3.119,-3.119,-3.119,-3.119,-3.119,-3.119,-3.119,-3.119,-3.119,-3.119,-3.119,-3.119,-3.119,-3.119,-3.119,-3.119,-3.119,-3.119,-3.119,-3.119,-3.119,-3.119,-3.123,-3.1249,-3.1249,-3.1249,-3.1291,-3.1351,-3.1351,-3.1406,-3.1498,-3.1498,-3.1498,-3.1498,-3.1498,-3.1517,-3.1519,-3.1519,-3.1555,-3.1557,-3.1557,-3.1653,-3.1858,-3.247,-3.2781,-3.306,-3.3662,-3.3868,-3.3934,-3.3985,-3.4011,-3.4023,-3.4036,-3.4124,-3.4209,-3.4233,-3.3701,-3.3142,-3.2988,-3.1866,-3.0866,-3.0753,-3.0232,-2.9841,-2.988,-2.9897,-2.9916,-2.9932,-2.9964,-3.0053,-3.0176,-3.0132,-3.0121,-3.0174,-3.0123,-3.011,-3.0125,-3.031,-3.0418,-3.0424,-3.0642,-3.0756,-3.0708,-3.0664,-3.0643,-3.06,-3.0656,-3.0684,-3.0698,-3.0774,-3.0847,0.0,0.0,0.0,0.0,0.0,0.0,0.0,0.0,0.0,0.0,0.0,0.0,0.0,-3.0651,-3.0733,-3.0794,-3.0794,-3.0851,-3.0952,-3.0952,-3.0992,-3.1052,-3.1092,-3.1095,-3.1095,-3.1151,-3.119,-3.119,-3.119,-3.119,-3.119,-3.119,-3.119,-3.119,-3.119,-3.119,-3.119,-3.119,-3.119,-3.119,-3.119,-3.119,-3.119,-3.119,-3.119,-3.119,-3.119,-3.123,-3.1235,-3.1235,-3.1291,-3.1363,-3.1363,-3.1363,-3.1363,-3.1363,-3.15,-3.1671,-3.1464,-3.1542,-3.171,-3.1557,-3.1519,-3.1634,-3.2038,-3.2436,-3.2844,-3.3255,-3.3588,-3.3855,-3.3895,-3.3921,-3.3947,-3.3947,-3.4036,-3.4111,-3.4148,-3.3881,-3.3531,-3.3164,-3.2518,-3.1902,-3.154,-3.0857,-3.0269,-2.9897,-2.9891,-2.9897,-2.9897,-2.9988,-3.0072,-3.013,-3.0171,-3.0213,-3.0235,-3.0227,-3.018,-3.0145,-3.0304,-3.0389,-3.0407,-3.0564,-3.0695,-3.0743,-3.0725,-3.0684,-3.0659,-3.0673,-3.0691,-3.0701,-3.0764,-3.082,0.0,0.0,0.0,0.0,0.0,0.0,0.0,0.0,0.0,0.0,0.0,0.0,-3.0426,-3.0506,-3.0547,-3.0651,-3.0671,-3.0712,-3.0851,-3.0871,-3.0871,-3.0892,-3.0952,-3.0975,-3.0975,-3.1075,-3.1171,-3.1171,-3.119,-3.119,-3.119,-3.119,-3.119,-3.119,-3.119,-3.119,-3.119,-3.119,-3.119,-3.119,-3.119,-3.119,-3.119,-3.119,-3.119,-3.119,-3.119,-3.119,-3.119,-3.119,-3.119,-3.119,-3.119,-3.119,-3.119,-3.119,-3.1445,-3.173,-3.1451,-3.1621,-3.1914,-3.1709,-3.1651,-3.1671,-3.1803,-3.2283,-3.2798,-3.2908,-3.3346,-3.3793,-3.3793,-3.3829,-3.3881,-3.3881,-3.3921,-3.3985,-3.4074,-3.4086,-3.3914,-3.33,-3.3212,-3.2937,-3.2134,-3.154,-3.0969,-3.03,-3.0134,-3.0099,-3.0099,-3.0071,-3.0087,-3.013,-3.02,-3.0273,-3.0316,-3.031,-3.0273,-3.0221,-3.0334,-3.0417,-3.0428,-3.0472,-3.0595,-3.0784,-3.0723,-3.0709,-3.0717,-3.0717,-3.0725,-3.0718,-3.0776,-3.0794,0.0,0.0,0.0,0.0,0.0,0.0,0.0,0.0,0.0,0.0,0.0,0.0,-3.0506,-3.0506,-3.0506,-3.051,-3.0526,-3.0568,-3.0712,-3.0733,-3.077,-3.0892,-3.0912,-3.0912,-3.0912,-3.0975,-3.1015,-3.1015,-3.1131,-3.119,-3.119,-3.119,-3.119,-3.119,-3.119,-3.119,-3.119,-3.119,-3.119,-3.119,-3.119,-3.119,-3.119,-3.119,-3.119,-3.119,-3.119,-3.119,-3.119,-3.119,-3.119,-3.119,-3.119,-3.119,-3.119,-3.119,-3.1249,-3.1329,-3.1564,-3.1677,-3.1787,-3.2092,-3.2231,-3.2352,-3.2702,-3.2928,-3.3117,-3.3415,-3.3601,-3.3712,-3.3712,-3.3766,-3.3802,-3.3802,-3.3815,-3.3855,-3.3985,-3.4011,-3.3999,-3.3951,-3.355,-3.2937,-3.2134,-3.1967,-3.1917,-3.1804,-3.1271,-3.0845,-3.0845,-3.0309,-3.0026,-3.0246,-3.0199,-3.0207,-3.0369,-3.0329,-3.0292,-3.0286,-3.0359,-3.0439,-3.0481,-3.0543,-3.0634,-3.0711,-3.0706,-3.0721,-3.079,-3.079,-3.079,-3.0792,-3.0798,-3.0801,0.0,0.0,0.0,0.0,0.0,0.0,0.0,0.0,0.0,0.0,0.0,-3.0506,-3.0506,-3.0506,-3.0506,-3.0506,-3.0506,-3.0526,-3.0589,-3.0589,-3.0609,-3.0671,-3.0733,-3.079,-3.079,-3.0875,-3.0935,-3.0935,-3.1015,-3.1092,-3.1092,-3.1151,-3.119,-3.119,-3.119,-3.119,-3.119,-3.119,-3.119,-3.119,-3.119,-3.119,-3.119,-3.119,-3.119,-3.121,-3.1408,-3.1487,-3.1487,-3.1712,-3.1675,-3.1487,-3.1487,-3.1368,-3.119,-3.119,-3.1466,-3.1804,-3.1731,-3.1968,-3.2299,-3.2299,-3.2317,-3.2385,-3.2586,-3.2848,-3.3086,-3.3268,-3.3473,-3.3643,-3.3684,-3.3726,-3.3753,-3.3793,-3.3807,-3.382,-3.3868,-3.3908,-3.3972,-3.4086,-3.3894,-3.3452,-3.2687,-3.2657,-3.2553,-3.2115,-3.1803,-3.1618,-3.1618,-3.1393,-3.1101,-3.073,-3.0772,-3.0666,-3.028,-3.034,-3.0385,-3.0299,-3.0365,-3.0409,-3.043,-3.0467,-3.053,-3.0634,-3.0685,-3.0706,-3.074,-3.074,-3.0752,-3.0808,-3.0808,-3.0792,0.0,0.0,0.0,0.0,0.0,0.0,0.0,0.0,0.0,0.0,0.0,-3.0447,-3.0342,-3.0426,-3.0506,-3.0506,-3.0506,-3.0506,-3.0506,-3.0506,-3.0506,-3.0506,-3.0589,-3.0651,-3.0651,-3.0773,-3.0851,-3.0851,-3.0932,-3.0975,-3.0975,-3.1072,-3.1112,-3.1112,-3.1112,-3.1112,-3.1112,-3.1151,-3.1171,-3.119,-3.1171,-3.1151,-3.1151,-3.1131,-3.1112,-3.1151,-3.143,-3.162,-3.1714,-3.2003,-3.2039,-3.186,-3.186,-3.1694,-3.1485,-3.1485,-3.1822,-3.2283,-3.2056,-3.2333,-3.2781,-3.2635,-3.2569,-3.2586,-3.2653,-3.2846,-3.3101,-3.3165,-3.3375,-3.3591,-3.3647,-3.3671,-3.3712,-3.3766,-3.3793,-3.3807,-3.3807,-3.3842,-3.3934,-3.4036,-3.4074,-3.3938,-3.3375,-3.3383,-3.3246,-3.265,-3.2468,-3.2381,-3.2381,-3.2296,-3.2015,-3.14,-3.151,-3.1378,-3.0734,-3.0899,-3.103,-3.0938,-3.0825,-3.0766,-3.0758,-3.0565,-3.0496,-3.0608,-3.0645,-3.0687,-3.0691,-3.0691,-3.0728,-3.0779,-3.0779,-3.0765,0.0,0.0,0.0,0.0,0.0,0.0,0.0,0.0,0.0,0.0,-3.0506,-3.0363,-2.9919,-3.0199,-3.0506,-3.0506,-3.0506,-3.0506,-3.0506,-3.0506,-3.0506,-3.0506,-3.0506,-3.051,-3.051,-3.063,-3.0712,-3.0712,-3.0831,-3.0912,-3.0912,-3.0912,-3.0912,-3.0912,-3.0912,-3.0912,-3.0912,-3.0992,-3.1055,-3.119,-3.1055,-3.1015,-3.0995,-3.0952,-3.0912,-3.0932,-3.1131,-3.1408,-3.1695,-3.1714,-3.195,-3.2283,-3.2283,-3.2266,-3.2248,-3.2248,-3.2266,-3.2351,-3.2634,-3.2763,-3.286,-3.3208,-3.3349,-3.3349,-3.3349,-3.3364,-3.3378,-3.3378,-3.3452,-3.3509,-3.3506,-3.3605,-3.3698,-3.3698,-3.3753,-3.3807,-3.3807,-3.3842,-3.3895,-3.3908,-3.4011,-3.408,-3.4056,-3.4105,-3.4135,-3.4079,-3.3541,-3.3153,-3.3153,-3.2529,-3.2144,-3.2232,-3.2241,-3.2257,-3.2283,-3.2466,-3.2612,-3.2678,-3.2079,-3.1737,-3.1729,-3.0994,-3.0593,-3.0602,-3.0602,-3.0632,-3.0697,-3.0697,-3.0697,-3.072,-3.072,-3.0701,0.0,0.0,0.0,0.0,0.0,0.0,0.0,0.0,0.0,0.0,-3.0316,-3.0253,-3.0087,-3.0049,-3.0049,-3.0049,-3.0049,-3.0156,-3.0447,-3.0506,-3.0506,-3.0506,-3.0506,-3.0506,-3.0506,-3.0531,-3.0568,-3.0568,-3.0692,-3.0773,-3.0773,-3.0851,-3.0892,-3.0892,-3.0892,-3.0892,-3.0892,-3.0932,-3.0972,-3.1012,-3.0972,-3.0952,-3.0952,-3.0912,-3.0892,-3.0912,-3.1252,-3.1581,-3.1914,-3.2231,-3.2419,-3.2553,-3.2601,-3.2485,-3.23,-3.23,-3.2453,-3.2634,-3.2763,-3.2972,-3.3208,-3.3349,-3.3393,-3.3393,-3.3393,-3.3393,-3.3393,-3.3393,-3.3408,-3.3452,-3.3495,-3.3534,-3.3591,-3.3671,-3.3726,-3.3753,-3.3793,-3.3815,-3.3842,-3.3881,-3.3972,-3.4049,-3.4099,-3.4161,-3.4197,-3.4197,-3.3992,-3.3829,-3.3829,-3.3604,-3.3258,-3.2801,-3.2862,-3.2737,-3.2182,-3.2368,-3.2553,-3.2649,-3.2485,-3.2448,-3.256,-3.2336,-3.2192,-3.2192,-3.2207,-3.169,-3.063,-3.063,-3.0665,-3.0694,-3.0694,-3.0694,0.0,0.0,0.0,0.0,0.0,0.0,0.0,0.0,0.0,0.0,-3.0189,-3.0146,-2.9979,-2.9826,-2.9766,-2.9962,-2.9897,-2.9962,-3.0426,-3.0506,-3.0506,-3.0506,-3.0506,-3.0506,-3.0506,-3.0506,-3.0506,-3.0506,-3.0589,0.0,-3.063,-3.0712,-3.077,-3.077,-3.077,-3.079,-3.0831,-3.0831,-3.0851,-3.0892,-3.0851,-3.0831,-3.0831,-3.079,-3.077,-3.0773,-3.1038,-3.147,-3.2021,-3.2487,-3.2734,-3.283,-3.2925,-3.283,-3.2636,-3.2669,-3.2814,-3.3003,-3.3003,-3.3178,-3.3393,-3.3393,-3.3393,-3.3393,-3.3393,-3.3393,-3.3393,-3.3393,-3.3393,-3.3408,-3.3452,-3.3495,-3.352,-3.3629,-3.3684,-3.3712,-3.3766,-3.3793,-3.3802,-3.3873,-3.3921,-3.3985,-3.4023,-3.4086,-3.4136,-3.4136,-3.4136,-3.4136,-3.4136,-3.4136,-3.3944,-3.3418,-3.3492,-3.3336,-3.2799,-3.2982,-3.3176,-3.3266,-3.3172,-3.3175,-3.3327,-3.3169,-3.3068,-3.3068,-3.3065,-3.2512,-3.1405,-3.1133,-3.1024,-3.1057,-3.0789,-3.068,0.0,0.0,0.0,0.0,0.0,0.0,-2.9592,0.0,-2.977,0.0,-3.0167,-3.0038,-2.9582,-2.9493,-2.9694,-3.0274,-3.0049,-2.9962,-3.0426,-3.0506,-3.0506,-3.0506,-3.0506,-3.0506,-3.0506,-3.0506,-3.0506,-3.0506,-3.0506,-3.0506,-3.0506,-3.0506,-3.0506,-3.0506,-3.0506,-3.0568,-3.0692,-3.0692,-3.0753,-3.0892,-3.077,-3.0692,-3.0692,-3.0568,-3.0506,-3.0506,-3.051,-3.1067,-3.1986,-3.242,-3.2768,-3.3101,-3.3247,-3.3292,-3.3292,-3.3367,-3.3393,-3.3411,-3.3378,-3.3411,-3.3393,-3.3411,-3.3393,-3.3393,-3.3393,-3.3393,-3.3393,-3.3393,-3.3393,-3.3393,-3.3393,-3.3452,-3.3506,-3.3577,-3.3661,-3.3684,-3.3698,-3.3753,-3.3807,-3.3807,-3.3842,-3.3895,-3.3895,-3.3959,-3.3998,-3.3998,-3.3998,-3.3998,-3.3998,-3.3998,-3.4023,-3.4086,-3.4099,-3.4124,-3.4185,-3.442,-3.4586,-3.4601,-3.4172,-3.3957,-3.4021,-3.3391,-3.306,-3.3066,-3.3066,-3.3066,-3.3072,-3.2245,-3.185,-3.1811,-3.1043,-3.0679,-2.955,0.0,0.0,0.0,0.0,0.0,-2.9206,-2.9275,-2.935,-2.9627,-2.9694,-2.971,-2.9792,-2.9554,-2.9515,-3.0038,-2.9853,-2.9853,-3.0426,-3.0506,-3.0506,-3.0506,-3.0506,-3.0506,-3.0506,-3.0506,-3.0506,0.0,-3.0506,-3.0506,-3.0506,-3.0506,-3.0506,-3.0506,-3.0506,-3.0526,-3.0568,-3.0568,-3.0568,-3.0609,-3.0568,-3.0568,-3.0568,-3.0526,-3.0506,-3.0526,-3.0801,-3.1103,-3.1395,-3.1842,-3.2419,-3.3042,-3.3119,-3.315,-3.3165,-3.318,-3.3244,-3.3307,-3.3211,-3.3271,-3.3378,-3.3337,-3.3367,-3.3393,-3.3393,-3.3393,-3.3393,-3.3393,-3.3393,-3.3393,-3.3393,-3.3408,-3.3437,-3.3506,-3.3534,-3.3577,-3.3619,-3.3671,-3.3739,-3.3793,-3.3842,-3.3895,-3.3895,-3.3959,-3.3998,-3.3998,-3.3998,-3.3998,-3.3998,-3.3998,-3.4011,-3.4023,-3.4023,-3.4036,-3.4049,-3.4173,-3.4328,-3.452,-3.4454,-3.4481,-3.4639,-3.4469,-3.4434,-3.4594,-3.4642,-3.4731,-3.4878,-3.3445,-3.2747,-3.2728,-3.2517,-3.2416,0.0,0.0,0.0,0.0,0.0,0.0,-2.9006,-2.9098,-2.9213,0.0,-2.9665,-2.971,-2.9874,-2.9704,-2.9643,-2.9951,-2.987,-2.9913,-3.0316,-3.0422,-3.0464,-3.0464,-3.0468,-3.0506,-3.0506,-3.0506,-3.0506,-3.0506,-3.0506,-3.0506,-3.0506,-3.0506,-3.0506,-3.0506,-3.0506,-3.0506,-3.0506,-3.0506,-3.0506,-3.0506,-3.0506,-3.0506,-3.0506,-3.0506,-3.0593,-3.076,-3.0821,-3.1044,-3.1357,-3.1473,-3.1986,-3.2737,-3.2961,-3.3057,-3.3055,-3.3086,-3.315,-3.3214,-3.3135,-3.3211,-3.3352,-3.3307,-3.3352,-3.3393,-3.3393,-3.3393,-3.3393,-3.3393,-3.3393,-3.3393,-3.3393,-3.3393,-3.3408,-3.3452,-3.3481,-3.3506,-3.3549,-3.3619,-3.3671,-3.3753,-3.3802,-3.3873,-3.3873,-3.3881,-3.3908,-3.3908,-3.3908,-3.3908,-3.3908,-3.3908,-3.3921,-3.3959,-3.3959,-3.3972,-3.3998,-3.4036,-3.4124,-3.4281,-3.4461,-3.4615,-3.4722,-3.4841,-3.4963,-3.5077,-3.5102,-3.5227,-3.543,-3.4198,-3.3409,-3.3062,-3.3095,-3.3081,0.0,0.0,0.0,0.0,-2.8468,0.0,-2.8928,-2.9006,-2.9167,-2.9659,-2.977,-2.977,-2.9808,-2.9814,-2.9836,-2.9886,-2.993,-2.9995,-3.0184,-3.0295,-3.0396,-3.0396,-3.0443,-3.0506,-3.0506,-3.0506,-3.0506,-3.0506,-3.0506,-3.0506,-3.0506,-3.0506,-3.0506,-3.0506,-3.0506,-3.0506,-3.0506,-3.0506,-3.0506,-3.0506,-3.0506,-3.0506,-3.0506,-3.0506,-3.0716,-3.1004,-3.0654,-3.0925,-3.1603,-3.1317,-3.1584,-3.2283,-3.2705,-3.2884,-3.2932,-3.2993,-3.3039,-3.3086,-3.307,-3.3183,-3.3277,-3.3262,-3.3322,-3.3396,-3.3396,-3.3378,-3.3393,-3.3393,-3.3393,-3.3393,-3.3393,-3.3393,-3.3393,-3.3393,-3.3452,-3.3495,-3.3495,-3.3534,-3.3619,-3.3671,-3.3739,-3.3793,-3.3807,-3.3807,-3.3807,-3.3807,-3.3807,-3.3807,-3.3807,-3.3807,-3.3815,-3.3881,-3.3881,-3.3908,-3.3972,-3.3985,-3.3985,-3.3985,-3.4281,-3.445,-3.4461,-3.4691,-3.4821,-3.4879,-3.4898,-3.4991,-3.5176,-3.4673,-3.4036,-3.3284,-3.3357,-3.3352,0.0,0.0,0.0,0.0,0.0,0.0,-2.8517,-2.8541,-2.8597,0.0,-2.892,-2.9006,-2.9229,-2.9275,-2.9259,-2.9282,-2.9464,-2.9738,-3.0146,-3.021,-3.0231,-3.0231,-3.0354,-3.0422,-3.0422,-3.0464,-3.0506,-3.0506,-3.0506,-3.0506,-3.0506,-3.0506,-3.0506,-3.0506,-3.0506,-3.0506,-3.0506,-3.0506,-3.0506,-3.0506,-3.0506,-3.0506,-3.0506,-3.0506,-3.0531,-3.0613,-3.0531,-3.0781,-3.124,-3.1471,-3.1694,-3.1841,-3.1914,-3.2162,-3.2437,-3.2454,-3.2705,-3.3011,-3.2963,-3.3026,-3.3135,-3.3091,-3.3186,-3.3307,-3.3307,-3.3352,-3.3393,-3.3393,-3.3393,-3.3393,-3.3393,-3.3393,-3.3393,-3.3393,-3.3408,-3.3408,-3.3408,-3.3481,-3.3534,-3.3619,-3.3671,-3.3739,-3.3793,-3.3807,-3.3807,-3.3807,-3.3807,-3.3807,-3.3807,-3.3807,-3.382,-3.382,-3.3815,-3.3815,-3.3847,-3.3881,-3.3921,-3.3921,-3.4036,-3.4124,-3.4173,-3.4233,-3.4379,-3.4647,-3.4821,-3.4917,-3.4963,-3.5172,-3.52,-3.509,-3.5121,-3.5115,0.0,0.0,0.0,-2.9728,0.0,0.0,0.0,-2.8724,-2.8621,-2.8842,-2.8912,-2.8936,-2.9075,0.0,-2.9098,-2.9098,-2.9328,-2.9538,-2.9643,-2.9908,-3.0103,-3.0103,-3.021,-3.0295,-3.0295,-3.0338,-3.038,-3.0443,-3.0485,-3.0506,-3.0506,-3.0506,-3.0506,-3.0506,-3.0506,-3.0506,-3.0506,-3.0506,-3.0506,-3.0506,-3.0506,-3.0506,-3.0506,-3.0506,-3.0613,-3.0781,-3.0593,-3.0841,-3.1395,-3.1395,-3.1509,-3.1732,-3.2127,-3.23,-3.2318,-3.2539,-3.2753,-3.2948,-3.2916,-3.2963,-3.3042,-3.3011,-3.3091,-3.3214,-3.3277,-3.3352,-3.3393,-3.3393,-3.3393,-3.3393,-3.3393,-3.3393,-3.3393,-3.3393,-3.3393,-3.3393,-3.3393,-3.3422,-3.3466,-3.3534,-3.3577,-3.3629,-3.378,-3.3807,-3.3807,-3.3807,-3.3807,-3.3807,-3.3807,-3.3807,-3.3807,-3.3807,-3.3807,-3.3807,-3.3807,-3.3815,-3.3842,-3.3842,-3.3908,-3.4023,-3.4197,-3.4233,-3.4386,-3.4649,-3.4762,-3.4841,-3.4944,-3.5049,-3.52,-3.54,-3.5496,-3.5541,0.0,0.0,0.0,0.0,0.0,-2.9143,0.0,0.0,0.0,0.0,0.0,0.0,0.0,0.0,0.0,0.0,0.0,0.0,0.0,-2.9406,0.0,-2.9908,-3.006,-3.0146,-3.0146,-3.0189,-3.0231,-3.0338,-3.0401,-3.0443,-3.0443,-3.0464,-3.0485,-3.0485,-3.0489,-3.0506,-3.0506,-3.0506,-3.0506,-3.0506,-3.0506,-3.0506,-3.0506,-3.0485,-3.0675,-3.0962,-3.0593,-3.0882,-3.1528,-3.1184,-3.13,-3.175,-3.242,-3.2521,-3.2335,-3.2672,-3.2818,-3.29,-3.29,-3.2932,-3.2979,-3.2979,-3.3026,-3.3086,-3.3214,-3.3322,-3.3382,-3.3382,-3.3396,-3.3393,-3.3393,-3.3393,-3.3393,-3.3393,-3.3393,-3.3393,-3.3393,-3.3393,-3.3408,-3.3495,-3.3509,-3.3549,-3.3726,-3.3766,-3.3766,-3.3766,-3.378,-3.378,-3.378,-3.3775,-3.3807,-3.3807,-3.3807,-3.3807,-3.3807,-3.3807,-3.3807,-3.3807,-3.3842,-3.3985,-3.4209,-3.4328,-3.4487,-3.4651,-3.4674,-3.4774,-3.4935,-3.4813,-3.4908,-3.5182,-3.5352,-3.5429,0.0,0.0,0.0,0.0,-2.9438,0.0,0.0,0.0,-2.8951,-2.8565,0.0,0.0,0.0,0.0,0.0,0.0,0.0,0.0,-2.7967,-2.8635,-2.9282,-2.9515,-2.9842,-3.0017,-3.0017,-3.0124,-3.021,-3.021,-3.0231,-3.0231,-3.0231,-3.0338,-3.0417,-3.0417,-3.0464,-3.0506,-3.0506,-3.0506,-3.0506,-3.0506,-3.0506,-3.0506,-3.0506,-3.0443,-3.0422,-3.0464,-3.0295,-3.0572,-3.1064,-3.0905,-3.1184,-3.1714,-3.1787,-3.202,-3.2301,-3.2352,-3.2588,-3.29,-3.29,-3.29,-3.2916,-3.2916,-3.2963,-3.3026,-3.3104,-3.3214,-3.3307,-3.3307,-3.3352,-3.3393,-3.3393,-3.3393,-3.3393,-3.3393,-3.3393,-3.3393,-3.3393,-3.3393,-3.3408,-3.3495,-3.3509,-3.352,-3.3619,-3.3615,-3.3615,-3.3615,-3.3671,-3.3712,-3.3712,-3.3766,-3.3807,-3.3807,-3.3807,-3.3807,-3.3807,-3.3807,-3.3807,-3.3807,-3.382,-3.3842,-3.3947,-3.4233,-3.4397,-3.4431,-3.4609,-3.4704,-3.4734,-3.4889,-3.5016,-3.5113,-3.5138,-3.5182,0.0,0.0,0.0,0.0,0.0,0.0,-2.9097,0.0,-2.8645,0.0,0.0,0.0,0.0,0.0,0.0,0.0,-2.8387,0.0,0.0,0.0,-2.9144,0.0,0.0,0.0,-2.9694,-2.982,-2.9968,-3.0098,-3.0,-3.0044,-3.0189,-3.0253,-3.0274,-3.0274,-3.0316,-3.0338,-3.0338,-3.0338,-3.0338,-3.0338,-3.0338,-3.0338,-3.0316,-3.0295,-3.0274,-3.0274,-3.021,-3.0572,-3.1179,-3.1103,-3.1471,-3.2056,-3.2056,-3.2144,-3.2335,-3.2573,-3.2753,-3.29,-3.29,-3.29,-3.29,-3.29,-3.2948,-3.3013,-3.3026,-3.3104,-3.3198,-3.3277,-3.3307,-3.3352,-3.3396,-3.3393,-3.3393,-3.3393,-3.3393,-3.3393,-3.3393,-3.3393,-3.3411,-3.3437,-3.3437,-3.3452,-3.3481,-3.3549,-3.3605,-3.3605,-3.3615,-3.3629,-3.3629,-3.3657,-3.3698,-3.3739,-3.3739,-3.3766,-3.3807,-3.3807,-3.3807,-3.3807,-3.3947,-3.4049,-3.4074,-3.4314,-3.445,-3.445,-3.4548,-3.4663,-3.4821,-3.4735,-3.4822,-3.5046,-3.5155,-3.5254,-2.892,0.0,0.0,0.0,0.0,0.0,0.0,0.0,0.0,0.0,0.0,0.0,0.0,0.0,0.0,0.0,0.0,-2.8496,0.0,0.0,0.0,0.0,0.0,0.0,0.0,-2.9531,-2.9704,-2.9864,-2.9848,-2.9913,-3.0119,-3.0141,-3.0146,-3.0146,-3.0167,-3.0189,-3.0189,-3.0189,-3.0189,-3.0189,-3.0189,-3.0189,-3.0189,-3.0146,-3.0146,-3.0146,-3.0141,-3.0489,-3.1081,-3.1044,-3.1488,-3.2161,-3.2109,-3.2197,-3.2335,-3.2688,-3.285,-3.29,-3.29,-3.29,-3.29,-3.29,-3.2932,-3.2963,-3.2963,-3.3026,-3.3104,-3.3201,-3.3232,-3.3259,-3.3352,-3.3382,-3.3382,-3.3411,-3.3393,-3.3393,-3.3393,-3.3393,-3.3393,-3.3393,-3.3393,-3.3393,-3.3393,-3.3481,-3.3549,-3.3549,-3.3563,-3.3577,-3.3577,-3.3591,-3.3633,-3.3657,-3.3671,-3.3684,-3.3739,-3.3753,-3.3753,-3.378,-3.3972,-3.4086,-3.4086,-3.4302,-3.4409,-3.4409,-3.4475,-3.4612,-3.4783,-3.4663,-3.4724,-3.4983,-3.513,-3.5227,0.0,0.0,0.0,-2.8997,0.0,0.0,0.0,0.0,-2.909,0.0,0.0,0.0,0.0,0.0,0.0,0.0,0.0,0.0,0.0,0.0,0.0,0.0,0.0,0.0,0.0,-2.9335,-2.9515,0.0,-2.9732,-2.9896,-2.9902,-2.9968,-2.9995,-2.9995,-3.0124,-3.0189,-3.0189,-3.0189,-3.0189,-3.0189,-3.0189,-3.0189,-3.0205,-3.006,-2.9995,-2.9995,-2.9924,-3.0146,-3.0526,-3.0372,-3.0925,-3.1801,-3.1674,-3.1895,-3.2318,-3.2521,-3.2737,-3.29,-3.29,-3.29,-3.29,-3.29,-3.29,-3.29,-3.29,-3.2948,-3.2995,-3.3013,-3.3057,-3.315,-3.3277,-3.3292,-3.3307,-3.3364,-3.3393,-3.3393,-3.3393,-3.3393,-3.3393,-3.3393,-3.3393,-3.3393,-3.3393,-3.3393,-3.3411,-3.3411,-3.3466,-3.3491,-3.3491,-3.3563,-3.3605,-3.3605,-3.3605,-3.3605,-3.3619,-3.3619,-3.3629,-3.3698,-3.378,-3.3802,-3.3802,-3.4074,-3.4209,-3.4209,-3.4405,-3.4508,-3.4518,-3.4763,-3.4879,-3.4889,-3.4907,-3.4962,0.0,0.0,-2.8444,-2.8597,0.0,0.0,0.0,0.0,0.0,0.0,0.0,0.0,0.0,0.0,0.0,0.0,0.0,0.0,0.0,0.0,0.0,0.0,0.0,0.0,0.0,0.0,0.0,0.0,-2.9582,0.0,-2.988,-2.9924,-2.9924,-2.9924,-2.9968,-2.9989,-2.9989,-2.9989,-2.9989,-2.9989,-2.9989,-2.9989,-2.9989,-2.9946,-2.9924,-2.9924,-2.9902,-3.0081,-3.0372,-3.0559,-3.0965,-3.1485,-3.1654,-3.1912,-3.2197,-3.2335,-3.2521,-3.2721,-3.285,-3.29,-3.29,-3.29,-3.29,-3.29,-3.29,-3.2916,-3.2948,-3.2979,-3.3011,-3.3057,-3.3135,-3.3229,-3.331,-3.3322,-3.3367,-3.3393,-3.3393,-3.3393,-3.3393,-3.3393,-3.3393,-3.3393,-3.3393,-3.3393,-3.3393,-3.3393,-3.3408,-3.3437,-3.3437,-3.3452,-3.3495,-3.352,-3.3534,-3.3549,-3.3605,-3.3605,-3.3619,-3.3629,-3.3675,-3.3684,-3.3739,-3.3985,-3.4161,-3.4197,-3.4577,-3.4763,-3.4763,-3.4991,-3.5037,-3.4889,-3.5035,-3.5122,-2.8387,-2.8411,0.0,-2.8411,-2.8411,0.0,-2.8411,0.0,-2.8444,0.0,0.0,0.0,0.0,0.0,0.0,0.0,0.0,0.0,0.0,-2.9325,0.0,0.0,0.0,0.0,0.0,0.0,0.0,0.0,0.0,0.0,0.0,-2.9896,-2.9896,-2.9896,-2.9896,-2.9896,-2.9896,-2.9896,-2.9896,-2.9896,-2.9896,-2.9896,-2.9896,-2.9896,-2.9896,-2.9896,-2.9896,-3.006,-3.0314,-3.0522,-3.0885,-3.1315,-3.1542,-3.1783,-3.2001,-3.2161,-3.2353,-3.2505,-3.2721,-3.2786,-3.282,-3.2884,-3.29,-3.29,-3.29,-3.29,-3.2916,-3.2948,-3.2963,-3.2979,-3.3057,-3.3137,-3.3201,-3.3214,-3.3307,-3.3367,-3.3367,-3.3364,-3.3393,-3.3393,-3.3393,-3.3393,-3.3393,-3.3393,-3.3393,-3.3393,-3.3393,-3.3393,-3.3393,-3.3393,-3.3408,-3.3466,-3.3466,-3.3495,-3.352,-3.3549,-3.3563,-3.3563,-3.3591,-3.3633,-3.3657,-3.3815,-3.4081,-3.4415,-3.4428,-3.4589,-3.4858,-3.4896,-3.4841,-3.4733,-3.5044,-3.5218]},{"header":{"parameterUnit":"m.s-1","parameterCategory":1,"la1":30.6,"la2":29.2853,"lo1":-89.7004,"lo2":-87.6739,"dy":0.0162,"dx":0.0183,"nx":112,"ny":82,"refTime":"2024-04-16T06:00:00:Z","depth":0,"parameterNumber":3,"parameterNumberName":"V-component_of_WINDS"},"data":[0.0,0.0,0.0,0.0,0.0,0.0,0.0,0.0,0.0,0.0,0.0,0.0,0.0,0.0,0.0,0.0,0.0,0.0,0.0,0.0,0.0,0.0,0.0,0.0,0.0,0.0,0.0,0.0,0.0,0.0,0.0,0.0,0.0,0.0,0.0,0.0,0.0,0.0,0.0,0.0,0.0,0.0,0.0,0.0,0.0,0.0,0.0,0.0,0.0,0.0,0.0,0.0,0.0,0.0,0.0,0.0,0.0,0.0,0.0,0.0,0.0,0.0,0.0,0.0,0.0,0.0,0.0,0.0,0.0,0.0,0.0,0.0,0.0,0.0,0.0,0.0,0.0,0.0,0.0,0.0,0.0,0.0,0.0,0.0,0.0,0.0,0.0,0.0,0.0,0.0,-0.332,-0.2684,-0.2855,-0.3322,-0.3984,-0.5866,-0.764,-0.9188,0.0,0.0,0.0,0.0,0.0,0.0,0.0,0.0,0.0,0.0,0.0,0.0,0.0,0.0,0.0,0.0,0.0,0.0,0.0,0.0,0.0,0.0,0.0,0.0,0.0,0.0,0.0,0.0,0.0,0.0,0.0,0.0,0.0,0.0,0.0,0.0,0.0,0.0,0.0,0.0,0.0,0.0,0.0,0.0,0.0,0.0,0.0,0.0,0.0,0.0,0.0,0.0,0.0,0.0,0.0,0.0,0.0,0.0,0.0,0.0,0.0,0.0,0.0,0.0,0.0,0.0,0.0,0.0,0.0,0.0,0.0,0.0,0.0,0.0,0.0,0.0,0.0,0.0,0.0,0.0,0.0,0.0,0.0,0.0,0.0,0.0,0.0,0.0,0.0,0.0,0.0,0.0,0.0,0.0,0.0,0.0,0.0,0.0,0.0,0.0,0.0,0.0,0.0,0.0,-0.3355,-0.2315,-0.2248,-0.2447,-0.2911,-0.4869,-0.7121,-0.9485,0.0,0.0,0.0,0.0,0.0,0.0,0.0,0.0,0.0,0.0,0.0,0.0,0.0,0.0,0.0,0.0,0.0,0.0,0.0,0.0,0.0,0.0,0.0,0.0,0.0,0.0,0.0,0.0,0.0,0.0,0.0,0.0,0.0,0.0,0.0,0.0,0.0,0.0,0.0,0.0,0.0,0.0,0.0,0.0,0.0,0.0,0.0,0.0,0.0,0.0,0.0,0.0,0.0,0.0,0.0,0.0,0.0,0.0,0.0,0.0,0.0,0.0,0.0,0.0,0.0,0.0,0.0,0.0,0.0,0.0,0.0,0.0,0.0,0.0,0.0,0.0,0.0,0.0,0.0,0.0,0.0,0.0,0.0,0.0,0.0,0.0,0.0,0.0,0.0,0.0,0.0,0.0,0.0,0.0,0.0,0.0,0.0,0.0,0.0,0.0,0.0,0.0,0.0,-0.2838,-0.275,-0.388,-0.3213,-0.3082,-0.4084,-0.5734,-0.758,-0.9579,-1.1609,0.0,0.0,0.0,0.0,0.0,0.0,0.0,0.0,0.0,0.0,0.0,0.0,0.0,0.0,0.0,0.0,0.0,0.0,0.0,0.0,0.0,0.0,0.0,0.0,0.0,0.0,0.0,0.0,0.0,0.0,0.0,0.0,0.0,0.0,0.0,0.0,0.0,0.0,0.0,0.0,0.0,0.0,0.0,0.0,0.0,0.0,0.0,0.0,0.0,0.0,0.0,0.0,0.0,0.0,0.0,0.0,0.0,0.0,0.0,0.0,0.0,0.0,0.0,0.0,0.0,0.0,0.0,0.0,0.0,0.0,0.0,0.0,0.0,0.0,0.0,0.0,0.0,0.0,0.0,0.0,0.0,0.0,0.0,0.0,0.0,0.0,0.0,0.0,0.0,0.0,0.0,0.0,0.0,0.0,0.0,0.0,0.0,0.0,0.0,0.0,0.0,0.0,-0.2347,-0.2347,-0.4782,-0.3949,-0.3718,-0.5024,-0.6535,-0.8044,-0.9528,-1.169,0.0,0.0,0.0,0.0,0.0,0.0,0.0,0.0,0.0,0.0,0.0,0.0,0.0,0.0,0.0,0.0,0.0,0.0,0.0,0.0,0.0,0.0,0.0,0.0,0.0,0.0,0.0,0.0,0.0,0.0,0.0,0.0,0.0,0.0,0.0,0.0,0.0,0.0,0.0,0.0,0.0,0.0,0.0,0.0,0.0,0.0,0.0,0.0,0.0,0.0,0.0,0.0,0.0,0.0,0.0,0.0,0.0,0.0,0.0,0.0,0.0,0.0,0.0,0.0,0.0,0.0,0.0,0.0,0.0,0.0,0.0,0.0,0.0,0.0,0.0,0.0,0.0,0.0,0.0,0.0,0.0,0.0,0.0,0.0,0.0,0.0,0.0,0.0,0.0,0.0,0.0,0.0,0.0,0.0,0.0,0.0,0.0,0.0,0.0,0.0,0.0,0.0,-0.2517,-0.2582,-0.3282,-0.3282,-0.3518,-0.432,-0.6231,-0.7984,-0.9325,-1.1605,0.0,0.0,0.0,0.0,0.0,0.0,0.0,0.0,0.0,0.0,0.0,0.0,0.0,0.0,0.0,0.0,0.0,0.0,0.0,0.0,0.0,0.0,0.0,0.0,0.0,0.0,0.0,0.0,0.0,0.0,0.0,0.0,0.0,0.0,0.0,0.0,0.0,0.0,0.0,0.0,0.0,0.0,0.0,0.0,0.0,0.0,0.0,0.0,0.0,0.0,0.0,0.0,0.0,0.0,0.0,0.0,0.0,0.0,0.0,0.0,0.0,0.0,0.0,0.0,0.0,0.0,0.0,0.0,0.0,0.0,0.0,0.0,0.0,0.0,0.0,0.0,0.0,0.0,0.0,0.0,0.0,0.0,0.0,0.0,0.0,0.0,0.0,0.0,0.0,0.0,0.0,0.0,0.0,0.0,0.0,0.0,0.0,0.0,0.0,0.0,0.0,0.0,-0.2079,-0.2414,0.0,-0.3485,-0.3685,-0.4891,-0.647,-0.7984,-0.9325,0.0,0.0,0.0,0.0,0.0,0.0,0.0,0.0,0.0,0.0,0.0,0.0,0.0,0.0,0.0,0.0,0.0,0.0,0.0,0.0,0.0,0.0,0.0,0.0,0.0,0.0,0.0,0.0,0.0,0.0,0.0,0.0,0.0,0.0,0.0,0.0,0.0,0.0,0.0,0.0,0.0,0.0,0.0,0.0,0.0,0.0,0.0,0.0,0.0,0.0,0.0,0.0,0.0,0.0,0.0,0.0,0.0,0.0,0.0,0.0,0.0,0.0,0.0,0.0,0.0,0.0,0.0,0.0,0.0,0.0,0.0,0.0,0.0,0.0,0.0,0.0,0.0,0.0,0.0,0.0,0.0,0.0,0.0,0.0,0.0,0.0,0.0,0.0,0.0,0.0,0.0,0.0,0.0,0.0,0.0,0.0,0.0,0.0,0.0,0.0,0.0,0.0,-0.2146,-0.1812,-0.2179,0.0,-0.3351,-0.3553,-0.4791,-0.6338,-0.779,-0.9102,0.0,0.0,0.0,0.0,0.0,0.0,0.0,0.0,0.0,0.0,0.0,0.0,0.0,0.0,0.0,0.0,0.0,0.0,0.0,0.0,0.0,0.0,0.0,0.0,0.0,0.0,0.0,0.0,0.0,0.0,0.0,0.0,0.0,0.0,0.0,0.0,0.0,0.0,0.0,0.0,0.0,0.0,0.0,0.0,0.0,0.0,0.0,0.0,0.0,0.0,0.0,0.0,0.0,0.0,0.0,0.0,0.0,0.0,0.0,0.0,0.0,0.0,0.0,0.0,0.0,0.0,0.0,0.0,0.0,0.0,0.0,0.0,0.0,0.0,0.0,0.0,0.0,0.0,0.0,0.0,0.0,0.0,0.0,0.0,0.0,0.0,0.0,0.0,0.0,0.0,0.0,0.0,0.0,0.0,0.0,0.0,0.0,0.0,0.0,0.0,0.0,0.0,-0.2147,-0.1814,-0.1949,-0.2813,-0.2783,-0.3021,-0.3756,-0.5705,-0.7395,0.0,0.0,0.0,0.0,0.0,0.0,0.0,0.0,0.0,0.0,0.0,0.0,0.0,0.0,0.0,0.0,0.0,0.0,0.0,0.0,0.0,0.0,0.0,0.0,0.0,0.0,0.0,0.0,0.0,0.0,0.0,0.0,0.0,0.0,0.0,0.0,0.0,0.0,0.0,0.0,0.0,0.0,0.0,0.0,0.0,0.0,0.0,0.0,0.0,0.0,0.0,0.0,0.0,0.0,0.0,0.0,0.0,0.0,0.0,0.0,0.0,0.0,0.0,0.0,0.0,0.0,0.0,0.0,0.0,0.0,0.0,0.0,0.0,0.0,0.0,0.0,0.0,0.0,0.0,0.0,0.0,0.0,0.0,0.0,0.0,0.0,0.0,0.0,0.0,0.0,0.0,0.0,0.0,0.0,0.0,0.0,0.0,0.0,0.0,0.0,0.0,0.0,0.0,-0.1882,-0.2586,-0.3255,-0.352,-0.3489,-0.3756,-0.4461,-0.5547,-0.6743,-0.8055,0.0,0.0,0.0,0.0,0.0,0.0,0.0,0.0,0.0,0.0,0.0,0.0,0.0,0.0,0.0,0.0,0.0,0.0,0.0,0.0,0.0,0.0,0.0,0.0,0.0,0.0,0.0,0.0,0.0,0.0,0.0,0.0,0.0,0.0,0.0,0.0,0.0,0.0,0.0,0.0,0.0,0.0,0.0,0.0,0.0,0.0,0.0,0.0,0.0,0.0,0.0,0.0,0.0,0.0,0.0,0.0,0.0,0.0,0.0,0.0,0.0,0.0,0.0,0.0,0.0,0.0,0.0,0.0,0.0,0.0,0.0,0.0,0.0,0.0,0.0,0.0,0.0,0.0,0.0,0.0,0.0,0.0,0.0,0.0,0.0,0.0,0.0,0.0,0.0,0.0,0.0,0.0,0.0,0.0,0.0,0.0,0.0,0.0,0.0,0.0,0.0,0.0,-0.2116,-0.2887,-0.3525,-0.3656,-0.3623,-0.372,-0.4123,-0.508,-0.6224,-0.7553,0.0,0.0,0.0,0.0,0.0,0.0,0.0,0.0,0.0,0.0,0.0,0.0,0.0,0.0,0.0,0.0,0.0,0.0,0.0,0.0,0.0,0.0,0.0,0.0,0.0,0.0,0.0,0.0,0.0,0.0,0.0,0.0,0.0,0.0,0.0,0.0,0.0,0.0,0.0,0.0,0.0,0.0,0.0,0.0,0.0,0.0,0.0,0.0,0.0,0.0,0.0,0.0,0.0,0.0,0.0,0.0,0.0,0.0,0.0,0.0,0.0,0.0,0.0,0.0,0.0,0.0,0.0,0.0,0.0,0.0,0.0,0.0,0.0,0.0,0.0,0.0,0.0,0.0,0.0,0.0,0.0,0.0,0.0,0.0,0.0,0.0,0.0,0.0,0.0,0.0,0.0,0.0,0.0,0.0,0.0,0.0,0.0,0.0,0.0,0.0,0.0,0.0,-0.2653,-0.2921,-0.319,-0.3522,-0.3384,-0.3251,-0.3284,-0.4447,-0.5705,-0.6981,0.0,0.0,0.0,0.0,0.0,0.0,0.0,0.0,0.0,0.0,0.0,0.0,0.0,0.0,0.0,0.0,0.0,0.0,0.0,0.0,0.0,0.0,0.0,0.0,0.0,0.0,0.0,0.0,0.0,0.0,0.0,0.0,0.0,0.0,0.0,0.0,0.0,0.0,0.0,0.0,0.0,0.0,0.0,0.0,0.0,0.0,0.0,0.0,0.0,0.0,0.0,0.0,0.0,0.0,0.0,0.0,0.0,0.0,0.0,0.0,0.9055,0.0,0.0,0.0,0.0,0.0,0.0,0.0,0.0,0.0,0.0,0.0,0.0,0.0,0.0,0.0,0.0,0.0,0.0,0.0,0.0,0.0,0.0,0.0,0.0,0.0,0.0,0.0,0.0,0.0,0.0,0.0,0.0,0.0,0.0,0.0,0.0,0.0,0.0,0.0,0.0,0.0,-0.2686,-0.3255,-0.3692,-0.3859,-0.3758,-0.3723,-0.3825,-0.4092,-0.4752,-0.5877,-0.6804,0.0,0.0,0.0,0.0,0.0,0.0,0.0,0.0,0.0,0.0,0.0,0.0,0.0,0.0,0.0,0.0,0.0,0.0,0.0,0.0,0.0,0.0,0.0,0.0,0.0,0.0,0.0,0.0,0.0,0.0,0.0,0.0,0.0,0.0,0.0,0.0,0.0,0.0,0.0,0.0,0.0,0.0,0.0,0.0,0.0,0.0,0.0,0.0,0.0,0.0,0.0,0.0,0.0,0.0,0.0,0.0,0.0,0.0,0.0,0.0,0.8745,0.0,0.0,0.0,0.0,0.0,0.0,0.0,0.0,0.0,0.0,0.0,0.0,0.0,0.0,0.0,0.0,0.0,0.0,0.0,0.0,0.0,0.0,0.0,0.0,0.0,0.0,0.0,0.0,0.0,0.0,0.0,0.0,0.0,0.0,0.0,0.0,0.0,0.0,0.0,0.0,-0.2686,-0.3257,-0.3727,-0.3892,-0.3859,-0.3825,-0.3892,-0.3892,-0.4289,-0.515,-0.6027,0.0,0.0,0.0,0.0,0.0,0.0,0.0,0.0,0.0,0.0,0.0,0.0,0.0,0.0,0.0,0.0,0.0,0.0,0.0,0.0,0.0,0.0,0.0,0.0,0.0,0.0,0.0,0.0,0.0,0.0,0.0,0.0,0.0,0.0,0.0,0.0,0.0,0.0,0.0,0.0,0.0,0.0,0.0,0.0,0.0,0.0,0.0,0.0,0.0,0.0,0.0,0.0,0.0,1.0143,0.9993,0.9505,0.9578,0.9876,1.0308,0.9533,0.9076,0.8862,0.8618,0.0,0.0,0.0,0.0,0.0,0.0,0.0,0.0,0.0,0.0,0.0,0.0,0.0,0.0,0.0,0.0,0.0,0.0,0.0,0.0,0.0,0.0,0.0,0.0,-0.1261,-0.1725,-0.2577,0.0,0.0,0.0,0.0,0.0,0.0,0.0,0.0,0.0,0.0,0.0,-0.2753,-0.3159,-0.3529,-0.3725,-0.3725,-0.3725,-0.3758,-0.3758,-0.4025,-0.4616,-0.5533,-0.6412,0.0,0.0,0.0,0.0,0.0,0.0,0.0,0.0,0.0,0.0,0.0,0.0,0.0,0.0,0.0,0.0,0.0,0.0,0.0,0.0,0.0,0.0,0.0,0.0,0.0,0.0,0.0,0.0,0.0,0.0,0.0,0.0,2.0771,2.0591,0.0,0.0,0.0,0.0,0.0,0.0,0.0,0.0,0.0,0.0,0.0,0.0,0.0,1.2073,1.1045,1.158,1.1193,0.99,1.0638,1.0767,1.0349,1.0685,1.0895,1.0956,1.0847,0.0,0.921,0.8844,0.0,0.0,0.0,0.0,0.0,0.0,0.0,0.0,0.0,0.0,0.0,0.0,0.0,0.0,0.0,0.0,0.0,0.0,0.0,0.0,0.0,0.0,-0.0297,-0.0531,-0.063,-0.0871,0.0,-0.2074,-0.2344,-0.2369,-0.2401,0.0,0.0,0.0,0.0,0.0,0.0,0.0,-0.3125,-0.3192,-0.3328,-0.3531,-0.3395,-0.3362,-0.3531,-0.3531,-0.3696,-0.4095,-0.4386,-0.5302,-0.6902,-0.713,0.0,0.0,0.0,0.0,0.0,0.0,0.0,0.0,0.0,0.0,0.0,0.0,0.0,0.0,0.0,0.0,0.0,0.0,0.0,0.0,0.0,0.0,0.0,0.0,0.0,0.0,0.0,0.0,0.0,2.1008,2.0228,1.9088,1.9931,2.0424,0.0,0.0,0.0,0.0,0.0,0.0,0.0,0.0,0.0,1.2678,1.2456,1.1923,1.101,1.1347,1.1186,1.0588,1.0925,1.0999,1.085,1.1037,1.1111,1.1074,1.0625,1.0137,0.9609,0.9463,0.8889,0.808,0.0,0.0,0.0,0.0,0.6834,0.6668,0.5676,0.504,0.4523,0.3929,0.0,0.0,0.0,0.0,0.0,0.0,0.0,0.095,0.0,0.0,-0.0113,-0.0479,-0.0652,-0.0818,-0.1073,-0.1394,-0.1715,0.0,-0.1783,-0.1546,-0.2016,0.0,0.0,0.0,0.0,-0.2217,-0.245,-0.272,-0.3023,-0.3295,-0.3261,-0.3228,-0.3328,-0.3328,-0.3395,-0.3527,-0.3925,-0.4486,-0.5239,-0.5731,-0.6515,0.0,0.0,0.0,0.0,0.0,0.0,0.0,0.0,0.0,0.0,0.0,0.0,0.0,0.0,0.0,0.0,0.0,0.0,0.0,0.0,0.0,0.0,0.0,0.0,0.0,0.0,0.0,0.0,2.0354,1.971,1.839,1.9168,1.9584,0.0,0.0,0.0,0.0,0.0,0.0,1.4228,1.4114,1.3403,1.1885,1.2003,1.1781,1.1186,1.1223,1.126,1.126,1.1186,1.1186,1.1186,1.1111,1.1111,1.1074,1.0481,1.0105,0.9884,0.9463,0.8889,0.8199,0.771,0.7442,0.7288,0.6795,0.6606,0.649,0.5628,0.4963,0.4363,0.3755,0.2859,0.2088,0.2626,0.0,0.0,0.0,0.0,0.0555,-0.019,-0.0115,0.0038,-0.0417,-0.0597,-0.0693,-0.0776,-0.0793,-0.0983,0.0,-0.1143,-0.0773,-0.1143,0.0,0.0,0.0,0.0,-0.1242,-0.1678,-0.2082,-0.2487,-0.2891,-0.296,-0.296,-0.296,-0.3025,-0.3058,-0.3058,-0.3527,-0.3861,-0.3995,-0.4619,-0.5276,-0.5895,0.0,0.0,0.0,0.0,0.0,0.0,0.0,0.0,0.0,0.0,0.0,0.0,0.0,0.0,0.0,0.0,0.0,0.0,0.0,0.0,0.0,0.0,0.0,0.0,0.0,0.0,0.0,0.0,0.0,1.9058,1.8435,0.0,0.0,0.0,0.0,1.8398,1.7288,1.5974,1.4641,1.3932,1.2887,1.1484,1.1446,1.1446,1.1409,1.1558,1.1669,1.1669,1.1484,1.1372,1.1372,1.1186,1.1111,1.1111,1.1074,1.0625,0.9765,0.8246,0.8016,0.8585,0.7787,0.794,0.8508,0.771,0.7446,0.733,0.6528,0.5198,0.383,0.3787,0.3205,0.2456,0.228,0.2676,0.0,0.0,0.0981,0.1176,0.0428,0.0118,-0.0039,-0.0267,-0.0189,-0.0186,-0.0673,-0.042,-0.0139,0.0,-0.037,-0.0269,-0.0101,0.0,-0.0134,-0.0469,-0.0536,-0.0738,-0.1277,-0.1344,-0.158,-0.2186,-0.2255,-0.2255,-0.2255,-0.2554,-0.272,-0.272,-0.3058,-0.346,-0.3995,-0.4028,-0.4456,-0.5342,-0.6412,0.0,0.0,0.0,0.0,0.0,0.0,0.0,0.0,0.0,0.0,0.0,0.0,0.0,0.0,0.0,0.0,0.0,0.0,0.0,0.0,0.0,0.0,0.0,0.0,0.0,0.0,0.0,0.0,1.8617,1.8517,0.0,1.8734,1.8258,1.7504,1.6436,1.6044,1.5021,1.3237,1.3818,1.3448,1.1855,1.2285,1.2505,1.2352,1.2432,1.2615,1.2879,1.2652,1.2365,1.1966,1.1781,1.1595,1.1484,1.1484,1.1335,1.0962,0.9895,0.9145,0.8627,0.7825,0.7676,0.7825,0.7026,0.6718,0.6602,0.5744,0.5082,0.4455,0.375,0.2974,0.2271,0.2056,0.178,0.1394,0.062,0.0543,0.0621,0.0196,0.0039,0.0,-0.0078,-0.0153,-0.0262,-0.0434,-0.0071,0.0278,0.0101,0.037,0.0638,0.0706,0.1109,0.1344,0.1074,0.0839,0.0504,0.0101,-0.0538,-0.1008,-0.1107,-0.1747,-0.2052,-0.1648,-0.2085,-0.2453,-0.2686,-0.2622,-0.2824,-0.346,-0.3291,-0.3422,-0.3923,-0.4649,-0.5375,0.0,0.0,0.0,0.0,0.0,0.0,0.0,0.0,0.0,0.0,0.0,0.0,0.0,0.0,0.0,0.0,0.0,0.0,0.0,0.0,0.0,0.0,0.0,0.0,0.0,0.0,1.903,1.8782,1.868,1.8553,1.8293,1.8003,1.7189,1.5693,1.5658,1.4879,1.2996,1.3818,1.3673,1.2261,1.2732,1.2908,1.2799,1.2879,1.2989,1.3178,1.2989,1.2659,1.2194,1.2003,1.1818,1.1706,1.1706,1.1706,1.1669,1.113,1.0421,0.9566,0.8237,0.7706,0.7595,0.6795,0.6451,0.6257,0.5315,0.5004,0.4846,0.3867,0.3168,0.2702,0.2584,0.2154,0.1646,0.1528,0.1411,0.1293,0.1097,0.0784,0.051,0.0471,0.0116,-0.0228,-0.0297,-0.0036,0.0317,0.0582,0.1116,0.1478,0.1311,0.1883,0.2287,0.2052,0.1783,0.1446,0.1008,0.0336,-0.0101,-0.0168,-0.0839,-0.121,-0.0975,-0.1344,-0.1849,-0.2487,-0.2186,-0.2354,-0.3159,-0.2889,-0.2855,-0.3192,-0.3892,-0.4785,-0.584,0.0,0.0,0.0,0.0,0.0,0.0,0.0,0.0,0.0,0.0,0.0,0.0,0.0,0.0,0.0,0.0,0.0,0.0,0.0,0.0,0.0,0.0,0.0,2.0488,1.996,1.9572,1.9572,1.8808,1.8428,1.8734,1.8138,1.732,1.6376,1.6341,1.571,1.4238,1.3977,1.3506,1.2673,1.2636,1.2636,1.2636,1.2826,1.2826,1.2636,1.2452,1.2261,1.204,1.1818,1.1744,1.1744,1.1744,1.1706,1.1706,1.1706,1.1706,1.1477,0.9102,0.8156,0.808,0.7246,0.6788,0.6444,0.5392,0.5043,0.4924,0.4144,0.3869,0.383,0.383,0.383,0.3791,0.3791,0.3595,0.3361,0.313,0.235,0.1568,0.1371,0.0706,0.0039,-0.0152,-0.0185,0.0108,0.1127,0.1951,0.2283,0.1715,0.2217,0.2586,0.2255,0.2188,0.0,0.1412,0.1311,0.1109,0.0605,0.0538,0.0302,-0.0202,-0.0269,-0.084,-0.2087,-0.1817,-0.2084,-0.3125,-0.2889,-0.2855,-0.3226,-0.4287,-0.5481,-0.6848,0.0,0.0,0.0,0.0,0.0,0.0,0.0,0.0,0.0,0.0,0.0,0.0,0.0,0.0,0.0,0.0,0.0,0.0,0.0,0.0,0.0,2.1424,2.0651,2.0568,1.9553,1.8785,1.8674,1.8313,1.811,1.8202,1.7886,1.7423,1.6793,1.7226,1.6837,1.5215,1.5578,1.5144,1.3644,1.3651,1.3695,1.3695,1.3731,1.3804,1.3833,1.3688,1.3542,1.3426,1.2703,1.2592,1.2989,1.2409,1.215,1.215,1.215,1.215,1.1966,1.0453,0.9744,0.9453,0.8046,0.7061,0.6335,0.606,0.5944,0.5906,0.567,0.5198,0.4652,0.4652,0.4261,0.3752,0.3556,0.3363,0.313,0.2935,0.2582,0.2231,0.2192,0.1996,0.1789,0.1745,0.2071,0.2308,0.2075,0.2976,0.3491,0.2552,0.2552,0.2586,0.2255,0.2188,0.0,0.1985,0.158,0.1412,0.1715,0.1008,0.0605,0.084,0.0134,-0.0538,-0.1143,-0.1446,-0.1983,-0.2787,-0.2753,-0.3056,-0.3761,-0.4821,-0.558,0.0,0.0,0.0,0.0,0.0,0.0,0.0,0.0,0.0,0.0,0.0,0.0,0.0,0.0,0.0,0.0,0.0,0.0,0.0,0.0,0.0,0.0,2.0835,2.0279,2.0193,1.9353,1.864,1.8405,1.8279,1.8178,1.8144,1.8032,1.7706,1.7139,1.7432,1.7044,1.5772,1.6026,1.5745,1.4752,1.4438,1.4294,1.4294,1.3912,1.3768,1.384,1.3586,1.3433,1.3397,1.2849,1.2739,1.2989,1.2592,1.2378,1.2305,1.2305,1.2305,0.0,0.0,0.0,0.0,0.0,0.7663,0.7134,0.6679,0.6486,0.6412,0.6412,0.6022,0.5553,0.5553,0.5201,0.4807,0.4649,0.4533,0.438,0.4068,0.3636,0.3242,0.3088,0.2776,0.2493,0.2496,0.278,0.2968,0.2785,0.3375,0.0,0.3261,0.3155,0.3021,0.269,0.2488,0.2421,0.2421,0.1983,0.1817,0.2154,0.1614,0.1244,0.1311,0.0874,0.0,0.0,0.0,-0.0974,-0.2082,-0.2619,0.0,0.0,0.0,-0.5481,-0.5951,-0.6251,0.0,0.0,-0.7117,-0.7205,0.0,0.0,0.0,0.0,0.0,0.0,0.0,0.0,0.0,0.0,0.0,0.0,0.0,0.0,0.0,0.0,2.0558,1.9704,1.9605,1.9308,1.8975,1.8583,1.8516,1.8482,1.8337,1.8303,1.809,1.755,1.7354,1.6932,1.6254,0.0,0.0,0.0,0.0,1.4708,1.4708,1.3905,1.3477,1.3448,1.3003,1.282,1.2893,1.2709,1.2599,1.2519,1.2599,1.2526,1.2378,1.2378,1.2342,1.2261,1.1484,1.1149,1.0881,0.9253,0.8571,0.8342,0.7357,0.0,0.0,0.6602,0.6451,0.63,0.63,0.63,0.63,0.63,0.6261,0.6141,0.5754,0.5082,0.445,0.4103,0.3402,0.2817,0.2817,0.2801,0.292,0.3433,0.3522,0.3602,0.3809,0.3825,0.3658,0.3259,0.2956,0.2753,0.2753,0.2453,0.2255,0.2255,0.0,0.0,0.1446,0.1681,0.1344,0.0202,0.0605,0.0235,-0.1244,-0.2554,-0.3689,-0.4649,-0.4749,-0.5282,-0.6218,-0.6284,-0.6284,-0.6218,-0.6651,-0.6716,0.0,0.0,0.0,0.0,0.0,0.0,0.0,0.0,0.0,0.0,0.0,0.0,0.0,0.0,0.0,2.1049,2.057,2.0226,1.9671,1.9308,1.9008,1.8774,1.8741,1.8684,1.8482,1.8448,1.8371,1.8124,1.809,1.792,1.7647,1.701,1.6655,1.6655,1.5913,1.5498,1.5498,1.5321,1.5144,1.5037,0.0,0.0,1.4661,1.3397,1.3185,1.3731,1.3112,1.2826,1.2783,1.2783,1.2673,1.2489,1.2003,1.1434,1.0789,1.0297,0.9664,0.8993,0.797,0.7591,0.7437,0.6602,0.6338,0.63,0.63,0.63,0.0,0.63,0.6141,0.5941,0.5864,0.5592,0.5359,0.5285,0.5007,0.4771,0.4771,0.453,0.4383,0.4421,0.4376,0.4261,0.4219,0.3995,0.3658,0.3259,0.3159,0.3092,0.3092,0.2822,0.2587,0.2587,0.2354,0.2154,0.2052,0.1648,0.1311,0.1076,0.0101,-0.0706,-0.1277,-0.2684,-0.3553,-0.3751,-0.445,-0.4915,-0.5113,-0.555,-0.5517,-0.5147,-0.605,-0.6618,0.0,0.0,0.0,0.0,0.0,0.0,0.0,0.0,0.0,0.0,0.0,2.2977,2.1892,0.0,2.1768,2.0463,2.0183,1.9977,1.9638,1.9308,1.9042,1.8808,1.8808,1.8741,1.864,1.8549,1.8516,1.8539,1.8022,1.7672,1.7545,1.6837,1.6629,1.701,1.6341,1.6193,1.6541,1.5974,1.5728,1.5728,1.5065,1.476,1.4732,1.3941,1.355,1.3477,1.3193,1.2973,1.29,1.279,1.2673,1.2562,1.2268,1.1885,1.1502,1.0987,1.0539,1.0051,0.9031,0.8689,0.8575,0.7897,0.7365,0.7022,0.6949,0.6606,0.63,0.63,0.6219,0.606,0.5941,0.5825,0.5712,0.5637,0.5521,0.544,0.5321,0.5156,0.4998,0.4802,0.4681,0.4558,0.444,0.4201,0.3995,0.3797,0.3594,0.3491,0.3491,0.342,0.3253,0.2989,0.2889,0.2755,0.2487,0.2017,0.1749,0.1749,0.0638,-0.0202,-0.0638,-0.178,-0.2649,-0.3182,-0.3613,-0.4079,-0.455,-0.4818,-0.4885,-0.4815,-0.5348,-0.5679,0.0,0.0,0.0,0.0,0.0,0.0,0.0,0.0,2.2701,2.3007,2.264,2.197,2.1115,2.1345,2.1302,2.0129,1.99,1.9802,1.9671,1.9374,1.9075,1.8908,1.8875,1.8841,1.8808,1.8674,1.865,1.8741,1.7944,1.7423,1.7354,1.6802,1.6768,1.7354,1.6793,1.6759,1.7335,1.6245,1.579,1.5939,1.5517,1.5029,1.4581,1.4581,1.4086,1.3222,1.3266,1.3156,1.301,1.2783,1.2709,1.2709,1.2489,1.2415,1.2342,1.1595,1.1335,1.118,1.0196,0.982,0.9744,0.9221,0.858,0.8012,0.7825,0.7215,0.6528,0.6528,0.6416,0.6261,0.6022,0.598,0.5941,0.5792,0.5715,0.5595,0.5401,0.5321,0.5206,0.4857,0.4809,0.4756,0.4525,0.4475,0.4431,0.43,0.4064,0.3892,0.3892,0.392,0.3754,0.3259,0.3288,0.3155,0.2653,0.2354,0.2188,0.2188,0.1379,0.0706,0.0269,-0.0672,-0.1612,-0.2479,-0.2681,-0.3149,-0.3887,-0.4054,-0.422,-0.4384,-0.455,-0.4716,2.5673,2.5481,2.5384,2.4595,2.4709,2.4667,0.0,0.0,2.267,2.2304,2.1947,2.1553,2.1155,2.1616,2.1616,2.0291,2.0453,2.055,1.9966,1.955,1.9285,1.9252,1.9142,1.9008,1.8808,1.8942,1.8875,1.8549,1.8573,1.8539,1.8337,1.8269,1.8269,1.8337,1.7491,1.7035,1.7139,1.6193,1.571,1.5745,1.5675,1.5604,1.5534,1.5534,1.5144,1.4358,1.3731,1.3455,1.3419,1.3229,1.3119,1.3119,1.29,1.282,1.2783,1.2342,1.215,1.204,1.1013,1.0671,1.0527,0.9561,0.9074,0.8846,0.8846,0.8127,0.7369,0.7369,0.6834,0.63,0.6261,0.6261,0.6261,0.6222,0.6022,0.5825,0.5598,0.544,0.5206,0.4857,0.5066,0.5149,0.4595,0.4778,0.4858,0.4367,0.4267,0.4233,0.4233,0.3995,0.3658,0.3259,0.2956,0.2654,0.2287,0.2221,0.2188,0.2188,0.1614,0.121,0.1143,-0.0134,-0.0907,-0.1041,-0.1849,-0.2321,-0.2421,-0.3222,-0.3353,-0.2954,-0.3725,-0.4356,2.5646,2.5467,2.5328,0.0,2.4205,2.4015,2.3437,2.2932,2.2531,2.2421,2.2439,2.2194,2.1282,2.1647,2.1647,0.0,2.0161,2.0226,1.9933,1.9539,1.9341,1.9473,1.9241,1.9075,1.8975,1.8942,1.8875,1.8684,1.825,1.7935,1.7867,1.755,1.755,1.7833,1.7594,1.7604,1.791,1.7467,1.7217,1.7217,1.6655,1.6411,1.6376,1.5913,1.5313,1.4565,1.3811,1.3492,1.3499,1.3273,1.32,1.32,1.2973,1.29,1.2863,1.2562,1.2489,1.2378,1.1737,1.1583,1.1545,1.0763,1.0233,0.982,0.9609,0.8889,0.8208,0.8208,0.794,0.7599,0.7103,0.6988,0.6872,0.6412,0.6219,0.6025,0.5676,0.5521,0.5464,0.5443,0.5414,0.5428,0.5577,0.5579,0.5388,0.4861,0.4498,0.43,0.43,0.4461,0.4323,0.372,0.3255,0.279,0.2255,0.2554,0.2621,0.2221,0.2318,0.208,0.1344,0.0739,0.0134,-0.0504,-0.0908,-0.1344,-0.185,-0.2217,-0.2385,-0.2421,-0.2989,-0.3355,2.5851,0.0,0.0,2.465,2.4044,2.3645,2.3704,2.3113,2.2586,2.2829,2.2847,2.2531,2.1553,2.1616,2.1396,2.0161,1.9976,1.9933,1.99,1.9605,1.9417,1.9506,1.9274,1.9108,1.9108,1.8975,1.8875,1.8808,1.8206,1.7857,1.7857,1.7507,1.7438,1.7789,1.7662,1.7774,1.8124,1.7774,1.7569,1.756,1.6897,1.6585,1.655,1.5772,1.51,1.4565,1.3811,1.3492,1.3492,1.3346,1.3273,1.3273,1.3119,1.3083,1.3046,1.2826,1.2709,1.2562,1.2268,1.2231,1.2224,1.1781,1.1285,1.0795,1.0475,0.976,0.9046,0.9046,0.8856,0.8546,0.7978,0.7825,0.7672,0.7103,0.6799,0.6528,0.6135,0.5789,0.5637,0.5709,0.5591,0.5564,0.5882,0.5935,0.577,0.5193,0.4894,0.4634,0.4334,0.4561,0.4553,0.4018,0.3422,0.2857,0.2388,0.2686,0.2785,0.2487,0.2753,0.2582,0.1847,0.1479,0.0874,-0.0067,-0.0235,-0.0672,-0.1446,-0.1547,-0.1749,-0.2052,-0.2218,-0.2318,0.0,0.0,2.5825,2.5522,2.4863,2.4234,2.4102,2.3458,2.3022,2.3467,2.2798,2.2113,2.2082,2.1553,2.0912,2.0205,2.0074,2.0042,1.99,1.9704,1.9506,1.9318,1.9175,1.9108,0.0,1.9098,1.9008,1.8808,1.8931,1.9031,1.9031,1.9031,1.8942,1.8774,1.7891,1.731,1.7148,1.6237,1.5781,1.5781,1.5745,1.5745,1.571,1.4958,1.4601,1.4565,1.3811,1.3492,1.3492,1.3492,1.3492,1.3492,1.3499,1.3499,1.3455,1.3273,1.2936,1.2599,1.2599,1.2452,1.2305,1.2268,1.2003,1.1669,1.1632,1.0812,0.9884,0.9884,0.9311,0.8699,0.8665,0.8665,0.8665,0.8627,0.8016,0.7403,0.7203,0.6325,0.5559,0.5359,0.5477,0.5414,0.4851,0.5495,0.5855,0.5209,0.5521,0.5462,0.4434,0.4028,0.3823,0.3792,0.3155,0.272,0.2686,0.2421,0.2487,0.3115,0.2586,0.252,0.3115,0.1947,0.1042,0.047,-0.0034,-0.0571,-0.1109,-0.1446,-0.1614,-0.1614,-0.1446,-0.1344,0.0,0.0,2.5564,2.5244,2.4736,2.4321,2.4392,2.3956,2.3573,2.3865,2.3645,2.3292,2.2847,2.2237,2.1553,2.088,2.0324,1.9933,1.99,1.9605,1.9384,1.9318,1.9175,0.0,0.0,0.0,0.0,1.8998,1.9075,1.9108,1.9108,1.9108,1.9008,1.8808,1.8486,1.8216,1.8022,1.7706,1.7569,1.756,1.7044,1.6324,1.5365,1.5125,1.4939,1.476,1.4029,1.3608,1.3492,1.3492,1.3492,1.3492,1.3492,1.3492,1.3492,1.3419,1.3236,1.2973,1.2673,1.2489,1.2268,1.215,1.2003,1.1744,1.0962,1.0775,1.0775,1.0105,1.0099,1.0175,0.9647,0.9501,0.9349,0.8818,0.8513,0.8089,0.7357,0.6934,0.6514,0.6012,0.597,0.5973,0.5863,0.6375,0.6683,0.6238,0.602,0.5756,0.5392,0.4957,0.4589,0.4359,0.3558,0.2956,0.272,0.2785,0.2787,0.2554,0.2753,0.2753,0.2554,0.2119,0.1614,0.1042,0.0504,-0.0034,-0.0571,-0.1042,-0.1277,-0.1277,-0.1076,-0.0975,0.0,2.5688,2.5411,2.5061,2.4765,2.4565,2.4578,2.4319,2.4099,2.4112,2.3953,2.359,2.2877,2.2267,2.1678,2.1187,2.0656,2.028,2.0183,1.9944,1.9627,1.9274,1.9142,1.917,0.0,0.0,0.0,1.9108,1.9108,1.9108,1.9108,1.9108,1.9008,1.8808,1.8808,1.8573,1.81,1.81,1.7852,1.7329,1.7019,1.6289,1.5204,1.5125,1.5054,1.4947,1.4145,1.3717,1.3608,1.3535,1.3492,1.3492,1.3492,1.3492,1.3492,1.3492,1.3382,1.3163,1.2826,1.2562,1.2378,1.215,1.2077,1.1855,1.1074,1.1149,1.1372,1.0738,1.085,1.1074,1.0556,1.0368,1.0212,0.9685,0.9344,0.8965,0.8313,0.7889,0.7506,0.708,0.6695,0.641,0.6342,0.6572,0.6647,0.6432,0.628,0.6119,0.5921,0.5591,0.5289,0.509,0.4389,0.372,0.3218,0.3351,0.3218,0.2586,0.2852,0.2885,0.2554,0.2321,0.1918,0.1311,0.0975,0.0538,0.0,-0.0538,-0.0807,-0.0807,-0.047,-0.0336,2.6069,2.5674,2.5411,2.5075,2.5005,2.492,2.4677,2.4591,2.4505,2.4171,2.3708,2.3105,0.0,0.0,2.1388,2.1123,2.104,2.0901,2.059,2.0526,2.0182,0.0,0.0,0.0,0.0,0.0,0.0,1.9139,0.0,1.9108,1.9108,1.9108,1.9008,1.8808,1.8808,1.8395,1.751,1.7442,1.6673,1.524,1.5762,1.5692,1.5169,1.4974,1.4982,1.5098,1.4217,1.3826,1.3797,1.3608,1.3528,1.3499,1.3492,1.3492,1.3492,1.3492,1.3382,1.3193,1.2973,1.2783,1.2562,1.2378,1.2194,1.2003,1.1966,1.1818,1.1706,1.1669,1.1521,1.1409,1.1409,1.126,1.1111,1.1111,1.0513,0.9954,0.9922,0.915,0.8456,0.8418,0.7617,0.6787,0.6353,0.6078,0.5933,0.5925,0.635,0.6478,0.5987,0.5925,0.5925,0.5921,0.5547,0.4942,0.4115,0.3982,0.3749,0.3215,0.2852,0.2818,0.3149,0.2554,0.1918,0.1344,0.1311,0.1042,0.0538,0.0,-0.0269,-0.0302,0.0269,0.0538,2.5771,2.5369,2.5103,2.5033,2.5005,2.4948,2.4778,2.4677,2.452,2.4305,2.4147,2.38,0.0,0.0,0.0,2.1083,2.041,0.0,1.9857,1.9726,0.0,1.9473,0.0,1.9429,1.9899,1.9757,0.0,0.0,1.9295,1.9108,1.9108,1.9108,1.9075,1.9042,1.9008,1.8908,1.8664,1.8114,1.7113,1.5657,1.5798,1.5488,1.474,1.4705,1.4641,1.4605,1.4353,1.4173,1.3992,1.3826,1.3717,1.3717,1.3572,1.3492,1.3492,1.3492,1.3455,1.3382,1.3193,1.2973,1.279,1.2599,1.2489,1.2261,1.1391,1.1508,1.1781,1.1019,1.1211,1.1595,1.1446,1.1372,1.1298,1.1149,1.0925,1.0625,1.003,0.969,0.9301,0.8533,0.774,0.7278,0.7548,0.6788,0.6195,0.6465,0.6284,0.6185,0.6445,0.6152,0.6053,0.6445,0.5774,0.5077,0.4489,0.3954,0.3384,0.2852,0.252,0.2354,0.2453,0.2287,0.212,0.1985,0.1513,0.1244,0.1109,0.0571,0.0101,-0.0269,0.0672,0.0874,2.5825,2.5355,2.5005,2.5005,2.5005,2.4948,2.4835,2.4721,2.4635,2.4478,2.4205,0.0,2.3284,0.0,0.0,0.0,0.0,0.0,2.0194,2.0064,1.9868,0.0,1.9374,0.0,2.0136,1.9952,1.9958,0.0,1.9782,1.9316,1.9119,1.9108,1.9108,1.9108,1.9108,1.8931,1.862,1.755,1.662,1.5798,1.57,1.5488,1.5133,1.5034,1.4991,1.4991,0.0,1.4281,1.4093,1.3891,1.3761,1.3645,1.3535,1.3492,1.3492,1.3492,1.3492,1.3499,1.3382,1.3273,1.3083,1.2709,1.2599,1.2452,1.1694,1.1774,1.2003,1.1434,1.1545,1.1781,1.1595,1.1484,1.126,1.07,1.0556,1.0363,0.9539,0.9652,0.9728,0.915,0.8263,0.7586,0.7722,0.6863,0.6135,0.6006,0.6148,0.6181,0.6013,0.6148,0.6445,0.7003,0.6568,0.6005,0.5319,0.4649,0.3951,0.3119,0.2654,0.2354,0.2221,0.2188,0.2188,0.2188,0.1884,0.1681,0.1681,0.1143,0.0571,0.0067,0.0672,0.0773,2.5975,2.5425,2.5005,2.5005,2.5005,2.4977,2.4835,2.4806,2.475,2.4563,0.0,2.3636,2.3314,2.2286,2.1628,2.1916,0.0,2.0912,2.0764,2.0743,2.0377,1.9473,1.9318,1.9607,2.0373,2.0114,2.0203,2.1052,2.0327,1.9679,1.9222,1.9029,1.8898,1.8798,1.8798,1.8486,1.7867,1.649,1.5798,1.5798,1.5524,1.5453,1.5621,1.5461,1.5497,1.5586,1.4776,1.4317,1.4165,1.3964,1.3754,1.3564,1.3564,1.3528,1.3492,1.3492,1.3492,1.3492,1.3492,1.3492,1.3419,1.2856,1.2673,1.2636,1.2415,1.2342,1.2342,1.2305,1.215,1.2003,1.1781,1.1595,1.1223,1.018,0.996,0.9728,0.8889,0.9236,0.9765,0.9884,0.8921,0.7979,0.7691,0.6915,0.6124,0.5479,0.6013,0.6178,0.5322,0.6013,0.6806,0.7326,0.7391,0.7064,0.6239,0.5675,0.4845,0.3651,0.3052,0.2586,0.2221,0.2188,0.2188,0.2188,0.2188,0.2188,0.2188,0.1681,0.1143,0.0605,0.0605,0.0571,2.5757,2.53,2.5005,2.5005,2.5005,2.4977,2.4977,2.4863,0.0,0.0,2.4305,2.4131,2.316,2.2531,2.1966,2.1373,0.0,0.0,0.0,0.0,1.9835,0.0,0.0,0.0,0.0,0.0,0.0,0.0,2.0617,2.012,1.9699,1.872,1.7901,1.731,1.7276,1.7207,1.707,1.6245,1.5798,1.5798,1.5098,1.4784,1.482,1.4784,1.4784,1.4812,1.4641,0.0,1.4497,1.4361,1.4173,1.3992,1.3819,1.3645,1.3492,1.3492,1.3492,1.3492,1.3492,1.3492,1.3455,1.32,1.3083,1.3046,1.2673,1.2562,1.2526,1.2342,1.2268,1.2187,1.2003,1.1929,1.1595,1.0438,1.0143,0.9879,0.8927,0.8813,0.9122,0.9765,0.946,0.9114,0.9322,0.8363,0.7402,0.6924,0.6013,0.5484,0.5723,0.5921,0.6247,0.6773,0.6839,0.6773,0.6605,0.6108,0.5243,0.3982,0.3416,0.2852,0.2221,0.2188,0.2188,0.2188,0.2188,0.2188,0.2188,0.2087,0.1748,0.1176,0.1176,0.0908,2.5825,2.5508,2.5229,2.5033,2.5005,2.5005,2.5005,0.0,0.0,0.0,2.3666,2.3203,2.3155,0.0,0.0,0.0,0.0,0.0,0.0,0.0,0.0,0.0,0.0,0.0,0.0,0.0,0.0,2.1073,2.0504,2.0042,1.9799,1.9009,1.824,1.7491,1.7482,1.7276,1.6897,1.6175,1.6,1.635,1.5161,1.4812,1.5196,1.4776,1.4605,1.4605,1.4605,1.4569,1.4497,1.4433,1.4281,1.4093,1.3992,1.3891,1.3811,1.3674,1.3645,1.3645,1.3535,1.3492,1.3499,1.3382,1.3309,1.3119,1.2863,1.2753,1.2709,1.2526,1.2452,1.2378,1.2077,1.2003,1.1706,1.0475,0.9496,0.8775,0.8699,0.836,0.8322,0.9122,0.8694,0.8295,0.8613,0.8004,0.7377,0.6995,0.6736,0.6408,0.5818,0.5822,0.5987,0.6251,0.628,0.6383,0.6675,0.5778,0.4981,0.4447,0.3485,0.272,0.2221,0.2188,0.2188,0.2188,0.2188,0.2188,0.2188,0.2188,0.1884,0.1311,0.1311,0.1008,2.5961,2.5688,2.5411,2.5061,2.5005,2.4977,2.4863,2.4551,0.0,0.0,2.304,2.2445,2.315,0.0,0.0,0.0,0.0,0.0,0.0,0.0,0.0,0.0,0.0,0.0,0.0,0.0,0.0,2.1073,2.0362,1.9765,1.9445,1.9243,1.8801,1.807,1.7801,1.7442,1.7026,1.6044,1.5939,1.6664,1.5444,1.5098,1.5515,1.5062,1.474,1.4605,1.4605,1.4533,1.4425,1.4425,1.4317,1.4165,1.4165,1.4129,1.4093,1.3928,1.3863,1.3826,1.3645,1.3572,1.3572,1.3499,1.3382,1.3236,1.3046,1.2973,1.29,1.2673,1.2599,1.2526,1.2157,1.2077,1.1744,1.0545,0.8998,0.794,0.836,0.794,0.7672,0.8318,0.7821,0.7358,0.7646,0.7433,0.7098,0.6792,0.7162,0.7031,0.5716,0.5587,0.5591,0.5557,0.5657,0.5951,0.6478,0.5418,0.4688,0.4646,0.3485,0.2621,0.2221,0.2188,0.2188,0.2188,0.2188,0.2188,0.2188,0.2188,0.1951,0.148,0.1344,0.1076,2.5961,2.5688,2.5411,2.5061,2.5005,2.4892,2.4465,0.0,0.0,2.3198,2.315,2.321,2.3,2.2414,2.2051,0.0,0.0,2.0571,0.0,0.0,0.0,0.0,0.0,0.0,0.0,0.0,0.0,2.1073,2.0362,1.9408,1.8313,1.8897,1.894,1.8211,1.7125,1.683,1.743,1.564,1.5098,1.5903,1.5762,1.5346,1.474,1.5374,1.5303,1.4605,1.4605,1.4605,0.0,1.4569,1.4497,1.4353,1.4353,1.4245,1.4093,1.4093,1.4057,1.4029,1.3819,1.3754,1.3754,1.3572,1.3492,1.3419,1.3236,1.3156,1.3083,1.2709,1.2599,1.2562,1.2342,1.2268,1.1966,1.0757,0.9631,0.8623,0.7787,0.7561,0.7518,0.7599,0.7522,0.7593,0.7972,0.7792,0.7412,0.6953,0.6272,0.5716,0.5458,0.5024,0.4661,0.4467,0.4891,0.5388,0.5921,0.5422,0.4785,0.4115,0.3482,0.2852,0.2221,0.2188,0.2188,0.2188,0.2188,0.2188,0.2188,0.2188,0.2188,0.212,0.1547,0.1277,2.6029,2.5825,2.5633,2.5118,2.4793,2.4523,2.435,0.0,2.3335,2.2969,2.2622,2.2408,2.2463,2.213,2.1889,0.0,0.0,0.0,0.0,0.0,0.0,0.0,0.0,0.0,0.0,0.0,2.0175,1.9806,2.0061,1.963,1.8108,1.8301,1.8369,1.8156,1.7659,1.7241,1.6855,1.6056,1.5734,1.5798,1.5311,1.5169,1.5303,1.5161,1.4883,1.4605,1.4605,1.4605,0.0,1.4605,1.4569,1.4533,1.4533,1.4461,1.4382,1.4317,1.4209,1.4057,1.3863,1.3717,1.3608,1.3535,1.3492,1.3492,1.3382,1.3382,1.3309,1.3046,1.2863,1.2716,1.2526,1.2305,1.2003,1.1508,1.0545,0.9609,0.9216,0.8656,0.8208,0.8208,0.7825,0.748,0.7431,0.7296,0.7032,0.6651,0.6404,0.6112,0.5749,0.5219,0.4758,0.4334,0.4498,0.4827,0.5388,0.4927,0.4459,0.4015,0.3487,0.2889,0.2221,0.2188,0.2188,0.2188,0.2188,0.2188,0.2188,0.2188,0.2188,0.2188,0.1951,0.1648,2.6029,2.5839,2.5661,2.5118,2.465,2.4263,0.0,0.0,2.2848,2.2726,2.2235,2.1925,2.2166,2.203,2.1851,0.0,0.0,2.1526,0.0,0.0,0.0,0.0,0.0,0.0,0.0,0.0,1.9944,1.907,1.9755,1.9576,1.8069,1.7852,1.7984,1.843,1.8358,1.7841,1.6923,1.659,1.6203,1.5798,1.524,1.5133,1.5444,1.5098,1.482,1.4605,1.4605,1.4605,0.0,1.4605,1.4605,1.4605,1.4605,1.4605,1.4605,1.4497,1.4353,1.4201,1.3964,1.3783,1.3674,1.3528,1.3492,1.3492,1.3492,1.3492,1.3455,1.3273,1.3046,1.2863,1.2636,1.2378,1.215,1.204,1.1335,1.0657,1.034,0.9674,0.9079,0.8851,0.823,0.7597,0.7096,0.6895,0.6657,0.6184,0.6178,0.6079,0.5646,0.5219,0.4791,0.4334,0.43,0.4464,0.4827,0.4428,0.4095,0.3951,0.3491,0.2958,0.2388,0.2354,0.2287,0.2188,0.2188,0.2188,0.2188,0.2188,0.2188,0.2188,0.2188,0.1985,2.5961,2.5702,2.5411,2.5061,2.465,2.4176,0.0,0.0,2.2757,2.2309,2.2197,2.2197,2.2197,2.2197,2.2185,2.2185,2.1925,0.0,0.0,0.0,0.0,0.0,0.0,0.0,0.0,0.0,2.0015,1.9345,1.9411,0.0,1.806,1.761,1.7965,1.9246,1.8957,1.857,1.8082,1.6977,1.6203,1.5798,1.5798,1.5374,1.4641,1.5417,1.5338,1.4605,1.4605,1.4605,0.0,1.4605,1.4605,1.4605,1.4605,1.4605,1.4605,1.4605,1.4605,1.4569,1.4201,1.4093,1.4029,1.3637,1.3492,1.3492,1.3492,1.3492,1.3455,1.3273,1.3046,1.2863,1.2636,1.2599,1.2489,1.2077,1.2003,1.17,1.0714,1.0314,0.9949,0.915,0.8599,0.802,0.7143,0.679,0.6343,0.5516,0.5256,0.5057,0.4831,0.4694,0.4528,0.4334,0.43,0.43,0.43,0.3995,0.3792,0.3792,0.3426,0.3058,0.272,0.2686,0.2554,0.2221,0.2188,0.2188,0.2188,0.2188,0.2188,0.2188,0.2188,0.2188,2.5356,2.5397,2.5411,2.5061,2.4408,2.3783,2.3636,0.0,2.2371,2.2216,2.2197,2.2197,2.2197,2.2197,2.2197,2.2197,2.2123,0.0,0.0,0.0,0.0,0.0,0.0,0.0,0.0,0.0,1.9023,1.8254,1.8415,1.8259,1.7603,1.7471,1.7709,1.8381,1.8316,1.8181,1.8091,1.7259,1.6469,1.5798,1.524,1.4856,1.4605,1.4848,1.4848,1.4605,1.4605,1.4605,1.4605,1.4605,1.4605,1.4605,1.4605,1.4605,1.4605,1.4605,1.4533,1.4461,1.4353,1.4209,1.4065,1.3783,1.3717,1.3681,1.3535,1.3492,1.3455,1.3273,1.3163,1.3046,1.2856,1.2709,1.2562,1.2452,1.2187,1.1929,1.1589,1.1366,1.1111,1.0732,0.9559,0.8457,0.7921,0.6759,0.5805,0.5449,0.5223,0.5024,0.4831,0.4694,0.4528,0.4334,0.43,0.43,0.43,0.4197,0.4028,0.3825,0.3692,0.3424,0.3058,0.282,0.2653,0.2554,0.2321,0.2188,0.2188,0.2188,0.2188,0.2188,0.2188,0.1985,0.0,2.4806,2.4806,2.4536,2.3914,0.0,0.0,0.0,2.2197,2.2197,2.2197,2.2197,2.2197,2.2197,2.2197,2.2197,2.2197,0.0,0.0,0.0,0.0,0.0,0.0,0.0,0.0,1.8522,1.8368,1.7477,1.7897,1.7879,1.7218,1.7321,1.7532,1.7783,1.8089,1.804,1.7607,1.7194,1.659,1.5798,1.4991,1.4605,1.4605,1.4605,1.4605,1.4605,1.4605,1.4677,0.0,1.4677,1.4677,1.4812,1.4677,1.4605,1.4605,1.4605,1.4533,1.4461,1.4425,1.4317,1.4173,1.3964,1.3863,1.3797,1.3645,1.3572,1.3455,1.3346,1.3309,1.3273,1.3083,1.2936,1.2826,1.2716,1.2452,1.2224,1.2224,1.2003,1.1781,1.1632,1.0331,0.901,0.8402,0.7043,0.5873,0.5475,0.5223,0.5057,0.4927,0.4725,0.4561,0.4431,0.4331,0.43,0.43,0.43,0.4197,0.3995,0.3995,0.3828,0.3426,0.3222,0.3054,0.2889,0.2554,0.2388,0.2388,0.2255,0.2188,0.2188,0.2188,0.1884,0.0,2.4018,2.3771,2.3666,2.3275,2.2909,2.2909,0.0,0.0,2.2197,2.2197,2.2197,2.2197,2.2197,2.2197,2.2197,2.2197,0.0,0.0,0.0,0.0,0.0,0.0,0.0,1.7706,1.8104,1.7953,1.6982,1.7716,1.7821,1.6908,1.7243,1.7456,1.7398,1.8184,1.8074,1.691,1.6977,1.6627,1.5868,1.5062,1.4677,1.4677,1.4677,1.4677,0.0,1.4677,1.4883,1.5196,1.4848,1.4883,1.5169,1.4784,1.4641,1.4605,1.4605,1.4605,1.4569,1.4461,1.4425,1.4389,1.4201,1.4,1.3826,1.3826,1.3681,1.3492,1.3419,1.3455,1.3455,1.32,1.3156,1.3163,1.2973,1.2783,1.2636,1.2599,1.2305,1.2033,1.1977,1.085,0.9614,0.8709,0.7509,0.6412,0.5591,0.5256,0.512,0.5087,0.4824,0.4625,0.4625,0.4431,0.4334,0.4334,0.43,0.43,0.43,0.43,0.4164,0.3859,0.3825,0.3625,0.3259,0.2922,0.272,0.272,0.2388,0.2221,0.2221,0.2221,0.185,2.3228,0.0,2.3972,2.38,2.3412,2.3017,0.0,0.0,0.0,0.0,0.0,0.0,0.0,2.2197,2.2197,2.2197,2.2197,2.1819,0.0,0.0,0.0,0.0,0.0,0.0,1.7141,1.721,1.7178,1.6932,1.7107,1.7246,1.7325,1.7461,1.7495,1.7485,1.7667,1.7774,1.7728,1.7174,1.6828,1.6621,1.5868,1.5515,1.5515,1.5204,1.524,1.5515,1.5196,1.5275,1.5657,1.5551,1.5374,1.5196,1.5098,1.4883,1.4605,1.4605,1.4605,1.4605,1.4569,1.4569,1.4533,1.4389,1.4173,1.4029,1.4029,1.3783,1.3382,1.2753,1.3046,1.3346,1.2673,1.2863,1.3193,1.3119,1.2973,1.279,1.2636,1.2526,1.2311,1.1795,1.0821,0.9835,0.9094,0.7712,0.656,0.6207,0.5683,0.5259,0.512,0.502,0.4924,0.4761,0.4628,0.4528,0.4528,0.4398,0.43,0.43,0.43,0.4267,0.4197,0.3928,0.3758,0.3658,0.3291,0.3092,0.3092,0.2755,0.2586,0.2586,0.2321,0.1648,2.306,2.3258,2.3514,2.3335,2.3035,2.2744,2.2696,0.0,0.0,0.0,0.0,0.0,0.0,0.0,0.0,0.0,2.1663,0.0,0.0,0.0,0.0,0.0,0.0,1.721,0.0,1.6908,1.6908,1.6908,1.6908,1.7,1.7211,1.7229,1.7305,1.7486,1.7504,1.7422,1.7229,1.683,1.6536,1.6403,1.5974,1.5798,1.5798,1.5586,1.5586,1.5798,1.5551,1.57,1.6017,1.5868,1.5762,1.5665,1.5346,1.5062,1.4848,1.4677,1.4605,1.4605,1.4605,1.4605,1.4605,1.4533,1.4389,1.4245,1.4245,1.4029,1.3674,1.3156,1.2973,1.2863,1.2415,1.2268,1.2224,1.2224,1.2077,1.1892,1.1694,1.1552,1.1329,1.0797,0.9895,0.9056,0.8516,0.7323,0.6367,0.6071,0.5716,0.5425,0.5259,0.5156,0.5054,0.4957,0.4794,0.4694,0.4694,0.4528,0.4398,0.43,0.43,0.43,0.43,0.4131,0.3961,0.3792,0.3591,0.3393,0.3192,0.3023,0.2855,0.2686,0.2656,0.2017,2.3138,2.3017,2.2909,2.2769,2.2586,2.2451,2.242,0.0,0.0,0.0,0.0,0.0,0.0,0.0,0.0,0.0,0.0,0.0,0.0,0.0,0.0,0.0,0.0,0.0,1.6908,1.6908,1.6908,1.6908,1.6908,1.6908,1.6908,1.6908,1.7064,1.7394,1.7403,1.7081,1.6396,1.6448,1.6319,1.5974,1.5974,1.5974,1.5974,1.5903,1.5903,1.5974,0.0,0.0,1.6377,1.6088,1.6088,1.6237,1.5594,1.5346,1.524,1.4848,1.4669,1.4677,1.4605,1.4605,1.4605,1.4605,1.4533,1.4425,1.4425,1.4317,1.4101,1.3826,1.3083,1.2305,1.2077,1.1558,1.1111,1.1111,1.0962,1.0775,1.0608,1.0398,1.0122,0.9654,0.8918,0.821,0.7758,0.6943,0.621,0.5815,0.5683,0.555,0.5425,0.5259,0.5156,0.5156,0.496,0.4861,0.4861,0.4728,0.4561,0.44,0.4334,0.43,0.43,0.43,0.4164,0.3892,0.3892,0.3658,0.319,0.3259,0.309,0.272,0.3058,0.2587,2.3108,2.3078,2.3047,2.2909,2.2769,2.2616,2.2451,0.0,0.0,0.0,0.0,0.0,0.0,0.0,0.0,0.0,0.0,0.0,0.0,0.0,0.0,0.0,0.0,1.7107,1.6908,1.6908,1.6908,1.6908,1.6908,1.6908,1.6908,1.6908,1.6936,1.7,1.7,1.693,1.6816,1.7152,1.7116,1.6726,1.6726,1.6726,1.6726,1.6377,1.6412,1.6691,0.0,1.6447,1.6804,1.676,1.6551,1.6272,1.6167,1.5947,1.5657,1.5275,1.5098,1.5062,1.4713,1.4605,1.4605,1.4605,1.4605,1.4569,1.4569,1.4461,1.4245,1.371,1.3083,1.2268,1.1074,1.0925,1.1111,1.1111,1.1074,1.0999,1.0812,1.0599,1.0257,0.965,0.9267,0.8852,0.8227,0.7536,0.6924,0.6572,0.6013,0.555,0.5425,0.5362,0.5359,0.5359,0.5156,0.5057,0.5057,0.4894,0.4761,0.4731,0.4467,0.43,0.43,0.43,0.4267,0.4233,0.4233,0.3894,0.3184,0.3556,0.3355,0.272,0.3058,0.2855,2.3035,2.3108,2.3078,2.3017,2.261,2.2316,2.2525,0.0,0.0,0.0,0.0,0.0,0.0,0.0,0.0,0.0,0.0,0.0,0.0,0.0,0.0,0.0,0.0,1.7279,1.7072,1.7072,1.7003,1.6908,1.6908,1.6908,1.6908,1.6908,1.6908,1.6908,1.6908,1.6908,1.6908,1.7092,1.7092,1.6908,1.6908,1.6908,1.6908,1.67,1.6735,1.6874,0.0,1.6735,1.6908,1.6908,1.6795,1.6586,1.6377,1.6202,1.6017,1.5665,1.5382,1.5161,1.4991,1.4776,1.4605,1.4605,1.4605,1.4605,1.4605,1.4569,1.4317,1.3411,1.2592,1.1731,1.0738,1.0137,0.9793,0.9793,0.9793,0.9755,0.9533,0.9352,0.9052,0.8513,0.8186,0.7832,0.7456,0.7031,0.6704,0.6474,0.6145,0.5815,0.5554,0.5521,0.5491,0.5395,0.5326,0.5259,0.5259,0.5093,0.4891,0.4694,0.4561,0.4398,0.43,0.43,0.43,0.43,0.43,0.3928,0.3215,0.3792,0.3591,0.272,0.346,0.346,2.2811,2.2793,2.2628,2.2628,0.0,2.2242,2.2635,0.0,0.0,0.0,0.0,0.0,0.0,0.0,0.0,0.0,0.0,0.0,0.0,1.7862,1.774,1.7706,1.7623,1.7461,1.7279,1.7279,1.721,1.7047,1.7012,1.6968,1.6968,1.6943,1.6908,1.6908,1.6908,1.6908,1.6908,1.6908,1.6908,1.6908,1.6908,1.6908,1.6908,1.6908,1.6908,1.6908,1.6908,1.6908,1.6908,1.6908,1.6908,1.6874,1.6551,1.6377,1.6272,1.6017,1.5657,1.5338,1.5338,1.5098,1.4713,1.4561,1.4489,1.4382,1.4238,1.4201,1.3985,1.2966,1.207,1.1279,1.0657,0.9685,0.8856,0.8856,0.878,0.8651,0.8458,0.8254,0.7979,0.7566,0.7229,0.6916,0.6766,0.6581,0.6416,0.628,0.6214,0.6079,0.5716,0.5683,0.562,0.5458,0.5458,0.5425,0.5395,0.5259,0.5057,0.4725,0.4658,0.4561,0.4431,0.44,0.4367,0.4367,0.4334,0.3861,0.2948,0.3692,0.3458,0.235,0.3324,0.3558,2.2279,2.1877,2.125,2.125,2.2044,0.0,2.2878,2.2199,0.0,0.0,0.0,0.0,0.0,0.0,0.0,0.0,0.0,0.0,0.0,0.0,1.7896,1.7706,1.7672,1.7613,1.7495,1.747,1.747,1.747,1.7279,1.7166,1.7166,1.7003,1.6908,1.6908,1.6908,1.6908,1.6908,1.6908,1.6908,1.6908,1.6908,1.6908,1.6908,1.6908,1.6908,1.6908,1.6908,1.6908,1.6908,1.6908,1.6908,1.6908,1.6874,1.663,1.6307,1.6272,1.6053,1.5762,1.5762,1.548,1.5054,1.4482,1.4122,1.376,1.3185,1.301,1.29,1.2268,1.1744,1.126,1.0663,0.9879,0.9246,0.9246,0.8975,0.8652,0.8425,0.8255,0.7976,0.7573,0.733,0.7124,0.6913,0.6778,0.6609,0.6416,0.628,0.6115,0.5921,0.5888,0.5789,0.5617,0.5583,0.5521,0.5425,0.5395,0.5292,0.509,0.4894,0.4764,0.4764,0.4661,0.4595,0.4595,0.4398,0.3591,0.2179,0.2915,0.2582,0.1244,0.1946,0.2581,2.1753,2.1596,2.1293,2.1293,0.0,0.0,0.0,0.0,0.0,0.0,0.0,0.0,0.0,0.0,0.0,0.0,0.0,0.0,1.8042,1.8008,1.7974,1.7896,1.7896,1.7828,1.7657,1.7623,1.7588,1.7505,1.7426,1.7392,1.7392,1.7323,1.722,1.7107,1.722,1.7151,1.6908,1.7003,1.7003,1.6908,1.6908,1.6908,1.6908,1.6908,1.6908,1.6908,1.6908,1.6908,1.6908,1.6908,1.6908,1.6908,1.6908,1.6804,1.6656,1.6656,1.6447,1.6096,1.6096,1.5877,1.5551,1.5303,1.4732,1.4086,1.384,1.3368,1.2783,1.215,1.1892,1.1595,1.07,1.0105,0.9625,0.9359,0.917,0.8954,0.8481,0.8231,0.8018,0.7751,0.7412,0.7171,0.7106,0.6942,0.6778,0.6609,0.6544,0.6412,0.6115,0.6083,0.6017,0.5822,0.5683,0.5583,0.5521,0.5458,0.516,0.4622,0.4858,0.4927,0.4797,0.4761,0.4694,0.4592,0.4059,0.3253,0.2114,0.238,0.2013,0.1109,0.1779,0.2248,2.1144,2.1187,2.1008,0.0,0.0,0.0,0.0,0.0,0.0,0.0,0.0,0.0,0.0,0.0,0.0,0.0,0.0,1.8008,1.8008,1.8008,1.8008,1.8008,1.8008,1.794,1.7818,1.7784,1.7759,1.7676,1.7598,1.7564,1.7564,1.7539,1.7426,1.7314,1.7426,1.7367,1.7081,1.7245,1.7245,1.7081,1.7081,1.7012,1.6908,1.6908,1.6908,1.6908,1.6908,1.6908,1.6908,1.6908,1.6908,1.6908,1.6908,1.6908,1.6908,1.6908,1.6735,1.6491,1.6491,1.6272,1.5947,1.5762,1.4974,1.4086,1.3825,1.3142,1.2342,1.1855,1.1706,1.1558,1.085,1.0406,1.003,0.9733,0.9587,0.9331,0.8702,0.8447,0.8198,0.7854,0.7541,0.7297,0.7297,0.7138,0.6975,0.6872,0.6811,0.6679,0.6445,0.6379,0.628,0.602,0.5818,0.5686,0.5686,0.5624,0.5359,0.4855,0.4888,0.4755,0.4325,0.4461,0.4495,0.4425,0.4092,0.3353,0.2181,0.2181,0.1713,0.0774,0.1209,0.1577,2.0473,2.0505,0.0,0.0,0.0,0.0,0.0,0.0,0.0,0.0,0.0,0.0,0.0,0.0,0.0,1.8042,1.8008,1.8008,1.8008,1.8008,1.8008,1.8008,1.8008,1.8008,1.8008,1.8008,1.8008,1.8008,1.7818,1.7706,1.7706,1.7588,1.7505,1.7505,1.7505,1.7505,1.7505,1.7505,1.7505,1.7505,1.7505,1.7289,1.6908,1.6908,1.6908,1.6908,1.6908,1.6908,1.6908,1.6908,1.6908,1.6908,1.6908,1.6908,1.6908,1.6908,1.6908,1.6908,1.6908,1.6621,1.6237,1.5683,1.4708,1.3593,1.2821,1.2063,1.1372,1.1149,1.1111,1.1111,1.1111,1.0812,1.0513,1.0513,1.0218,0.9745,0.9139,0.8847,0.8519,0.7923,0.7641,0.7489,0.7489,0.733,0.7204,0.7204,0.7045,0.6913,0.6913,0.6778,0.6576,0.6243,0.602,0.5892,0.5892,0.5892,0.5888,0.5888,0.506,0.4189,0.3251,0.3723,0.3995,0.3995,0.4528,0.3992,0.2417,0.2383,0.1578,0.0,0.0,0.0404,2.0226,0.0,0.0,0.0,0.0,0.0,0.0,0.0,0.0,0.0,0.0,0.0,0.0,0.0,0.0,1.8008,1.8008,1.8008,1.8008,1.8008,1.8008,1.8008,1.8008,1.8008,1.8008,1.8008,1.8008,1.8008,1.794,1.7896,1.7896,1.7872,1.7803,1.7647,1.7769,1.7745,1.7505,1.7588,1.7588,1.7505,1.7505,1.7436,1.7332,1.7332,1.7332,1.7332,1.7332,1.7332,1.7323,1.7176,1.7038,1.6908,1.6908,1.6908,1.6908,1.6908,1.6908,1.6908,1.6908,1.6839,1.67,1.6542,1.5789,1.4816,1.4011,1.3186,1.2285,1.1515,1.1298,1.1298,1.1149,1.0999,1.085,1.0556,1.0406,1.0151,0.9536,0.9057,0.8589,0.8293,0.7835,0.7489,0.7489,0.7461,0.7363,0.7232,0.7138,0.7073,0.6913,0.6778,0.6675,0.6576,0.628,0.6115,0.6115,0.5987,0.5686,0.515,0.4456,0.4092,0.4189,0.372,0.3623,0.3995,0.3654,0.3451,0.3389,0.2347,0.1576,0.1108,0.0606,0.0404,2.0042,0.0,0.0,0.0,0.0,0.0,0.0,0.0,0.0,0.0,0.0,0.0,0.0,0.0,0.0,1.8144,1.811,1.8076,1.8008,1.8008,1.8008,1.8008,1.8008,1.8008,1.8008,1.8008,1.8008,1.8008,1.8008,1.8008,1.8008,1.8008,1.794,1.7818,1.794,1.7906,1.771,1.7794,1.7794,1.771,1.771,1.771,1.7701,1.7573,1.7505,1.7505,1.7505,1.7505,1.7505,1.7358,1.7254,1.7151,1.7151,1.7151,1.7151,1.7151,1.7081,1.7003,1.7003,1.6978,1.6908,1.6908,1.6324,1.5498,1.4958,1.3947,1.2872,1.2174,1.1774,1.1484,1.1372,1.1298,1.1149,1.0812,1.0738,1.0585,1.0061,0.959,0.9181,0.8798,0.8265,0.7819,0.7704,0.7587,0.7456,0.733,0.733,0.7232,0.704,0.6942,0.6872,0.6778,0.6613,0.6445,0.6412,0.628,0.5984,0.5481,0.4453,0.402,0.4353,0.3418,0.3017,0.3355,0.3418,0.3449,0.3453,0.2546,0.1942,0.1575,0.0841,0.0472,0.0,0.0,0.0,0.0,0.0,0.0,0.0,0.0,0.0,0.0,0.0,0.0,0.0,0.0,1.8674,1.8371,1.8303,1.8245,1.8042,1.8042,1.8008,1.8008,1.8008,1.8008,1.8008,1.8008,1.8008,1.8008,1.8008,1.8008,1.8008,1.8008,1.8008,1.8008,1.8008,1.8008,1.8008,1.8008,1.8008,1.8008,1.8008,1.8008,1.7974,1.7676,1.7539,1.7539,1.7539,1.7539,1.7539,1.7539,1.7505,1.7505,1.7505,1.7505,1.7505,1.7505,1.7392,1.7235,1.7235,1.7107,1.6943,1.6943,1.6473,1.5868,1.5534,1.4458,1.3266,1.2901,1.2285,1.1706,1.1706,1.1558,1.1372,1.1186,1.1149,1.0999,1.0625,1.0361,1.0013,0.9422,0.8822,0.8351,0.808,0.7769,0.7521,0.7489,0.7489,0.7423,0.7265,0.7204,0.7106,0.6881,0.6881,0.6843,0.6675,0.6675,0.6646,0.6453,0.4981,0.4082,0.4048,0.2948,0.235,0.2383,0.3551,0.3718,0.2913,0.2846,0.2412,0.1642,0.0908,0.0539,0.0,2.0107,0.0,0.0,0.0,0.0,0.0,0.0,0.0,0.0,0.0,0.0,0.0,1.8684,1.8549,1.8482,1.8448,1.8414,1.8269,1.8236,1.8178,1.8008,1.8008,1.8008,1.8008,1.8008,1.8008,1.8008,1.8008,1.8008,1.8008,1.8008,1.8008,1.8008,1.8008,1.8008,1.8008,1.8008,1.8008,1.8008,1.8008,1.8008,1.8008,1.794,1.7906,1.7906,1.7906,1.7794,1.7647,1.7647,1.7588,1.7505,1.7505,1.7505,1.7505,1.7505,1.747,1.7426,1.7426,1.7401,1.7358,1.7358,1.7141,1.6673,1.5401,1.4681,1.3991,1.2586,1.2077,1.1892,1.1744,1.1669,1.1632,1.1595,1.1335,1.1074,1.0999,1.0545,1.0172,1.0007,0.9326,0.8705,0.8384,0.8065,0.7787,0.7554,0.7489,0.7493,0.7428,0.7297,0.7007,0.6552,0.6749,0.6712,0.6276,0.6609,0.6848,0.6782,0.5583,0.4716,0.4411,0.2714,0.1982,0.2383,0.2683,0.2917,0.3149,0.2547,0.2179,0.1978,0.1276,0.0875,0.0,0.0,0.0,0.0,0.0,0.0,0.0,0.0,0.0,0.0,0.0,0.0,0.0,1.8875,1.8741,1.864,1.864,1.8583,1.8414,1.8414,1.8347,1.8245,1.8178,1.8134,1.8134,1.8076,1.8008,1.8008,1.8008,1.8008,1.8008,1.8008,1.8008,1.8008,1.8008,1.8008,1.8008,1.8008,1.8008,1.8008,1.8008,1.8008,1.8008,1.8008,1.8008,1.8008,1.8008,1.794,1.7852,1.7852,1.7794,1.7745,1.7745,1.7745,1.7745,1.7745,1.7461,1.7107,1.7486,1.7304,1.6994,1.7358,1.7426,1.7176,1.628,1.5428,1.4537,1.352,1.2725,1.2114,1.2003,1.1929,1.1855,1.1855,1.1595,1.1372,1.126,1.1009,1.0693,1.0496,0.9942,0.9412,0.9119,0.8594,0.8075,0.7802,0.7591,0.7489,0.7489,0.7199,0.6839,0.6576,0.6482,0.6284,0.5877,0.6115,0.6346,0.6511,0.5617,0.5017,0.4782,0.3482,0.2551,0.2183,0.2418,0.2684,0.2952,0.2582,0.2348,0.2214,0.1511,0.111,0.0,0.0,0.0,0.0,0.0,0.0,0.0,0.0,0.0,0.0,0.0,0.0,1.9198,1.9108,1.9042,1.8875,1.8841,1.8774,1.8583,1.8549,1.8549,1.8516,1.8414,1.8337,1.8337,1.8168,1.8042,1.8042,1.8008,1.8008,1.8008,1.8008,1.8008,1.8008,1.8008,1.8008,1.8008,1.8008,1.8008,1.8008,1.8008,1.8008,1.8008,1.8008,1.8008,1.8008,1.8008,1.8008,1.8008,1.8008,1.8008,1.8008,1.8008,1.8008,1.8008,1.8008,1.752,1.6915,1.7389,1.7035,1.6481,1.7038,1.7185,1.7107,1.6777,1.5789,1.4689,1.4394,1.3346,1.2342,1.2342,1.2187,1.204,1.204,1.1929,1.1744,1.1484,1.1446,1.1347,1.09,1.0472,1.0109,0.9863,0.9119,0.848,0.8261,0.7899,0.7644,0.7644,0.7185,0.6773,0.6576,0.6247,0.5885,0.555,0.5583,0.5782,0.6046,0.5451,0.509,0.5024,0.435,0.3384,0.2153,0.2452,0.2619,0.2519,0.2519,0.2418,0.2249,0.1647,0.1277,0.0,0.0,0.0,0.0,0.0,0.0,0.0,0.0,0.0,0.0,0.0,0.0,1.9108,1.9108,1.9108,1.9065,1.9075,1.9008,1.8774,1.8741,1.8717,1.8516,1.8482,1.8482,1.8482,1.8337,1.8269,1.8269,1.811,1.8008,1.8008,1.8008,1.8008,1.8008,1.8008,1.8008,1.8008,1.8008,1.8008,1.8008,1.8008,1.8008,1.8008,1.8008,1.8008,1.8008,1.8008,1.8008,1.8008,1.8008,1.8008,1.8008,1.8008,1.8008,1.8008,1.8008,1.7906,1.7725,1.7182,1.6932,1.6724,1.6132,1.5851,1.5648,1.4903,1.4446,1.4057,1.3331,1.2856,1.2562,1.2562,1.2415,1.2261,1.2261,1.2224,1.2114,1.1744,1.1669,1.1583,1.136,1.0699,1.0109,0.9863,0.9469,0.9152,0.912,0.8635,0.8265,0.8265,0.7768,0.7036,0.6119,0.635,0.6214,0.5253,0.5587,0.5888,0.5921,0.5422,0.4957,0.4691,0.4123,0.3558,0.3025,0.2653,0.2216,0.1748,0.1748,0.1748,0.1715,0.1614,0.1547,0.0,0.0,0.0,0.0,0.0,0.0,0.0,0.0,0.0,0.0,0.0,1.9108,1.9108,1.9108,1.9108,1.9108,1.9108,1.9075,1.8975,1.8975,1.8942,1.8841,1.8741,1.8684,1.8684,1.8506,1.8405,1.8405,1.8269,1.8178,1.8178,1.8076,1.8008,1.8008,1.8008,1.8008,1.8008,1.8008,1.8008,1.8008,1.8008,1.8008,1.8008,1.8008,1.8008,1.7974,1.7545,1.7364,1.7364,1.6906,1.6975,1.7364,1.7364,1.7657,1.8008,1.8008,1.7442,1.6733,1.6872,1.6332,1.5623,1.5666,1.5675,1.5534,1.5108,1.4625,1.4129,1.3695,1.3185,1.2746,1.2636,1.2526,1.2452,1.2342,1.2305,1.2268,1.2077,1.1966,1.1781,1.1446,1.1095,1.0748,1.0385,1.0023,0.9759,0.9589,0.9194,0.8917,0.8917,0.8412,0.7826,0.7201,0.6752,0.6309,0.5851,0.5418,0.5392,0.5855,0.5388,0.502,0.4888,0.4655,0.4223,0.3558,0.309,0.2653,0.2217,0.2217,0.2049,0.1783,0.1783,0.1715,0.0,0.0,0.0,0.0,0.0,0.0,0.0,0.0,0.0,0.0,0.0,1.9164,1.933,1.9198,1.9108,1.9108,1.9108,1.9108,1.9108,1.9108,1.9108,1.9108,1.8975,1.8875,1.8875,1.8674,1.8583,1.8583,1.8448,1.8337,1.8337,1.8212,1.8144,1.8144,1.8144,1.8144,1.8144,1.8076,1.8042,1.8008,1.8042,1.8076,1.8076,1.811,1.8144,1.8076,1.7467,1.7079,1.6862,1.6263,1.6237,1.6585,1.6585,1.6941,1.7407,1.7407,1.6698,1.5745,1.6158,1.5552,1.4681,1.5002,1.5144,1.5108,1.501,1.4581,1.4093,1.3992,1.3484,1.2936,1.279,1.2673,1.2562,1.2415,1.2342,1.2305,1.2305,1.215,1.1892,1.1595,1.1484,1.1273,1.0925,1.0646,1.0363,1.0177,0.9772,0.9515,0.9515,0.9032,0.8578,0.823,0.7383,0.6813,0.6743,0.5727,0.5332,0.5944,0.5366,0.5011,0.494,0.4909,0.4592,0.3928,0.3627,0.3259,0.282,0.282,0.2621,0.222,0.222,0.2151,0.0,0.0,0.0,0.0,0.0,0.0,0.0,0.0,0.0,0.0,1.9108,1.9297,1.9944,1.9518,1.9108,1.9108,1.9108,1.9108,1.9108,1.9108,1.9108,1.9108,1.9108,1.9065,1.9065,1.8908,1.8774,1.8774,1.8617,1.8482,1.8482,1.8482,1.8482,1.8482,1.8482,1.8482,1.8482,1.8347,1.8202,1.8008,1.8202,1.8269,1.8303,1.8414,1.8482,1.8448,1.811,1.7545,1.6897,1.6862,1.6411,1.5745,1.5745,1.5781,1.5816,1.5816,1.5781,1.5604,1.4958,1.4673,1.4502,1.384,1.3601,1.3601,1.3601,1.3564,1.3528,1.3528,1.3346,1.32,1.3156,1.29,1.2599,1.2599,1.2452,1.2305,1.2305,1.215,1.2003,1.1966,1.1669,1.1403,1.1354,1.1205,1.105,1.1032,1.0535,1.0136,1.0136,0.9635,0.9066,0.8524,0.8413,0.8192,0.7676,0.6864,0.6339,0.6204,0.5332,0.4743,0.453,0.4425,0.4334,0.4267,0.4267,0.3897,0.3159,0.3159,0.3159,0.3127,0.3127,0.3125,0.0,0.0,0.0,0.0,0.0,0.0,0.0,0.0,0.0,0.0,1.9407,1.9506,1.9726,1.9748,1.9748,1.9748,1.9748,1.9584,1.9164,1.9108,1.9108,1.9108,1.9108,1.9108,1.9108,1.9031,1.9008,1.9008,1.8808,1.8674,1.8674,1.8583,1.8516,1.8516,1.8516,1.8516,1.8516,1.8448,1.8381,1.8313,1.8381,1.8414,1.8414,1.8482,1.8516,1.8482,1.7862,1.7192,1.6481,1.5851,1.5463,1.518,1.5029,1.5278,1.571,1.571,1.5392,1.4958,1.4673,1.4294,1.384,1.3601,1.3492,1.3492,1.3492,1.3492,1.3492,1.3492,1.3455,1.3346,1.3236,1.3083,1.2936,1.2673,1.2526,1.2452,1.2342,1.2224,1.215,1.204,1.1781,1.1558,1.1409,1.1223,1.1111,1.1111,1.0922,1.0788,1.0788,1.0595,1.0327,0.995,0.954,0.9194,0.9076,0.807,0.7291,0.694,0.6278,0.5612,0.5048,0.4833,0.4739,0.4739,0.4634,0.4242,0.3591,0.3591,0.346,0.3192,0.3192,0.3192,0.0,0.0,0.0,0.0,0.0,0.0,0.0,0.0,0.0,0.0,1.9605,1.9671,1.9889,2.0118,2.0172,1.9879,1.9977,1.9879,1.9198,1.9108,1.9108,1.9108,1.9108,1.9108,1.9108,1.9108,1.9108,1.9108,1.8975,0.0,1.8908,1.8774,1.8717,1.8717,1.8717,1.8684,1.8617,1.8617,1.8583,1.8516,1.8583,1.8617,1.8617,1.8684,1.8717,1.8674,1.8192,1.7354,1.6228,1.5365,1.4832,1.4617,1.4402,1.4617,1.5046,1.4974,1.4653,1.4222,1.4222,1.3912,1.3492,1.3492,1.3492,1.3492,1.3492,1.3492,1.3492,1.3492,1.3492,1.3455,1.3346,1.3236,1.3119,1.2783,1.2636,1.2562,1.2415,1.2342,1.2261,1.212,1.1929,1.1744,1.1632,1.1446,1.1298,1.1298,1.1298,1.1298,1.1298,1.1298,1.1193,1.0979,1.056,1.0271,1.0224,0.9263,0.8464,0.8102,0.7202,0.6411,0.5801,0.5328,0.509,0.509,0.4978,0.4714,0.4309,0.4133,0.3912,0.3641,0.3576,0.3496,0.0,0.0,0.0,0.0,0.0,0.0,2.0529,0.0,2.027,0.0,1.9638,1.9835,2.0474,2.0603,2.0313,1.9473,1.9748,1.9879,1.9198,1.9108,1.9108,1.9108,1.9108,1.9108,1.9108,1.9108,1.9108,1.9108,1.9108,1.9108,1.9108,1.9108,1.9108,1.9108,1.9108,1.9008,1.8808,1.8808,1.8707,1.8516,1.8717,1.8808,1.8808,1.9008,1.9108,1.9108,1.9065,1.8027,1.6298,1.5551,1.4804,1.4093,1.3899,1.379,1.379,1.3608,1.3492,1.3499,1.3528,1.3499,1.3492,1.3499,1.3492,1.3492,1.3492,1.3492,1.3492,1.3492,1.3492,1.3492,1.3492,1.3346,1.3156,1.2973,1.2753,1.2636,1.2599,1.2452,1.2305,1.2305,1.215,1.2003,1.2003,1.1818,1.1706,1.1706,1.1706,1.1706,1.1706,1.1706,1.1632,1.1446,1.1409,1.1335,1.1149,1.04,0.9836,0.9636,0.8007,0.6986,0.6767,0.5888,0.5384,0.5348,0.5348,0.5348,0.5312,0.4783,0.4512,0.4506,0.4363,0.4141,2.0452,0.0,0.0,0.0,0.0,0.0,2.1074,2.0978,2.0839,2.041,2.0313,2.0324,2.0237,2.055,2.0571,1.9835,2.0042,2.0042,1.9198,1.9108,1.9108,1.9108,1.9108,1.9108,1.9108,1.9108,1.9108,0.0,1.9108,1.9108,1.9108,1.9108,1.9108,1.9108,1.9108,1.9075,1.9008,1.9008,1.9008,1.8942,1.9008,1.9008,1.9008,1.9075,1.9108,1.9075,1.8553,1.8003,1.7448,1.6576,1.5463,1.4281,1.4101,1.4029,1.3992,1.3956,1.3855,1.3754,1.3884,1.3739,1.3528,1.3681,1.3608,1.3492,1.3492,1.3492,1.3492,1.3492,1.3492,1.3492,1.3492,1.3455,1.3382,1.3156,1.3083,1.2973,1.2863,1.2673,1.2489,1.2342,1.215,1.2003,1.2003,1.1818,1.1706,1.1706,1.1706,1.1706,1.1706,1.1706,1.1669,1.1632,1.1632,1.1595,1.1558,1.1186,1.07,1.0062,0.9434,0.8797,0.8156,0.776,0.728,0.6685,0.6538,0.6163,0.5524,0.5073,0.4858,0.4855,0.4678,0.4556,0.0,0.0,0.0,0.0,0.0,0.0,2.1316,2.119,2.1031,0.0,2.0388,2.0324,2.0151,2.0367,2.0421,1.9966,2.0053,1.9987,1.9407,1.9241,1.9175,1.9175,1.9131,1.9108,1.9108,1.9108,1.9108,1.9108,1.9108,1.9108,1.9108,1.9108,1.9108,1.9108,1.9108,1.9108,1.9108,1.9108,1.9108,1.9108,1.9108,1.9108,1.9108,1.9108,1.8931,1.862,1.8519,1.8104,1.7516,1.7267,1.6298,1.4919,1.4418,1.4245,1.4201,1.4129,1.4029,1.3928,1.4065,1.3884,1.3645,1.3754,1.3645,1.3492,1.3492,1.3492,1.3492,1.3492,1.3492,1.3492,1.3492,1.3492,1.3455,1.3346,1.3273,1.3156,1.3046,1.2863,1.2673,1.2452,1.2261,1.212,1.212,1.204,1.1966,1.1966,1.1966,1.1966,1.1966,1.1966,1.1929,1.1818,1.1818,1.1781,1.1706,1.1595,1.1335,1.085,1.0331,0.9803,0.9344,0.8808,0.8313,0.7817,0.7702,0.7207,0.6247,0.5569,0.518,0.5126,0.4909,0.487,0.0,0.0,0.0,0.0,2.2092,0.0,2.1454,2.1316,2.1094,2.0432,2.027,2.027,2.0248,2.0205,2.0172,2.0064,1.9998,1.99,1.9648,1.944,1.9318,1.9318,1.9208,1.9108,1.9108,1.9108,1.9108,1.9108,1.9108,1.9108,1.9108,1.9108,1.9108,1.9108,1.9108,1.9108,1.9108,1.9108,1.9108,1.9108,1.9108,1.9108,1.9108,1.9108,1.8731,1.8172,1.8831,1.8307,1.707,1.7628,1.7104,1.5833,1.4991,1.4641,1.4533,1.4346,1.4238,1.4129,1.4165,1.4,1.3826,1.3863,1.3717,1.3535,1.3535,1.3528,1.3492,1.3492,1.3492,1.3492,1.3492,1.3492,1.3492,1.3492,1.3346,1.3236,1.3236,1.3083,1.2863,1.2673,1.2489,1.2342,1.2305,1.2305,1.2305,1.2305,1.2305,1.2305,1.2305,1.2305,1.2224,1.204,1.204,1.1966,1.1781,1.1744,1.1744,1.1744,1.085,1.0368,1.0331,0.9458,0.8965,0.8818,0.8742,0.828,0.7357,0.6153,0.5467,0.5346,0.5134,0.5171,0.0,0.0,0.0,0.0,0.0,0.0,2.203,2.1999,2.1894,0.0,2.14,2.1316,2.1042,2.0978,2.0967,2.0935,2.0679,2.0248,1.9671,1.9572,1.9539,1.9539,1.9384,1.9241,1.9241,1.9175,1.9108,1.9108,1.9108,1.9108,1.9108,1.9108,1.9108,1.9108,1.9108,1.9108,1.9108,1.9108,1.9108,1.9108,1.9108,1.9108,1.9108,1.9108,1.9031,1.8898,1.9031,1.8586,1.7765,1.731,1.6941,1.6664,1.6481,1.6035,1.5515,1.548,1.4991,1.4353,1.4461,1.4317,1.4065,1.4217,1.4044,1.3754,1.3754,1.3645,1.3492,1.3492,1.3492,1.3492,1.3492,1.3492,1.3492,1.3492,1.3455,1.3455,1.3455,1.3273,1.3083,1.2863,1.2673,1.2489,1.2342,1.2305,1.2305,1.2305,1.2305,1.2305,1.2305,1.2305,1.2268,1.2268,1.2224,1.2224,1.2194,1.204,1.1929,1.1929,1.1595,1.1335,1.1186,1.0999,1.047,0.969,0.9046,0.8585,0.8394,0.6678,0.5733,0.5558,0.5484,0.5522,0.0,0.0,0.0,2.0193,0.0,0.0,0.0,2.1694,2.1862,2.1537,2.1443,2.1411,2.1221,0.0,2.119,2.119,2.0871,2.0539,2.0421,2.0031,1.9736,1.9736,1.9572,1.944,1.944,1.9374,1.9308,1.9208,1.9142,1.9108,1.9108,1.9108,1.9108,1.9108,1.9108,1.9108,1.9108,1.9108,1.9108,1.9108,1.9108,1.9108,1.9108,1.9108,1.8898,1.8586,1.8931,1.8486,1.7448,1.7448,1.7242,1.6828,1.6062,1.5754,1.5762,1.5346,1.4883,1.4497,1.4569,1.4461,1.4281,1.4353,1.4217,1.3928,1.3826,1.3645,1.3492,1.3492,1.3492,1.3492,1.3492,1.3492,1.3492,1.3492,1.3492,1.3492,1.3492,1.3419,1.3309,1.3083,1.2973,1.2783,1.2378,1.2305,1.2305,1.2305,1.2305,1.2305,1.2305,1.2305,1.2305,1.2305,1.2305,1.2305,1.2305,1.2224,1.215,1.215,1.1966,1.1632,1.1111,1.0999,1.0513,0.9609,0.9193,0.8808,0.8389,0.7851,0.7242,0.6521,0.598,0.5828,0.0,0.0,0.0,0.0,0.0,2.1028,0.0,0.0,0.0,0.0,0.0,0.0,0.0,0.0,0.0,0.0,0.0,0.0,0.0,2.059,0.0,2.0031,1.9802,1.9671,1.9671,1.9605,1.9539,1.9374,1.9274,1.9208,1.9208,1.9175,1.9142,1.9142,1.9098,1.9108,1.9108,1.9108,1.9108,1.9108,1.9108,1.9108,1.9108,1.9142,1.8798,1.8283,1.8931,1.8418,1.7207,1.7823,1.7619,1.6793,1.5551,1.5338,1.5727,1.5062,1.474,1.4605,1.4605,1.4533,1.4425,1.4425,1.4317,1.4129,1.3928,1.3717,1.3572,1.3572,1.3535,1.3492,1.3492,1.3492,1.3492,1.3492,1.3492,1.3492,1.3492,1.3492,1.3455,1.3236,1.32,1.3046,1.2526,1.2415,1.2415,1.2415,1.2378,1.2378,1.2378,1.2335,1.2305,1.2305,1.2305,1.2305,1.2305,1.2305,1.2305,1.2305,1.215,1.1744,1.1074,1.07,1.0175,0.9528,0.9372,0.8993,0.8347,0.8841,0.8542,0.7518,0.6672,0.6367,0.0,0.0,0.0,0.0,2.0613,0.0,0.0,0.0,2.1325,2.1968,0.0,0.0,0.0,0.0,0.0,0.0,0.0,0.0,2.0979,2.0996,2.0935,2.0571,2.0129,1.9868,1.9868,1.9704,1.9572,1.9572,1.9539,1.9539,1.9539,1.9374,1.9285,1.9285,1.9175,1.9108,1.9108,1.9108,1.9108,1.9108,1.9108,1.9108,1.9108,1.9208,1.9241,1.9175,1.944,1.8965,1.807,1.8341,1.7823,1.6862,1.6724,1.6315,1.5798,1.5692,1.5196,1.4605,1.4605,1.4605,1.4569,1.4569,1.4461,1.4317,1.4137,1.3928,1.3754,1.3754,1.3645,1.3492,1.3492,1.3492,1.3492,1.3492,1.3492,1.3492,1.3492,1.3492,1.3455,1.3236,1.32,1.3119,1.2863,1.282,1.282,1.282,1.2673,1.2562,1.2562,1.2415,1.2305,1.2305,1.2305,1.2305,1.2305,1.2305,1.2305,1.2305,1.2268,1.215,1.1855,1.0999,1.0475,1.0363,0.9679,0.9258,0.9145,0.8537,0.8084,0.7744,0.7629,0.7518,0.0,0.0,0.0,0.0,0.0,0.0,2.1092,0.0,2.1831,0.0,0.0,0.0,0.0,0.0,0.0,0.0,2.1782,0.0,0.0,0.0,2.1126,0.0,0.0,0.0,2.0313,2.0161,1.9976,1.978,1.9857,1.9791,1.9605,1.9506,1.9473,1.9473,1.9407,1.9374,1.9374,1.9374,1.9374,1.9374,1.9374,1.9374,1.9407,1.944,1.9473,1.9473,1.9572,1.8965,1.791,1.8003,1.731,1.6245,1.6245,1.607,1.5727,1.5275,1.4883,1.4605,1.4605,1.4605,1.4605,1.4605,1.4497,1.4397,1.4317,1.4137,1.3964,1.3826,1.3754,1.3645,1.3535,1.3492,1.3492,1.3492,1.3492,1.3492,1.3492,1.3492,1.3499,1.3382,1.3382,1.3346,1.3273,1.3046,1.29,1.29,1.282,1.2783,1.2783,1.2709,1.2599,1.2489,1.2489,1.2415,1.2305,1.2305,1.2305,1.2305,1.1855,1.1558,1.1484,1.0614,1.0164,1.0164,0.9825,0.941,0.8965,0.9064,0.8803,0.8131,0.7553,0.7173,2.14,0.0,0.0,0.0,0.0,0.0,0.0,0.0,0.0,0.0,0.0,0.0,0.0,0.0,0.0,0.0,0.0,2.1865,0.0,0.0,0.0,0.0,0.0,0.0,0.0,2.0582,2.0367,2.0096,2.0085,1.9987,1.9747,1.9714,1.9671,1.9671,1.9638,1.9605,1.9605,1.9605,1.9605,1.9605,1.9605,1.9605,1.9605,1.9671,1.9671,1.9671,1.9714,1.9098,1.808,1.8104,1.732,1.6123,1.614,1.6009,1.5727,1.5026,1.4669,1.4605,1.4605,1.4605,1.4605,1.4605,1.4533,1.4461,1.4461,1.4317,1.4137,1.4008,1.3935,1.3819,1.3645,1.3572,1.3572,1.3499,1.3492,1.3492,1.3492,1.3492,1.3492,1.3492,1.3492,1.3492,1.3492,1.3273,1.3046,1.3046,1.301,1.2973,1.2973,1.2936,1.2826,1.2709,1.2673,1.2636,1.2489,1.2452,1.2452,1.2378,1.1781,1.1446,1.1446,1.0651,1.0233,1.0233,1.0008,0.9599,0.9036,0.941,0.9183,0.8479,0.7668,0.7207,0.0,0.0,0.0,2.1262,0.0,0.0,0.0,0.0,2.1135,0.0,0.0,0.0,0.0,0.0,0.0,0.0,0.0,0.0,0.0,0.0,0.0,0.0,0.0,0.0,0.0,2.0828,2.0571,0.0,2.0291,2.0118,2.0074,1.9976,1.99,1.99,1.9704,1.9605,1.9605,1.9605,1.9605,1.9605,1.9605,1.9605,1.9615,1.9802,1.99,1.99,2.0042,1.9671,1.9075,1.921,1.8307,1.6864,1.7019,1.6559,1.5762,1.5338,1.4919,1.4605,1.4605,1.4605,1.4605,1.4605,1.4605,1.4605,1.4605,1.4497,1.4389,1.4397,1.4245,1.4029,1.3826,1.379,1.3754,1.3564,1.3492,1.3492,1.3492,1.3492,1.3492,1.3492,1.3492,1.3492,1.3492,1.3492,1.3499,1.3499,1.3309,1.3193,1.3193,1.301,1.29,1.29,1.29,1.29,1.2863,1.2863,1.2783,1.2599,1.2378,1.2261,1.2261,1.1484,1.1074,1.1074,1.0314,0.9895,0.9857,0.9112,0.8737,0.8699,0.8461,0.8232,0.0,0.0,2.2123,2.1894,0.0,0.0,0.0,0.0,0.0,0.0,0.0,0.0,0.0,0.0,0.0,0.0,0.0,0.0,0.0,0.0,0.0,0.0,0.0,0.0,0.0,0.0,0.0,0.0,2.0474,0.0,2.0107,2.0042,2.0042,2.0042,1.9976,1.9944,1.9944,1.9944,1.9944,1.9944,1.9944,1.9944,1.9944,2.0009,2.0042,2.0042,2.0074,1.9769,1.921,1.8911,1.824,1.7407,1.7097,1.6612,1.6096,1.5727,1.5338,1.4955,1.4669,1.4605,1.4605,1.4605,1.4605,1.4605,1.4605,1.4569,1.4497,1.4425,1.4353,1.4245,1.4065,1.3891,1.3797,1.3717,1.3608,1.3492,1.3492,1.3492,1.3492,1.3492,1.3492,1.3492,1.3492,1.3492,1.3492,1.3492,1.3455,1.3382,1.3382,1.3346,1.3236,1.3119,1.3083,1.3046,1.29,1.29,1.2863,1.2783,1.2716,1.2636,1.2489,1.1744,1.1223,1.1111,0.9793,0.9112,0.9112,0.828,0.8169,0.8699,0.8089,0.7706,2.2228,2.2197,0.0,2.2197,2.2197,0.0,2.2197,0.0,2.2123,0.0,0.0,0.0,0.0,0.0,0.0,0.0,0.0,0.0,0.0,2.0773,0.0,0.0,0.0,0.0,0.0,0.0,0.0,0.0,0.0,0.0,0.0,2.0118,2.0118,2.0118,2.0118,2.0118,2.0118,2.0118,2.0118,2.0118,2.0118,2.0118,2.0118,2.0118,2.0118,2.0118,2.0118,1.9802,1.9266,1.8934,1.8375,1.7672,1.7304,1.6899,1.6482,1.6123,1.5736,1.5374,1.4955,1.4812,1.4784,1.4641,1.4605,1.4605,1.4605,1.4605,1.4569,1.4497,1.4461,1.4425,1.4245,1.4109,1.4008,1.3928,1.3754,1.3608,1.3608,1.3564,1.3492,1.3492,1.3492,1.3492,1.3492,1.3492,1.3492,1.3492,1.3492,1.3492,1.3492,1.3492,1.3455,1.3309,1.3309,1.3236,1.3119,1.3046,1.301,1.301,1.2936,1.2826,1.2709,1.2224,1.1943,1.1934,1.0773,1.0246,1.0367,0.9065,0.8727,0.9226,0.805,0.7446]}]]